[[{"header":{"parameterUnit":"m.s-1","parameterCategory":1,"la1":30.6,"la2":29.2853,"lo1":-89.7004,"lo2":-87.6739,"dy":0.0162,"dx":0.0183,"nx":112,"ny":82,"refTime":"2023-08-05T06:00:00:Z","depth":0,"parameterNumber":2,"parameterNumberName":"U-component_of_WINDS"},"data":[0.0,0.0,0.0,0.0,0.0,0.0,0.0,0.0,0.0,0.0,0.0,0.0,0.0,0.0,0.0,0.0,0.0,0.0,0.0,0.0,0.0,0.0,0.0,0.0,0.0,0.0,0.0,0.0,0.0,0.0,0.0,0.0,0.0,0.0,0.0,0.0,0.0,0.0,0.0,0.0,0.0,0.0,0.0,0.0,0.0,0.0,0.0,0.0,0.0,0.0,0.0,0.0,0.0,0.0,0.0,0.0,0.0,0.0,0.0,0.0,0.0,0.0,0.0,0.0,0.0,0.0,0.0,0.0,0.0,0.0,0.0,0.0,0.0,0.0,0.0,0.0,0.0,0.0,0.0,0.0,0.0,0.0,0.0,0.0,0.0,0.0,0.0,0.0,0.0,0.0,0.1084,0.0702,0.4701,0.7556,0.794,0.5684,0.406,0.3674,0.0,0.0,0.0,0.0,0.0,0.0,0.0,0.0,0.0,0.0,0.0,0.0,0.0,0.0,0.0,0.0,0.0,0.0,0.0,0.0,0.0,0.0,0.0,0.0,0.0,0.0,0.0,0.0,0.0,0.0,0.0,0.0,0.0,0.0,0.0,0.0,0.0,0.0,0.0,0.0,0.0,0.0,0.0,0.0,0.0,0.0,0.0,0.0,0.0,0.0,0.0,0.0,0.0,0.0,0.0,0.0,0.0,0.0,0.0,0.0,0.0,0.0,0.0,0.0,0.0,0.0,0.0,0.0,0.0,0.0,0.0,0.0,0.0,0.0,0.0,0.0,0.0,0.0,0.0,0.0,0.0,0.0,0.0,0.0,0.0,0.0,0.0,0.0,0.0,0.0,0.0,0.0,0.0,0.0,0.0,0.0,0.0,0.0,0.0,0.0,0.0,0.0,0.0,0.0,0.5892,0.3628,0.4109,0.5532,0.7759,0.7333,0.6768,0.618,0.0,0.0,0.0,0.0,0.0,0.0,0.0,0.0,0.0,0.0,0.0,0.0,0.0,0.0,0.0,0.0,0.0,0.0,0.0,0.0,0.0,0.0,0.0,0.0,0.0,0.0,0.0,0.0,0.0,0.0,0.0,0.0,0.0,0.0,0.0,0.0,0.0,0.0,0.0,0.0,0.0,0.0,0.0,0.0,0.0,0.0,0.0,0.0,0.0,0.0,0.0,0.0,0.0,0.0,0.0,0.0,0.0,0.0,0.0,0.0,0.0,0.0,0.0,0.0,0.0,0.0,0.0,0.0,0.0,0.0,0.0,0.0,0.0,0.0,0.0,0.0,0.0,0.0,0.0,0.0,0.0,0.0,0.0,0.0,0.0,0.0,0.0,0.0,0.0,0.0,0.0,0.0,0.0,0.0,0.0,0.0,0.0,0.0,0.0,0.0,0.0,0.0,0.0,0.7116,0.757,0.6342,0.6145,0.6648,0.7879,0.7801,0.7433,0.7118,0.5843,0.0,0.0,0.0,0.0,0.0,0.0,0.0,0.0,0.0,0.0,0.0,0.0,0.0,0.0,0.0,0.0,0.0,0.0,0.0,0.0,0.0,0.0,0.0,0.0,0.0,0.0,0.0,0.0,0.0,0.0,0.0,0.0,0.0,0.0,0.0,0.0,0.0,0.0,0.0,0.0,0.0,0.0,0.0,0.0,0.0,0.0,0.0,0.0,0.0,0.0,0.0,0.0,0.0,0.0,0.0,0.0,0.0,0.0,0.0,0.0,0.0,0.0,0.0,0.0,0.0,0.0,0.0,0.0,0.0,0.0,0.0,0.0,0.0,0.0,0.0,0.0,0.0,0.0,0.0,0.0,0.0,0.0,0.0,0.0,0.0,0.0,0.0,0.0,0.0,0.0,0.0,0.0,0.0,0.0,0.0,0.0,0.0,0.0,0.0,0.0,0.0,0.0,0.6555,0.7908,0.7955,0.8007,0.7965,0.7965,0.7712,0.7441,0.7326,0.6865,0.0,0.0,0.0,0.0,0.0,0.0,0.0,0.0,0.0,0.0,0.0,0.0,0.0,0.0,0.0,0.0,0.0,0.0,0.0,0.0,0.0,0.0,0.0,0.0,0.0,0.0,0.0,0.0,0.0,0.0,0.0,0.0,0.0,0.0,0.0,0.0,0.0,0.0,0.0,0.0,0.0,0.0,0.0,0.0,0.0,0.0,0.0,0.0,0.0,0.0,0.0,0.0,0.0,0.0,0.0,0.0,0.0,0.0,0.0,0.0,0.0,0.0,0.0,0.0,0.0,0.0,0.0,0.0,0.0,0.0,0.0,0.0,0.0,0.0,0.0,0.0,0.0,0.0,0.0,0.0,0.0,0.0,0.0,0.0,0.0,0.0,0.0,0.0,0.0,0.0,0.0,0.0,0.0,0.0,0.0,0.0,0.0,0.0,0.0,0.0,0.0,0.0,0.7351,0.7573,0.7967,0.8035,0.8041,0.8041,0.7506,0.717,0.7156,0.6614,0.0,0.0,0.0,0.0,0.0,0.0,0.0,0.0,0.0,0.0,0.0,0.0,0.0,0.0,0.0,0.0,0.0,0.0,0.0,0.0,0.0,0.0,0.0,0.0,0.0,0.0,0.0,0.0,0.0,0.0,0.0,0.0,0.0,0.0,0.0,0.0,0.0,0.0,0.0,0.0,0.0,0.0,0.0,0.0,0.0,0.0,0.0,0.0,0.0,0.0,0.0,0.0,0.0,0.0,0.0,0.0,0.0,0.0,0.0,0.0,0.0,0.0,0.0,0.0,0.0,0.0,0.0,0.0,0.0,0.0,0.0,0.0,0.0,0.0,0.0,0.0,0.0,0.0,0.0,0.0,0.0,0.0,0.0,0.0,0.0,0.0,0.0,0.0,0.0,0.0,0.0,0.0,0.0,0.0,0.0,0.0,0.0,0.0,0.0,0.0,0.0,0.0,0.719,0.7346,0.0,0.7896,0.7896,0.7896,0.7431,0.718,0.7278,0.0,0.0,0.0,0.0,0.0,0.0,0.0,0.0,0.0,0.0,0.0,0.0,0.0,0.0,0.0,0.0,0.0,0.0,0.0,0.0,0.0,0.0,0.0,0.0,0.0,0.0,0.0,0.0,0.0,0.0,0.0,0.0,0.0,0.0,0.0,0.0,0.0,0.0,0.0,0.0,0.0,0.0,0.0,0.0,0.0,0.0,0.0,0.0,0.0,0.0,0.0,0.0,0.0,0.0,0.0,0.0,0.0,0.0,0.0,0.0,0.0,0.0,0.0,0.0,0.0,0.0,0.0,0.0,0.0,0.0,0.0,0.0,0.0,0.0,0.0,0.0,0.0,0.0,0.0,0.0,0.0,0.0,0.0,0.0,0.0,0.0,0.0,0.0,0.0,0.0,0.0,0.0,0.0,0.0,0.0,0.0,0.0,0.0,0.0,0.0,0.0,0.0,0.6936,0.7082,0.7329,0.0,0.7841,0.7811,0.7811,0.7268,0.7034,0.7282,0.0,0.0,0.0,0.0,0.0,0.0,0.0,0.0,0.0,0.0,0.0,0.0,0.0,0.0,0.0,0.0,0.0,0.0,0.0,0.0,0.0,0.0,0.0,0.0,0.0,0.0,0.0,0.0,0.0,0.0,0.0,0.0,0.0,0.0,0.0,0.0,0.0,0.0,0.0,0.0,0.0,0.0,0.0,0.0,0.0,0.0,0.0,0.0,0.0,0.0,0.0,0.0,0.0,0.0,0.0,0.0,0.0,0.0,0.0,0.0,0.0,0.0,0.0,0.0,0.0,0.0,0.0,0.0,0.0,0.0,0.0,0.0,0.0,0.0,0.0,0.0,0.0,0.0,0.0,0.0,0.0,0.0,0.0,0.0,0.0,0.0,0.0,0.0,0.0,0.0,0.0,0.0,0.0,0.0,0.0,0.0,0.0,0.0,0.0,0.0,0.0,0.0,0.7061,0.7139,0.7366,0.797,0.7896,0.7807,0.7804,0.6987,0.6664,0.0,0.0,0.0,0.0,0.0,0.0,0.0,0.0,0.0,0.0,0.0,0.0,0.0,0.0,0.0,0.0,0.0,0.0,0.0,0.0,0.0,0.0,0.0,0.0,0.0,0.0,0.0,0.0,0.0,0.0,0.0,0.0,0.0,0.0,0.0,0.0,0.0,0.0,0.0,0.0,0.0,0.0,0.0,0.0,0.0,0.0,0.0,0.0,0.0,0.0,0.0,0.0,0.0,0.0,0.0,0.0,0.0,0.0,0.0,0.0,0.0,0.0,0.0,0.0,0.0,0.0,0.0,0.0,0.0,0.0,0.0,0.0,0.0,0.0,0.0,0.0,0.0,0.0,0.0,0.0,0.0,0.0,0.0,0.0,0.0,0.0,0.0,0.0,0.0,0.0,0.0,0.0,0.0,0.0,0.0,0.0,0.0,0.0,0.0,0.0,0.0,0.0,0.0,0.6929,0.699,0.718,0.7678,0.7594,0.7728,0.8422,0.7997,0.78,0.7994,0.0,0.0,0.0,0.0,0.0,0.0,0.0,0.0,0.0,0.0,0.0,0.0,0.0,0.0,0.0,0.0,0.0,0.0,0.0,0.0,0.0,0.0,0.0,0.0,0.0,0.0,0.0,0.0,0.0,0.0,0.0,0.0,0.0,0.0,0.0,0.0,0.0,0.0,0.0,0.0,0.0,0.0,0.0,0.0,0.0,0.0,0.0,0.0,0.0,0.0,0.0,0.0,0.0,0.0,0.0,0.0,0.0,0.0,0.0,0.0,0.0,0.0,0.0,0.0,0.0,0.0,0.0,0.0,0.0,0.0,0.0,0.0,0.0,0.0,0.0,0.0,0.0,0.0,0.0,0.0,0.0,0.0,0.0,0.0,0.0,0.0,0.0,0.0,0.0,0.0,0.0,0.0,0.0,0.0,0.0,0.0,0.0,0.0,0.0,0.0,0.0,0.0,0.6871,0.6929,0.7102,0.7553,0.7461,0.7779,0.8734,0.843,0.841,0.9096,0.0,0.0,0.0,0.0,0.0,0.0,0.0,0.0,0.0,0.0,0.0,0.0,0.0,0.0,0.0,0.0,0.0,0.0,0.0,0.0,0.0,0.0,0.0,0.0,0.0,0.0,0.0,0.0,0.0,0.0,0.0,0.0,0.0,0.0,0.0,0.0,0.0,0.0,0.0,0.0,0.0,0.0,0.0,0.0,0.0,0.0,0.0,0.0,0.0,0.0,0.0,0.0,0.0,0.0,0.0,0.0,0.0,0.0,0.0,0.0,0.0,0.0,0.0,0.0,0.0,0.0,0.0,0.0,0.0,0.0,0.0,0.0,0.0,0.0,0.0,0.0,0.0,0.0,0.0,0.0,0.0,0.0,0.0,0.0,0.0,0.0,0.0,0.0,0.0,0.0,0.0,0.0,0.0,0.0,0.0,0.0,0.0,0.0,0.0,0.0,0.0,0.0,0.6871,0.6915,0.7082,0.7529,0.7533,0.797,0.9106,0.8634,0.8854,1.0226,0.0,0.0,0.0,0.0,0.0,0.0,0.0,0.0,0.0,0.0,0.0,0.0,0.0,0.0,0.0,0.0,0.0,0.0,0.0,0.0,0.0,0.0,0.0,0.0,0.0,0.0,0.0,0.0,0.0,0.0,0.0,0.0,0.0,0.0,0.0,0.0,0.0,0.0,0.0,0.0,0.0,0.0,0.0,0.0,0.0,0.0,0.0,0.0,0.0,0.0,0.0,0.0,0.0,0.0,0.0,0.0,0.0,0.0,0.0,0.0,-0.0,0.0,0.0,0.0,0.0,0.0,0.0,0.0,0.0,0.0,0.0,0.0,0.0,0.0,0.0,0.0,0.0,0.0,0.0,0.0,0.0,0.0,0.0,0.0,0.0,0.0,0.0,0.0,0.0,0.0,0.0,0.0,0.0,0.0,0.0,0.0,0.0,0.0,0.0,0.0,0.0,0.0,0.6871,0.6824,0.6922,0.7373,0.8087,0.8973,0.9928,1.0413,1.0884,1.1231,1.0656,0.0,0.0,0.0,0.0,0.0,0.0,0.0,0.0,0.0,0.0,0.0,0.0,0.0,0.0,0.0,0.0,0.0,0.0,0.0,0.0,0.0,0.0,0.0,0.0,0.0,0.0,0.0,0.0,0.0,0.0,0.0,0.0,0.0,0.0,0.0,0.0,0.0,0.0,0.0,0.0,0.0,0.0,0.0,0.0,0.0,0.0,0.0,0.0,0.0,0.0,0.0,0.0,0.0,0.0,0.0,0.0,0.0,0.0,0.0,0.0,-0.0,0.0,0.0,0.0,0.0,0.0,0.0,0.0,0.0,0.0,0.0,0.0,0.0,0.0,0.0,0.0,0.0,0.0,0.0,0.0,0.0,0.0,0.0,0.0,0.0,0.0,0.0,0.0,0.0,0.0,0.0,0.0,0.0,0.0,0.0,0.0,0.0,0.0,0.0,0.0,0.0,0.6871,0.6797,0.6844,0.7221,0.8247,0.9283,1.0279,1.1046,1.173,1.2307,1.1948,0.0,0.0,0.0,0.0,0.0,0.0,0.0,0.0,0.0,0.0,0.0,0.0,0.0,0.0,0.0,0.0,0.0,0.0,0.0,0.0,0.0,0.0,0.0,0.0,0.0,0.0,0.0,0.0,0.0,0.0,0.0,0.0,0.0,0.0,0.0,0.0,0.0,0.0,0.0,0.0,0.0,0.0,0.0,0.0,0.0,0.0,0.0,0.0,0.0,0.0,0.0,0.0,0.0,0.4766,0.5831,0.57,0.18,0.0597,0.1666,0.1675,0.162,0.1327,0.0,0.0,0.0,0.0,0.0,0.0,0.0,0.0,0.0,0.0,0.0,0.0,0.0,0.0,0.0,0.0,0.0,0.0,0.0,0.0,0.0,0.0,0.0,0.0,0.0,0.9943,1.019,0.0,0.0,0.0,0.0,0.0,0.0,0.0,0.0,0.0,0.0,0.0,0.0,0.6841,0.6803,0.6844,0.7112,0.8189,0.9309,1.0216,1.1046,1.1926,1.2811,1.2855,1.2428,0.0,0.0,0.0,0.0,0.0,0.0,0.0,0.0,0.0,0.0,0.0,0.0,0.0,0.0,0.0,0.0,0.0,0.0,0.0,0.0,0.0,0.0,0.0,0.0,0.0,0.0,0.0,0.0,0.0,0.0,0.0,0.0,0.617,0.6486,0.0,0.0,0.0,0.0,0.0,0.0,0.0,0.0,0.0,0.0,0.0,0.0,0.0,0.4424,0.6312,0.5989,0.4069,0.0391,0.0731,0.0962,0.0951,0.0322,0.3153,0.8504,0.8538,0.0,0.6723,0.4154,0.0,0.0,0.0,0.0,0.0,0.0,0.0,0.0,0.0,0.0,0.0,0.0,0.0,0.0,0.0,0.0,0.0,0.0,0.0,0.0,0.0,0.0,0.759,0.7633,0.8508,0.9037,0.0,0.8223,0.8924,0.8632,0.7563,0.0,0.0,0.0,0.0,0.0,0.0,0.0,0.6722,0.6827,0.6959,0.7122,0.8189,0.8909,0.8909,1.0767,1.1711,1.151,1.2023,1.2536,1.2903,1.3459,0.0,0.0,0.0,0.0,0.0,0.0,0.0,0.0,0.0,0.0,0.0,0.0,0.0,0.0,0.0,0.0,0.0,0.0,0.0,0.0,0.0,0.0,0.0,0.0,0.0,0.0,0.0,0.0,0.0,0.6438,0.6077,0.4613,0.2568,0.1373,0.0,0.0,0.0,0.0,0.0,0.0,0.0,0.0,0.0,0.496,0.258,0.1813,0.2747,0.2741,0.1825,-0.0,0.3775,0.5531,0.5431,0.3634,0.4343,0.7148,0.883,0.9254,0.8506,0.7044,0.6232,0.6099,0.0,0.0,0.0,0.0,0.6603,0.6714,0.667,0.7217,0.0,0.8045,0.0,0.0,0.0,0.0,0.0,0.0,0.0,0.0,0.0,0.0,0.8734,0.8734,0.977,1.0552,1.0085,0.9733,0.9271,0.0,0.7627,0.7187,0.7115,0.0,0.0,0.0,0.0,0.6888,0.7054,0.7061,0.7105,0.7255,0.8251,0.8856,0.8858,1.01,1.104,1.1184,1.1289,1.1912,1.3345,1.22,1.1204,0.0,0.0,0.0,0.0,0.0,0.0,0.0,0.0,0.0,0.0,0.0,0.0,0.0,0.0,0.0,0.0,0.0,0.0,0.0,0.0,0.0,0.0,0.0,0.0,0.0,0.0,0.0,0.0,0.617,0.5935,0.402,0.1603,-0.0,0.0,0.0,0.0,0.0,0.0,0.0,0.233,0.3775,0.4685,0.4709,0.161,-0.0,-0.0,-0.0,-0.0,0.0116,0.6825,0.9991,0.9672,0.7319,0.6239,0.6334,0.8656,0.9557,0.9367,0.8859,0.834,0.7938,0.8431,0.8523,0.8585,0.8612,0.8699,0.8927,0.8701,0.8632,0.8595,0.8299,0.0,0.7957,0.7814,0.0,0.0,0.0,0.0,0.7723,0.776,0.8586,0.932,0.9368,1.0414,1.1361,1.0974,1.0369,0.949,0.0,0.7763,0.7543,0.7543,0.0,0.0,0.0,0.0,0.7166,0.735,0.7305,0.7302,0.7417,0.8136,0.8573,0.8524,0.9347,1.0079,1.06,1.0471,1.0947,1.226,1.049,0.9814,1.0605,0.0,0.0,0.0,0.0,0.0,0.0,0.0,0.0,0.0,0.0,0.0,0.0,0.0,0.0,0.0,0.0,0.0,0.0,0.0,0.0,0.0,0.0,0.0,0.0,0.0,0.0,0.0,0.0,0.0,0.6748,0.2831,0.0,0.0,0.0,0.0,-0.0,0.0096,0.0199,0.0206,0.021,0.0326,0.0342,0.0114,-0.0,-0.0,-0.0,-0.0,0.012,0.7207,1.0348,0.984,0.9992,0.9953,0.9807,1.0209,1.0297,0.9951,0.9218,0.8906,0.8872,0.8733,0.8764,0.8886,0.8903,0.8906,0.891,0.8916,0.8818,0.8713,0.8849,0.8689,0.8421,0.8279,0.8133,0.0,0.0,0.8018,0.8052,0.8197,0.8133,0.8165,0.8313,0.9234,0.9702,0.8432,0.911,0.9871,0.0,0.8287,0.7383,0.7383,0.0,0.7353,0.737,0.7482,0.7519,0.739,0.7492,0.758,0.7587,0.7674,0.7609,0.7461,0.8509,0.9071,0.8998,0.9334,0.9402,0.9135,0.9393,0.9861,1.0611,0.9492,0.0,0.0,0.0,0.0,0.0,0.0,0.0,0.0,0.0,0.0,0.0,0.0,0.0,0.0,0.0,0.0,0.0,0.0,0.0,0.0,0.0,0.0,0.0,0.0,0.0,0.0,0.0,0.0,0.6724,0.5972,0.0,0.0298,-0.0,-0.0,-0.0,-0.0,-0.0,-0.0,-0.0,-0.0,-0.0,-0.0,-0.0,-0.0,-0.0,-0.0,-0.0,0.4959,0.8408,1.0388,1.038,1.027,1.0215,1.027,1.0259,1.0178,0.991,0.9632,0.9374,0.9412,0.9401,0.9381,0.9473,0.9568,0.9625,0.9435,0.9334,0.9249,0.9015,0.8866,0.8767,0.8716,0.8662,0.8618,0.8618,0.8547,0.8486,0.854,0.8438,0.834,0.8304,0.8584,0.8749,0.834,0.847,0.8765,0.8737,0.8111,0.7685,0.7784,0.7645,0.755,0.7641,0.7699,0.7716,0.7662,0.7702,0.7736,0.7736,0.7655,0.7577,0.7522,0.7788,0.7948,0.7745,0.7852,0.8317,0.9216,0.9183,0.9218,0.9492,0.9148,0.8715,0.0,0.0,0.0,0.0,0.0,0.0,0.0,0.0,0.0,0.0,0.0,0.0,0.0,0.0,0.0,0.0,0.0,0.0,0.0,0.0,0.0,0.0,0.0,0.0,0.0,0.0,0.1129,0.4323,0.5072,0.3913,0.0324,-0.0,-0.0,-0.0,-0.0,-0.0,-0.0,-0.0,-0.0,-0.0,-0.0,-0.0,-0.0,-0.0,0.117,0.3641,0.4818,0.7274,1.0604,1.0534,1.0399,1.0354,1.0409,1.0429,1.0429,1.0429,1.0253,0.9985,0.9978,0.9917,0.9849,0.9941,1.0008,1.0015,0.9774,0.9659,0.9574,0.9283,0.9154,0.911,0.911,0.911,0.911,0.911,0.9039,0.8947,0.8783,0.8662,0.8648,0.8505,0.7693,0.6907,0.7328,0.7799,0.8247,0.8286,0.8065,0.7919,0.8021,0.7879,0.778,0.7875,0.7889,0.7889,0.7889,0.7889,0.7889,0.7889,0.7804,0.7726,0.7675,0.7577,0.7382,0.7191,0.7182,0.7549,0.8648,0.846,0.8452,0.889,0.9235,0.874,0.7217,0.0,0.0,0.0,0.0,0.0,0.0,0.0,0.0,0.0,0.0,0.0,0.0,0.0,0.0,0.0,0.0,0.0,0.0,0.0,0.0,0.0,0.0,0.0,-0.0,-0.0,-0.0,-0.0,-0.0,-0.0,-0.0,-0.0,-0.0,-0.0,-0.0,-0.0,-0.0,-0.0,-0.0,-0.0,0.0259,0.0391,0.0396,0.0264,0.3692,1.0488,0.7213,0.7276,1.0469,1.0602,1.0639,1.0507,1.0656,1.0721,1.0721,1.0721,1.0721,1.069,1.0405,1.0293,1.0293,1.0293,1.0195,1.0039,0.9914,0.965,0.941,0.9556,0.9466,0.9225,0.9225,0.9225,0.9225,0.9225,0.9222,0.9185,0.8804,0.8781,0.887,0.8941,0.6373,0.4357,0.5516,0.7229,0.8584,0.8316,0.816,0.8052,0.8041,0.8038,0.8038,0.8038,0.8038,0.0,0.8038,0.8038,0.8038,0.8038,0.8038,0.7977,0.7824,0.7707,0.7583,0.739,0.7177,0.7111,0.7058,0.7139,0.7669,0.8807,0.9923,0.9499,0.7373,0.0,0.0,0.0,0.0,0.0,0.0,0.0,0.0,0.0,0.0,0.0,0.0,0.0,0.0,0.0,0.0,0.0,0.0,0.0,0.0,0.0,0.0,-0.0,-0.0,-0.0,-0.0,-0.0,-0.0,-0.0,-0.0,-0.0,-0.0,-0.0,-0.0,-0.0,-0.0,-0.0,-0.0,-0.0,0.5112,0.7701,0.7786,0.5212,0.4937,0.6816,0.8446,0.9766,1.0636,1.0694,1.0697,1.066,1.0704,1.0721,1.0721,1.0721,1.0731,1.0734,1.0636,1.0609,1.0626,1.0626,1.0473,1.0259,1.0226,0.8389,0.6233,0.6237,0.622,0.6077,0.6077,0.6077,0.6077,0.6077,0.6148,0.6087,0.6061,0.6448,0.7388,0.8552,0.7105,0.5917,0.7633,0.8317,0.8555,0.8601,0.8371,0.8206,0.7979,0.8038,0.8038,0.8038,0.8038,0.0,0.8038,0.8038,0.8038,0.8038,0.8038,0.7977,0.7824,0.7716,0.7573,0.7383,0.7175,0.7094,0.7143,0.7068,0.7255,0.7616,0.7878,0.7782,0.0,0.0,0.0,0.0,0.0,0.0,0.0,0.0,0.0,0.0,0.0,0.0,0.0,0.0,0.0,0.0,0.0,0.0,0.0,0.0,0.0,0.0,-0.0,-0.0,-0.0,-0.0,-0.0,-0.0,-0.0,-0.0,-0.0,-0.0,-0.0,-0.0,-0.0,-0.0,-0.0,-0.0,-0.0,-0.0,0.4003,0.7755,1.1036,0.9064,0.7939,0.7919,0.9921,1.0846,1.0833,1.0755,1.0724,0.0,1.0734,1.0741,1.0755,1.0755,1.0765,0.0,0.0,0.0,0.0,0.0,0.8391,0.8439,0.9719,0.8699,0.6469,0.3702,0.2831,0.2831,0.2831,0.2831,0.2831,0.2831,0.2813,0.2789,0.2891,0.5257,0.8057,0.901,0.8205,0.7545,0.8739,0.8833,0.8706,0.8629,0.8545,0.0,0.7229,0.761,0.8116,0.8056,0.8039,0.8113,0.8048,0.8038,0.8038,0.8038,0.8038,0.7977,0.7724,0.7637,0.0,0.0,0.0,0.7121,0.7068,0.6171,0.0,0.0,0.0,0.5616,0.5591,0.0,0.0,0.0,0.7003,0.6856,0.0,0.0,0.0,0.0,0.0,0.0,0.0,0.0,0.0,0.0,0.0,0.0,0.0,0.0,0.0,0.0,-0.0,-0.0,-0.0,-0.0,-0.0,-0.0,-0.0,-0.0,-0.0,-0.0,-0.0,-0.0,-0.0,-0.0,-0.0,0.0,0.0,0.0,0.0,0.3526,1.0914,1.1331,1.1437,1.1372,1.1084,1.0989,1.0948,1.0816,1.0755,1.0625,1.0216,1.0095,1.012,1.012,1.0394,1.0672,1.0642,1.0648,1.0232,0.6264,0.4811,0.5226,0.7822,0.0,0.0,0.1865,-0.0,-0.0,-0.0,-0.0,-0.0,-0.0,-0.0,-0.0,-0.0,0.4598,0.9327,0.9669,0.9384,0.902,0.9215,0.9096,0.884,0.8706,0.854,0.7926,0.6305,0.7343,0.8249,0.811,0.818,0.8214,0.8058,0.8038,0.8038,0.8038,0.0,0.0,0.7724,0.7711,0.7488,0.7109,0.7073,0.7021,0.6748,0.4661,0.3434,0.3223,0.323,0.3202,0.3226,0.3422,0.3752,0.4017,0.6537,0.6337,0.0,0.0,0.0,0.0,0.0,0.0,0.0,0.0,0.0,0.0,0.0,0.0,0.0,0.0,0.0,-0.0,-0.0,-0.0,-0.0,-0.0,-0.0,-0.0,-0.0,-0.0,-0.0,-0.0,-0.0,-0.0,-0.0,-0.0,-0.0,-0.0,-0.0,-0.0,-0.0,0.2333,0.7225,1.0028,1.1396,1.1355,0.0,0.0,1.0978,1.0836,1.0634,1.0525,0.7655,0.6439,0.6443,0.6443,0.8079,1.0699,1.0692,1.0695,0.9868,0.3475,0.1061,0.1181,0.1675,0.1909,0.1641,0.0378,-0.0,-0.0,-0.0,-0.0,0.0,-0.0,-0.0,-0.0,-0.0,0.2944,0.6478,0.9184,0.9588,0.9496,0.9371,0.9225,0.911,0.9079,0.7736,0.6882,0.8097,0.8334,0.8438,0.8296,0.8272,0.8214,0.8058,0.8038,0.8038,0.8038,0.8038,0.7878,0.7724,0.7811,0.7685,0.7109,0.7072,0.6233,0.4393,0.3844,0.2661,0.0739,0.0657,0.067,0.0686,0.265,0.377,0.4043,0.6739,0.7627,0.0,0.0,0.0,0.0,0.0,0.0,0.0,0.0,0.0,0.0,0.0,-0.0,0.0,0.0,-0.0,-0.0,-0.0,-0.0,-0.0,-0.0,-0.0,-0.0,-0.0,-0.0,-0.0,-0.0,-0.0,-0.0,-0.0,-0.0,-0.0,-0.0,-0.0,-0.0,-0.0,0.1045,0.3109,0.8951,1.1842,1.1513,1.1305,1.0262,0.8438,0.812,0.9013,1.0551,0.8767,0.6051,0.2954,0.66,0.9061,1.0309,0.6747,0.5389,0.4845,0.1335,-0.0,-0.0,-0.0,-0.0,-0.0,-0.0,-0.0,0.0625,0.3907,0.4878,0.4199,0.0986,-0.0,-0.0,-0.0,0.1232,0.3683,0.8581,0.9727,0.9741,0.9652,0.9511,0.9286,0.9168,0.8348,0.7915,0.8848,0.8872,0.8665,0.8526,0.8496,0.8408,0.8184,0.816,0.8136,0.7965,0.7962,0.7935,0.7858,0.7976,0.7832,0.7413,0.7339,0.6777,0.5435,0.3091,0.1224,-0.0,-0.0,-0.0,-0.0,0.1195,0.1902,0.2022,0.3334,0.4041,0.0,0.0,0.0,0.0,0.0,0.0,0.0,0.0,-0.0,-0.0,-0.0,-0.0,-0.0,-0.0,-0.0,-0.0,-0.0,-0.0,-0.0,-0.0,-0.0,-0.0,-0.0,-0.0,-0.0,-0.0,-0.0,-0.0,-0.0,-0.0,-0.0,-0.0,-0.0,-0.0,-0.0,-0.0,-0.0,0.6764,1.0176,1.0604,1.123,0.9992,0.6875,0.512,0.5882,0.8682,0.8658,0.5389,0.0404,0.6213,0.8671,0.7988,0.2289,-0.0,-0.0,-0.0,-0.0,-0.0,-0.0,-0.0,-0.0,-0.0,0.0897,0.2908,0.8298,0.9853,0.8682,0.3337,0.0986,-0.0,-0.0,-0.0,0.1354,0.6676,0.8334,0.8852,0.8837,0.9209,0.9466,0.9342,0.932,0.9208,0.9222,0.9089,0.8923,0.8652,0.8612,0.8604,0.8309,0.8282,0.8231,0.7989,0.7572,0.7269,0.7269,0.6735,0.6819,0.7617,0.7672,0.7472,0.7305,0.3451,0.0966,-0.0,-0.0,-0.0,-0.0,-0.0,-0.0,-0.0,-0.0,-0.0,-0.0,-0.0,-0.0,-0.0,-0.0,-0.0,0.0,0.0,-0.0,-0.0,-0.0,-0.0,-0.0,-0.0,-0.0,-0.0,-0.0,-0.0,-0.0,-0.0,-0.0,-0.0,-0.0,-0.0,-0.0,-0.0,-0.0,-0.0,-0.0,-0.0,-0.0,-0.0,-0.0,-0.0,-0.0,-0.0,-0.0,0.0914,0.3313,0.6923,1.0041,1.1338,1.075,0.3799,0.0833,0.1233,0.1218,0.0808,-0.0,0.0808,0.1212,0.1077,0.0269,-0.0,-0.0,-0.0,-0.0,-0.0,-0.0,-0.0,-0.0,-0.0,0.4003,0.8928,1.0217,1.0259,0.9691,0.8934,0.4482,-0.0,-0.0,-0.0,0.0246,0.0861,0.3315,0.5397,0.5397,0.7777,0.9768,0.9748,0.9614,0.9497,0.9361,0.9232,0.9035,0.8757,0.8713,0.8604,0.8309,0.8282,0.8231,0.7989,0.5834,0.442,0.442,0.2268,0.2946,0.7624,0.7697,0.7716,0.7865,0.6884,0.4317,0.0098,-0.0,-0.0,-0.0,-0.0,-0.0,-0.0,-0.0,-0.0,-0.0,-0.0,0.0,0.0,-0.0,-0.0,-0.0,-0.0,-0.0,-0.0,-0.0,-0.0,-0.0,-0.0,-0.0,0.0,-0.0,-0.0,-0.0,-0.0,-0.0,-0.0,-0.0,-0.0,-0.0,-0.0,-0.0,-0.0,-0.0,-0.0,-0.0,-0.0,-0.0,-0.0,-0.0,-0.0,-0.0,-0.0,0.0898,0.2691,0.4118,0.4784,0.4721,0.1552,-0.0,-0.0,-0.0,-0.0,-0.0,-0.0,-0.0,-0.0,-0.0,-0.0,-0.0,-0.0,-0.0,-0.0,-0.0,-0.0,-0.0,-0.0,0.1842,0.4795,0.8995,1.0129,1.0029,0.9888,0.6443,0.246,0.0493,-0.0,-0.0,-0.0,0.1109,0.2093,0.209,0.3181,0.463,0.6582,0.8444,0.9683,0.9662,0.9334,0.913,0.9008,0.8906,0.8767,0.8554,0.8448,0.7092,0.3698,0.2354,0.163,0.1713,0.0599,0.0996,0.3217,0.6174,0.7861,0.8028,0.4798,0.1997,-0.0,-0.0,-0.0,-0.0,-0.0,-0.0,-0.0,-0.0,-0.0,-0.0,0.0,0.0,-0.0,-0.0,-0.0,-0.0,-0.0,-0.0,-0.0,-0.0,-0.0,-0.0,-0.0,-0.0,-0.0,-0.0,-0.0,-0.0,-0.0,-0.0,-0.0,-0.0,-0.0,-0.0,-0.0,-0.0,-0.0,-0.0,-0.0,-0.0,-0.0,-0.0,-0.0,-0.0,-0.0,-0.0,-0.0,-0.0,-0.0,-0.0,-0.0,-0.0,-0.0,-0.0,-0.0,-0.0,-0.0,-0.0,-0.0,-0.0,-0.0,-0.0,-0.0,-0.0,-0.0,-0.0,-0.0,-0.0,-0.0,-0.0,-0.0,-0.0,0.1051,0.6792,0.9413,1.0164,0.9972,0.7759,0.4847,0.2108,0.1364,0.1362,0.1357,0.0617,-0.0,-0.0,-0.0,0.0739,0.3073,0.549,0.752,0.872,0.9124,0.93,0.9256,0.9113,0.8937,0.8747,0.7834,0.5363,0.0521,-0.0,-0.0,-0.0,-0.0,0.0604,0.2114,0.4442,0.5768,0.5763,0.2018,-0.0,-0.0,-0.0,-0.0,-0.0,-0.0,-0.0,-0.0,-0.0,-0.0,0.0,0.0,-0.0,-0.0,-0.0,-0.0,-0.0,-0.0,-0.0,-0.0,-0.0,-0.0,-0.0,-0.0,-0.0,-0.0,-0.0,-0.0,-0.0,-0.0,-0.0,-0.0,-0.0,-0.0,0.0,-0.0,-0.0,-0.0,-0.0,-0.0,-0.0,-0.0,-0.0,-0.0,-0.0,-0.0,-0.0,-0.0,-0.0,-0.0,-0.0,-0.0,-0.0,-0.0,-0.0,-0.0,-0.0,-0.0,-0.0,-0.0,-0.0,-0.0,-0.0,-0.0,-0.0,-0.0,-0.0,-0.0,-0.0,-0.0,-0.0,-0.0,-0.0,0.0658,0.44,0.7624,1.0203,1.0337,0.8559,0.6383,0.5037,0.4768,0.4752,0.481,0.2336,-0.0,-0.0,-0.0,-0.0,0.0123,0.0246,0.1718,0.6,0.8368,0.9703,0.9552,0.9279,0.9076,0.8896,0.6122,0.306,0.0312,-0.0,-0.0,-0.0,-0.0,0.2221,0.7406,0.303,0.0202,0.0201,0.0101,-0.0,-0.0,-0.0,-0.0,-0.0,-0.0,-0.0,-0.0,-0.0,-0.0,0.0,0.0,-0.0,-0.0,-0.0,-0.0,-0.0,-0.0,-0.0,-0.0,-0.0,-0.0,-0.0,-0.0,-0.0,-0.0,-0.0,-0.0,-0.0,-0.0,-0.0,-0.0,-0.0,0.0,0.0,0.0,0.0,-0.0,-0.0,-0.0,-0.0,-0.0,-0.0,-0.0,-0.0,-0.0,-0.0,-0.0,-0.0,-0.0,-0.0,-0.0,-0.0,-0.0,-0.0,-0.0,-0.0,-0.0,-0.0,-0.0,-0.0,-0.0,-0.0,-0.0,-0.0,-0.0,-0.0,-0.0,-0.0,-0.0,-0.0,-0.0,-0.0,0.0667,0.4237,0.7767,1.0477,1.0409,0.9825,0.9106,0.8606,0.8324,0.8165,0.8175,0.7457,0.5607,0.0986,-0.0,-0.0,-0.0,0.1727,0.3699,0.5159,0.7909,0.9693,0.9401,0.9144,0.8923,0.8944,0.7987,0.537,0.0539,-0.0,-0.0,-0.0,0.3255,0.6075,0.7922,0.6268,0.3725,0.0101,-0.0,-0.0,-0.0,-0.0,-0.0,-0.0,-0.0,-0.0,0.0101,0.3636,0.526,-0.0,-0.0,-0.0,-0.0,-0.0,-0.0,-0.0,-0.0,-0.0,-0.0,-0.0,-0.0,-0.0,-0.0,-0.0,-0.0,-0.0,-0.0,-0.0,-0.0,-0.0,-0.0,-0.0,-0.0,0.0,0.0,0.0,-0.0,-0.0,-0.0,-0.0,-0.0,-0.0,-0.0,-0.0,-0.0,-0.0,-0.0,-0.0,-0.0,-0.0,-0.0,-0.0,-0.0,-0.0,-0.0,-0.0,-0.0,-0.0,-0.0,-0.0,-0.0,-0.0,-0.0,-0.0,-0.0,-0.0,-0.0,-0.0,-0.0,-0.0,-0.0,-0.0,0.0403,0.2786,0.6892,1.0636,1.051,1.047,1.0429,1.0421,1.0215,1.0009,0.9868,0.9995,0.9001,0.4588,0.2735,0.1745,0.1739,0.4461,0.668,0.6644,0.84,0.9713,0.948,0.9118,0.8897,0.8907,0.8893,0.7482,0.3615,0.2151,0.1479,0.1452,0.4587,0.698,0.7905,0.7995,0.6456,0.3015,0.1005,-0.0,-0.0,-0.0,-0.0,-0.0,0.1918,0.2827,0.2929,0.5454,0.7086,-0.0,-0.0,-0.0,-0.0,-0.0,-0.0,-0.0,-0.0,-0.0,-0.0,-0.0,-0.0,0.0,0.0,-0.0,-0.0,-0.0,-0.0,-0.0,-0.0,-0.0,0.0,0.0,0.0,0.0,0.0,0.0,-0.0,0.0,-0.0,-0.0,-0.0,-0.0,-0.0,-0.0,-0.0,-0.0,-0.0,-0.0,-0.0,-0.0,-0.0,-0.0,-0.0,-0.0,-0.0,-0.0,-0.0,-0.0,-0.0,-0.0,-0.0,-0.0,-0.0,-0.0,-0.0,-0.0,-0.0,-0.0,-0.0,-0.0,-0.0,-0.0,-0.0,0.0268,0.4967,1.0525,1.0628,1.0738,1.0683,1.0524,1.0382,1.0239,1.0076,0.9954,0.9914,1.0301,0.7604,0.5084,0.5011,0.7614,0.9808,0.9744,0.9744,0.9775,0.9768,0.9294,0.8987,0.8913,0.8873,0.8937,0.892,0.6136,0.4218,0.4245,0.4168,0.5331,0.7872,0.7982,0.7982,0.7972,0.3115,0.0302,-0.0,-0.0,0.0101,0.0404,0.5564,0.8026,0.7922,0.5438,0.5541,-0.0,-0.0,-0.0,-0.0,-0.0,-0.0,-0.0,-0.0,-0.0,-0.0,-0.0,-0.0,0.0,0.0,0.0,-0.0,-0.0,0.0,-0.0,-0.0,0.0,-0.0,0.0,-0.0,-0.0,-0.0,0.0,0.0,-0.0,-0.0,-0.0,-0.0,-0.0,-0.0,-0.0,-0.0,-0.0,-0.0,-0.0,-0.0,-0.0,-0.0,-0.0,-0.0,-0.0,-0.0,-0.0,-0.0,-0.0,-0.0,-0.0,-0.0,-0.0,-0.0,-0.0,-0.0,-0.0,-0.0,-0.0,-0.0,-0.0,-0.0,-0.0,0.0538,0.3219,0.5366,0.725,0.9924,1.0724,1.066,1.0402,1.0307,1.0212,0.9944,1.0029,1.0124,0.9954,0.9433,0.8259,0.5786,0.7783,1.0008,0.988,0.9812,0.9741,0.9758,0.971,0.9352,0.896,0.8924,0.8874,0.8853,0.8141,0.7451,0.6995,0.7067,0.7462,0.7979,0.7959,0.7959,0.7972,0.6648,0.4121,0.0101,-0.0,0.2015,0.5974,0.7305,0.8016,0.7999,0.7266,0.7363,-0.0,-0.0,-0.0,-0.0,-0.0,-0.0,-0.0,-0.0,-0.0,-0.0,-0.0,0.0,0.0,0.0,0.0,0.0,0.0,0.0,-0.0,-0.0,-0.0,0.0,-0.0,0.0,-0.0,-0.0,-0.0,0.0,-0.0,-0.0,-0.0,-0.0,-0.0,-0.0,-0.0,-0.0,-0.0,-0.0,-0.0,-0.0,-0.0,-0.0,-0.0,-0.0,-0.0,-0.0,0.0,-0.0,-0.0,-0.0,-0.0,0.0269,0.35,0.4714,0.4444,0.2956,0.2417,0.2417,0.2417,0.2417,0.2686,0.4172,0.3631,0.2685,0.4829,0.6437,0.8182,1.0196,1.0727,1.068,1.0517,1.0422,1.0331,1.0158,1.0202,1.0236,1.0076,1.0131,0.9526,0.7743,0.8765,1.0022,0.9866,0.9829,0.9795,0.9837,0.9827,0.9629,0.9302,0.904,0.8904,0.888,0.8842,0.8713,0.8301,0.8361,0.834,0.8258,0.8184,0.8174,0.8248,0.8036,0.657,0.3556,0.2319,0.3218,0.6261,0.7387,0.7995,0.7982,0.7965,0.7962,-0.0,-0.0,-0.0,-0.0,-0.0,-0.0,-0.0,-0.0,-0.0,-0.0,0.0,-0.0,-0.0,-0.0,-0.0,-0.0,0.0,-0.0,-0.0,-0.0,-0.0,-0.0,-0.0,-0.0,-0.0,-0.0,-0.0,-0.0,-0.0,-0.0,-0.0,-0.0,-0.0,-0.0,-0.0,-0.0,-0.0,-0.0,-0.0,-0.0,-0.0,-0.0,-0.0,-0.0,-0.0,-0.0,-0.0,0.0,-0.0,-0.0,-0.0,0.0673,0.7831,1.0705,1.029,0.7261,0.6038,0.6038,0.6038,0.6036,0.6577,0.9728,0.8628,0.6038,0.617,0.832,1.0755,1.0751,1.0738,1.0714,1.0673,1.0582,1.049,1.0443,1.0354,1.0276,1.0253,1.0049,0.981,0.9787,0.9988,1.0025,0.9849,0.9822,0.9822,0.9822,0.9822,0.9771,0.9751,0.9374,0.8917,0.8984,0.8849,0.8754,0.8713,0.8587,0.8503,0.8482,0.8367,0.8353,0.8476,0.8235,0.8056,0.7971,0.5682,0.452,0.452,0.6851,0.7972,0.7969,0.8048,0.8048,-0.0,-0.0,-0.0,-0.0,-0.0,-0.0,-0.0,-0.0,0.0,0.0,0.0,-0.0,-0.0,-0.0,0.0,-0.0,0.0,0.0,0.0,0.0,-0.0,0.0,0.0,0.0,0.0,0.0,0.0,0.0,0.0,-0.0,-0.0,-0.0,-0.0,-0.0,-0.0,-0.0,-0.0,-0.0,-0.0,-0.0,-0.0,-0.0,-0.0,-0.0,-0.0,-0.0,-0.0,0.0,-0.0,-0.0,-0.0,0.0673,0.7831,1.0705,1.0564,0.9993,0.9844,0.9844,0.9844,0.9828,0.9946,1.0528,1.0261,0.9841,0.9813,1.0212,1.0751,1.0731,1.0738,1.0687,1.0426,1.0579,1.0599,1.0192,1.0205,1.0246,1.0117,1.0171,1.0198,1.0046,1.0137,1.028,0.9869,0.9822,0.9822,0.9822,0.9822,0.9771,0.9751,0.9564,0.9305,0.9144,0.9093,0.8977,0.873,0.8686,0.8618,0.8489,0.8459,0.8455,0.8479,0.8323,0.8146,0.7971,0.7529,0.726,0.726,0.7769,0.7962,0.8045,0.8041,0.8041,-0.0,-0.0,-0.0,-0.0,-0.0,-0.0,-0.0,0.0,0.0,0.0,-0.0,-0.0,-0.0,0.0,0.0,0.0,0.0,0.0,0.0,0.0,0.0,0.0,0.0,0.0,0.0,0.0,0.0,0.0,0.0,-0.0,-0.0,-0.0,-0.0,-0.0,-0.0,-0.0,-0.0,-0.0,-0.0,-0.0,-0.0,-0.0,0.014,0.3929,0.5554,0.5315,0.1642,0.0,-0.0,-0.0,-0.0,0.0538,0.5919,0.9041,1.0685,1.0642,1.0761,1.0761,1.0761,1.0751,1.0741,1.0635,1.0638,1.0758,1.0755,1.0755,1.0755,1.0761,1.0638,1.0203,0.8312,0.9124,1.0484,1.0347,1.0378,1.0293,1.0219,1.0263,1.0293,1.0219,1.0266,1.0243,0.9888,0.9791,0.9744,0.9744,0.9744,0.9842,0.9774,0.9747,0.9618,0.9306,0.9201,0.9093,0.8954,0.8872,0.8798,0.8723,0.8645,0.8635,0.8716,0.8503,0.8381,0.828,0.8146,0.8136,0.7955,0.7955,0.8048,0.8038,0.7952,0.7955,-0.0,-0.0,-0.0,-0.0,-0.0,-0.0,-0.0,-0.0,0.0,0.0,-0.0,-0.0,-0.0,0.0,0.0,0.0,0.0,0.0,0.0,0.0,0.0,0.0,0.0,0.0,0.0,0.0,0.0,0.0,0.0,0.0,-0.0,-0.0,-0.0,-0.0,-0.0,-0.0,-0.0,-0.0,-0.0,-0.0,-0.0,-0.0,0.0279,0.742,1.0741,1.0324,0.4781,0.0,0.0,0.1209,0.121,0.1478,0.5096,0.82,1.0655,1.0738,1.0721,1.0721,1.0724,1.0727,1.0727,1.0721,1.0721,1.0731,1.0758,1.0216,0.954,0.9567,1.0124,0.9847,0.6285,0.7887,1.0177,0.9757,0.9453,0.9175,0.9202,0.908,0.9199,0.9172,0.9825,1.029,0.985,0.8588,0.7649,0.7649,0.7649,0.815,0.9655,0.9133,0.8899,0.9392,0.9344,0.9225,0.9157,0.9049,0.8971,0.894,0.8825,0.8815,0.8933,0.8676,0.8516,0.8492,0.8347,0.8201,0.8048,0.8048,0.8048,0.7952,0.7969,0.7669,-0.0,-0.0,-0.0,-0.0,-0.0,-0.0,-0.0,0.0,0.0,-0.0,-0.0,-0.0,-0.0,-0.0,0.0,0.0,0.0,0.0,0.0,0.0,0.0,0.0,0.0,0.0,0.0,0.0,0.0,0.0,0.0,0.0,-0.0,-0.0,-0.0,-0.0,-0.0,-0.0,-0.0,-0.0,-0.0,-0.0,-0.0,-0.0,0.0275,0.7454,1.073,1.0722,1.0015,0.0,0.0,0.4961,0.4962,0.523,0.8859,1.0352,1.0755,1.0731,1.0721,1.0724,1.0744,1.0751,1.0734,1.0764,1.067,1.0758,1.0655,0.8475,0.59,0.59,0.8218,0.9844,0.6343,0.7792,0.9511,0.6608,0.5923,0.5803,0.5487,0.537,0.5481,0.5797,0.8509,1.052,0.9851,0.4798,0.0858,0.0858,0.0858,0.3069,0.9026,0.7148,0.6508,0.9444,0.9666,0.9456,0.9174,0.914,0.9079,0.8947,0.8923,0.8923,0.894,0.8777,0.8635,0.8622,0.8364,0.8221,0.7985,0.7985,0.7985,0.7985,0.7989,0.6653,-0.0,-0.0,-0.0,-0.0,-0.0,-0.0,-0.0,0.0,0.0,-0.0,-0.0,-0.0,-0.0,-0.0,-0.0,0.0,0.0,0.0,0.0,0.0,0.0,0.0,0.0,0.0,0.0,0.0,0.0,0.0,0.0,0.0,-0.0,-0.0,-0.0,-0.0,-0.0,-0.0,-0.0,-0.0,-0.0,-0.0,-0.0,-0.0,0.0136,0.3008,0.6551,1.0705,1.0695,0.0,0.0,0.8628,0.8625,0.8748,1.0085,1.0755,1.0751,1.0744,1.0683,1.0757,1.0744,0.9362,0.7815,0.9936,1.0636,1.0673,1.0687,0.9683,0.7646,0.3342,0.3189,0.3941,0.2498,0.314,0.4811,0.7891,0.5283,0.2069,0.1966,0.1959,0.1955,0.2108,0.3259,0.424,0.3937,0.1759,-0.0,-0.0,-0.0,0.0985,0.3575,0.4436,0.6164,0.9406,0.9744,0.9658,0.931,0.9205,0.9096,0.8967,0.885,0.8856,0.887,0.8813,0.8781,0.8762,0.697,0.5904,0.5634,0.5634,0.5634,0.5636,0.7281,0.7394,-0.0,-0.0,-0.0,-0.0,-0.0,-0.0,0.0,0.0,0.0,-0.0,-0.0,-0.0,-0.0,-0.0,-0.0,0.0,0.0,0.0,0.0,0.0,0.0,0.0,0.0,0.0,0.0,0.0,0.0,0.0,0.0,0.0,0.0,-0.0,-0.0,-0.0,-0.0,-0.0,-0.0,-0.0,-0.0,-0.0,-0.0,-0.0,-0.0,-0.0,0.2711,0.7553,0.8638,0.0,0.0,1.0264,1.0672,1.0652,1.0755,1.0748,1.0755,1.0755,1.0012,0.9279,1.0358,0.9108,0.7417,0.9823,1.0733,1.0293,0.8152,0.7567,0.6489,0.1454,-0.0,-0.0,-0.0,-0.0,0.1292,0.6364,0.3637,-0.0,-0.0,-0.0,-0.0,-0.0,-0.0,-0.0,-0.0,-0.0,-0.0,-0.0,-0.0,-0.0,-0.0,0.1974,0.4318,0.6676,0.8693,0.9765,0.9542,0.9303,0.9167,0.8883,0.8072,0.7621,0.7636,0.7598,0.8056,0.8855,0.6844,0.4818,0.2838,0.2838,0.2829,0.2815,0.4746,0.5667,-0.0,-0.0,-0.0,-0.0,-0.0,-0.0,0.0,0.0,-0.0,-0.0,-0.0,-0.0,-0.0,-0.0,-0.0,-0.0,0.0,0.0,0.0,0.0,0.0,0.0,0.0,0.0,0.0,0.0,0.0,0.0,0.0,0.0,0.0,-0.0,-0.0,-0.0,-0.0,-0.0,-0.0,-0.0,-0.0,-0.0,-0.0,-0.0,-0.0,-0.0,-0.0,0.0,0.0,0.0,0.0,0.9265,1.0755,1.0751,1.0727,1.0734,1.0755,1.0755,0.8454,0.5902,0.9457,1.0702,1.0682,1.069,1.0689,0.9377,0.2326,0.0129,0.0129,-0.0,-0.0,-0.0,-0.0,-0.0,-0.0,0.0131,-0.0,-0.0,-0.0,-0.0,-0.0,-0.0,-0.0,-0.0,-0.0,-0.0,-0.0,-0.0,-0.0,-0.0,-0.0,-0.0,0.0123,0.0123,0.5927,0.9808,0.9838,0.9569,0.9205,0.8913,0.6161,0.4583,0.4583,0.4508,0.5902,0.8815,0.8887,0.5934,-0.0,-0.0,-0.0,-0.0,0.0101,0.0101,-0.0,-0.0,-0.0,-0.0,-0.0,-0.0,-0.0,0.0,-0.0,-0.0,-0.0,-0.0,-0.0,-0.0,-0.0,-0.0,-0.0,0.0,0.0,0.0,0.0,0.0,0.0,0.0,0.0,0.0,0.0,0.0,0.0,0.0,0.0,-0.0,-0.0,-0.0,-0.0,-0.0,-0.0,-0.0,-0.0,-0.0,-0.0,-0.0,-0.0,-0.0,-0.0,0.0,0.0,0.0,0.0,0.2948,0.6305,1.0652,1.0755,1.0748,1.0482,0.8845,0.7055,0.5162,0.388,0.334,0.3443,0.3397,0.3374,0.2962,0.063,-0.0,-0.0,-0.0,-0.0,-0.0,-0.0,-0.0,-0.0,-0.0,-0.0,-0.0,-0.0,-0.0,-0.0,-0.0,-0.0,-0.0,-0.0,-0.0,-0.0,-0.0,-0.0,-0.0,-0.0,-0.0,-0.0,-0.0,0.1851,0.4038,0.6222,0.6384,0.7116,0.8837,0.8042,0.5721,0.1567,0.1448,0.1869,0.2798,0.2815,0.1926,-0.0,-0.0,-0.0,-0.0,-0.0,-0.0,0.0,-0.1451,-0.1486,-0.1461,-0.0768,0.0,0.0,0.0,-0.0,-0.0,-0.0,-0.0,-0.0,-0.0,-0.0,-0.0,-0.0,0.0,0.0,0.0,0.0,0.0,0.0,0.0,0.0,0.0,0.0,0.0,0.0,0.0,0.0,-0.0,-0.0,-0.0,-0.0,-0.0,-0.0,-0.0,-0.0,-0.0,-0.0,-0.0,-0.0,-0.0,-0.0,0.0,0.0,0.0,0.0,-0.0,0.2683,0.6855,0.8189,0.9546,1.0515,0.9009,0.8025,0.6647,0.173,-0.0,-0.0,-0.0,-0.0,-0.0,-0.0,-0.0,-0.0,-0.0,-0.0,-0.0,-0.0,-0.0,-0.0,-0.0,-0.0,-0.0,-0.0,-0.0,-0.0,-0.0,-0.0,-0.0,-0.0,-0.0,-0.0,-0.0,-0.0,-0.0,-0.0,-0.0,-0.0,-0.0,-0.0,0.086,0.2914,0.3092,0.3734,0.5416,0.5554,0.3926,0.0112,-0.0,-0.0,-0.0,-0.0,-0.0,-0.0,-0.0,-0.0,-0.0,-0.0,-0.0,0.0,0.0,0.0,0.0,0.0,0.0,0.0,0.0,0.0,-0.0,-0.0,-0.0,-0.0,-0.0,-0.0,-0.0,0.0,0.0,0.0,0.0,0.0,0.0,0.0,0.0,0.0,0.0,0.0,0.0,0.0,0.0,0.0,-0.0,-0.0,-0.0,-0.0,-0.0,-0.0,-0.0,-0.0,-0.0,-0.0,-0.0,-0.0,-0.0,-0.0,0.0,0.0,0.0,0.0,-0.0,-0.0,0.0268,0.3754,0.6996,1.0015,1.029,1.0437,0.9737,0.3047,0.0395,-0.0,-0.0,-0.0,-0.0,-0.0,-0.0,-0.0,-0.0,-0.0,-0.0,-0.0,-0.0,-0.0,-0.0,-0.0,-0.0,-0.0,-0.0,-0.0,-0.0,-0.0,-0.0,-0.0,-0.0,-0.0,-0.0,-0.0,-0.0,-0.0,-0.0,-0.0,-0.0,-0.0,-0.0,-0.0,-0.0,-0.0,-0.0,-0.0,-0.0,-0.0,-0.0,-0.0,-0.0,-0.0,-0.0,-0.0,-0.0,-0.0,-0.0,-0.0,-0.0,-0.6444,0.0,-0.6424,-0.6685,-0.632,0.0,0.0,0.0,0.0,0.0,0.0,-0.0,-0.0,-0.0,-0.0,0.0,0.0,0.0,0.0,0.0,0.0,0.0,0.0,0.0,0.0,0.0,0.0,0.0,0.0,0.0,0.0,-0.0,-0.0,-0.0,-0.0,-0.0,-0.0,-0.0,-0.0,-0.0,-0.0,-0.0,-0.0,-0.0,-0.0,0.0,0.0,0.0,-0.0,-0.0,-0.0,0.0134,0.094,0.1744,0.2819,0.564,0.8304,1.0402,0.8747,0.4583,-0.0,-0.0,-0.0,-0.0,-0.0,-0.0,-0.0,-0.0,-0.0,-0.0,-0.0,-0.0,-0.0,-0.0,-0.0,-0.0,-0.0,-0.0,-0.0,-0.0,-0.0,-0.0,-0.0,-0.0,-0.0,-0.0,-0.0,-0.0,-0.0,-0.0,-0.0,-0.0,-0.0,-0.0,-0.0,-0.0,-0.0,-0.0,-0.0,-0.0,-0.0,-0.0,-0.0,-0.0,-0.0,-0.0,-0.0,-0.0,-0.0,-0.0,-0.0,-0.0,-0.7064,-0.7232,-0.7389,-0.7587,-0.7595,-0.6829,0.0,0.0,0.0,0.0,0.0,0.0,-0.0,0.0,0.0,0.0,0.0,0.0,0.0,0.0,0.0,0.0,0.0,0.0,0.0,0.0,0.0,0.0,0.0,0.0,0.0,-0.0,-0.0,-0.0,-0.0,-0.0,-0.0,-0.0,-0.0,-0.0,-0.0,-0.0,-0.0,-0.0,-0.0,0.0,0.0,0.0,-0.0,-0.0,-0.0,-0.0,-0.0,-0.0,0.0268,0.2265,0.4106,0.5794,0.585,0.3202,-0.0,-0.0,-0.0,-0.0,-0.0,-0.0,-0.0,-0.0,-0.0,-0.0,-0.0,-0.0,-0.0,-0.0,-0.0,-0.0,-0.0,-0.0,-0.0,-0.0,-0.0,-0.0,-0.0,-0.0,-0.0,-0.0,-0.0,-0.0,-0.0,-0.0,-0.0,-0.0,-0.0,-0.0,-0.0,-0.2817,-0.3261,-0.0236,-0.0,-0.0,-0.0,-0.0,-0.0,-0.0,-0.0,-0.0,-0.0,-0.0,-0.0,-0.0,-0.0,-0.0,-0.7078,-0.7292,-0.7594,-0.755,-0.7547,-0.7416,0.0,0.0,0.0,0.0,0.0,0.0,0.0,0.0,0.0,0.0,0.0,0.0,0.0,0.0,0.0,0.0,0.0,0.0,0.0,0.0,0.0,0.0,0.0,0.0,0.0,-0.0,-0.0,-0.0,-0.0,-0.0,-0.0,-0.0,-0.0,-0.0,-0.0,-0.0,-0.0,-0.0,-0.0,-0.0,0.0,0.0,-0.0,-0.0,-0.0,-0.0,-0.0,-0.0,-0.0,-0.0,-0.0,-0.0,-0.0,-0.0,-0.0,-0.0,-0.0,-0.0,-0.0,-0.0,-0.0,-0.0,-0.0,-0.0,-0.0,-0.0,-0.0,-0.0,-0.0,-0.0,-0.0,-0.0,-0.0,-0.0,-0.0,-0.0,-0.0,-0.0872,-0.1481,-0.1481,-0.1111,-0.074,-0.074,-0.074,-0.074,-0.074,-0.074,-0.074,-0.074,-0.5808,-0.6836,-0.1769,-0.093,-0.0457,-0.0,-0.0,-0.0,-0.0,-0.0,-0.0,-0.0,-0.0,-0.0,-0.0,-0.0,0.0539,-0.7078,-0.7295,-0.746,-0.7594,-0.7555,-0.7476,0.0,0.0,0.0,0.0,0.0,0.0,0.0,0.0,0.0,0.0,0.0,0.0,0.0,0.0,0.0,0.0,0.0,0.0,0.0,0.0,0.0,0.0,0.0,0.0,0.0,-0.0,-0.0,-0.0,-0.0,-0.0,-0.0,-0.0,-0.0,-0.0,-0.0,-0.0,-0.0,-0.0,-0.0,-0.0,0.0,-0.0,-0.0,-0.0,-0.0,-0.0,-0.0,-0.0,-0.0,-0.0,-0.0,-0.0,-0.0,-0.0,-0.0,-0.0,-0.0,-0.0,-0.0,-0.0,-0.0,-0.0,-0.0,-0.0,-0.0,-0.0,-0.0,-0.0,-0.0,-0.0,-0.0,-0.0,-0.0,-0.0,-0.0,-0.0,-0.0,-0.4578,-0.8307,-0.8307,-0.5921,-0.418,-0.418,-0.418,-0.418,-0.418,-0.418,-0.418,-0.418,-0.5044,-0.6323,-0.7914,-0.5391,-0.2651,-0.0112,-0.0,-0.0,-0.0,-0.0,-0.0,-0.0,-0.0,-0.0,-0.0,-0.0,0.273,-0.7091,-0.7202,-0.6929,-0.5769,-0.5568,-0.5631,0.0,0.0,0.0,0.0,0.0,0.0,0.0,0.0,0.0,0.0,0.0,0.0,0.0,0.0,0.0,0.0,0.0,0.0,0.0,0.0,0.0,0.0,0.0,0.0,0.0,0.0,-0.0,-0.0,-0.0,-0.0,-0.0,-0.0,-0.0,-0.0,-0.0,-0.0,-0.0,-0.0,-0.0,-0.0,0.0,-0.0,-0.0,-0.0,-0.0,-0.0,-0.0,-0.0,-0.0,-0.0,-0.0,-0.0,-0.0,-0.0,-0.0,-0.0,-0.0,-0.0,-0.0,-0.0,-0.0,-0.0,-0.0,-0.0,-0.0,-0.0,-0.0,-0.0,-0.0,-0.0,-0.0,-0.0,-0.0,-0.0,-0.0,-0.1111,-0.4695,-0.7806,-0.9814,-0.9801,-0.8529,-0.7523,-0.7523,-0.7523,-0.7523,-0.7523,-0.7523,-0.7523,-0.7523,-0.751,-0.8024,-0.9349,-0.7772,-0.4775,-0.0224,-0.0,-0.0,-0.0,-0.0,-0.0,-0.0,-0.0,-0.0,-0.0,-0.0,0.3202,-0.7104,-0.7058,-0.6379,-0.3489,0.0,0.0,0.0,0.0,0.0,0.0,0.0,0.0,0.0,0.0,0.0,0.0,0.0,0.0,0.0,0.0,0.0,0.0,0.0,0.0,0.0,0.0,0.0,0.0,0.0,0.0,0.0,0.0,-0.0,-0.0,-0.0,-0.0,-0.0,-0.0,-0.0,-0.0,-0.0,-0.0,-0.0,-0.0,-0.0,-0.0,-0.0,-0.0,-0.0,-0.0,-0.0,-0.0,-0.0,-0.0,-0.0,-0.0,-0.0,-0.0,-0.0,-0.0,-0.0,-0.0,-0.0987,-0.2346,-0.2346,-0.1727,-0.111,-0.111,-0.111,-0.0986,-0.0247,-0.0,-0.0,-0.0,-0.0,-0.0,-0.0,-0.1235,-0.2346,-0.2346,-0.1727,-0.2713,-0.7798,-0.9296,-0.9791,-0.9774,-0.9767,-0.9764,-0.9764,-0.9764,-0.9764,-0.9764,-0.9764,-0.9764,-0.9764,-0.9714,-0.9597,-0.9389,-0.9185,-0.7053,-0.2237,-0.0787,-0.0,-0.0,-0.0,-0.0,-0.0,-0.0,-0.0,-0.0,-0.0,0.245,-0.7125,-0.7144,-0.6004,-0.1447,0.0,0.0,0.0,0.0,0.0,0.0,0.0,0.0,0.0,0.0,0.0,0.0,0.0,0.0,0.0,0.0,0.0,0.0,0.0,0.0,0.0,0.0,0.0,0.0,0.0,0.0,0.0,0.0,0.0,-0.0,-0.0,-0.0,-0.0,-0.0,-0.0,-0.0,-0.0,-0.0,-0.0,-0.0,-0.0,-0.0,-0.0,-0.0,-0.0,-0.0,-0.0,-0.0,-0.0,-0.0,-0.0,-0.0,-0.0,-0.0,-0.0,-0.0,-0.0,-0.0,-0.4077,-0.906,-0.906,-0.6917,-0.4548,-0.4548,-0.4548,-0.3813,-0.074,-0.0,-0.0,-0.0,-0.0,-0.0,-0.0,-0.4818,-0.906,-0.906,-0.6664,-0.4673,-0.5167,-0.7755,-0.9859,-0.9859,-0.9842,-0.9829,-0.9829,-0.9829,-0.9829,-0.9829,-0.9829,-0.9829,-0.9829,-0.96,-0.953,-0.9509,-0.9652,-0.9235,-0.8354,-0.2959,-0.0,-0.0,-0.0,-0.0,-0.0,-0.0,-0.0,-0.0,-0.0,0.0224,-0.7108,-0.7067,-0.5945,-0.1192,0.0,0.0,0.0,0.0,0.0,0.0,0.0,0.0,0.0,0.0,0.0,0.0,0.0,0.0,0.0,0.0,0.0,0.0,0.0,0.0,0.0,0.0,0.0,0.0,0.0,0.0,0.0,0.0,0.0,-0.0,-0.0,-0.0,-0.0,-0.0,-0.0,-0.0,-0.0,-0.0,-0.0,-0.0,-0.0,-0.0,-0.0,-0.0,-0.0,-0.0,-0.0,-0.0,-0.0,-0.0,-0.0,-0.0,-0.2592,-0.6062,-0.6062,-0.4812,-0.3076,-0.3076,-0.4681,-0.716,-0.9167,-0.8909,-0.7899,-0.7899,-0.7899,-0.6778,-0.1352,-0.0,-0.0985,-0.5179,-0.6054,-0.5559,-0.3448,-0.5049,-0.7408,-0.9416,-0.8781,-0.7894,-0.7997,-0.8986,-0.9849,-0.9836,-0.9825,-0.9822,-0.9822,-0.9822,-0.9822,-0.9822,-0.9822,-0.9822,-0.9822,-0.969,-0.8775,-0.6736,-0.8266,-0.9091,-0.8947,-0.3207,-0.0,-0.0,-0.0,-0.0,-0.0,-0.0,-0.0,-0.0,-0.0,-0.0,-0.5095,-0.5927,-0.6403,0.0,0.0,0.0,0.0,0.0,0.0,0.0,0.0,0.0,0.0,0.0,0.0,0.0,0.0,0.0,0.0,0.0,0.0,0.0,0.0,0.0,0.0,0.0,0.0,0.0,0.0,0.0,0.0,0.0,0.0,-0.1547,-0.2497,-0.2642,-0.1568,-0.1546,-0.1542,-0.1557,-0.052,-0.0,-0.0,-0.0,-0.0,-0.0,-0.0,-0.0,-0.0,-0.0,-0.0,-0.0,-0.0,-0.1246,-0.3087,-0.3087,-0.5311,-0.8421,-0.9429,-0.8287,-0.6403,-0.6403,-0.6399,-0.6888,-0.9139,-0.9764,-0.9757,-0.9757,-0.9757,-0.8751,-0.4288,-0.3067,-0.4185,-0.8778,-0.9794,-0.917,-0.6903,-0.6399,-0.7138,-0.939,-0.9761,-0.9751,-0.9849,-0.9846,-0.9839,-0.9822,-0.9822,-0.9822,-0.9822,-0.9822,-0.9822,-0.9822,-0.9822,-0.9822,-0.9822,-0.9741,-0.8596,-0.5563,-0.6849,-0.712,-0.6158,-0.2201,-0.0,-0.0,-0.0,-0.0,-0.0,-0.0,-0.0,-0.0,-0.0,-0.0,-0.0673,-0.351,0.0,0.0,0.0,0.0,0.0,0.0,0.0,0.0,0.0,0.0,0.0,0.0,0.0,0.0,0.0,0.0,0.0,0.0,0.0,0.0,0.0,0.0,0.0,0.0,0.0,0.0,0.0,0.0,0.0,0.0,-0.154,-0.4747,-0.8135,-0.8266,-0.5006,-0.4933,-0.4896,-0.4896,-0.1634,-0.0,-0.0,-0.0,-0.0,-0.0,-0.0,-0.0,-0.0,-0.0,-0.0,-0.0123,-0.0123,-0.4076,-0.9818,-0.9818,-0.7787,-0.5412,-0.8649,-0.9784,-0.9784,-0.9784,-0.9761,-0.9856,-0.9856,-0.9839,-0.9822,-0.9822,-0.9822,-0.9822,-0.9822,-0.9741,-0.9784,-0.9784,-0.9784,-0.9784,-0.9784,-0.9757,-0.9856,-0.9856,-0.9836,-0.9822,-0.9822,-0.9822,-0.9822,-0.9822,-0.9822,-0.9822,-0.9822,-0.9822,-0.9822,-0.9822,-0.9822,-0.9822,-0.9822,-0.9842,-0.8854,-0.674,-0.5525,-0.3518,-0.0118,-0.0,-0.0,-0.0,-0.0,-0.0,-0.0,-0.0,-0.0,-0.0,-0.0,-0.0,-0.3789,-0.5491,0.0,0.0,0.0,0.0,0.0,0.0,0.0,0.0,0.0,0.0,0.0,0.0,0.0,0.0,0.0,0.0,0.0,0.0,0.0,0.0,0.0,0.0,0.0,0.0,0.0,0.0,0.0,0.0,0.0,-0.7429,-0.6246,-0.4984,-0.8039,-0.9388,-0.838,-0.834,-0.8324,-0.8321,-0.7363,-0.4475,-0.0,-0.0,-0.0,-0.0,-0.0,-0.0,-0.0,-0.0,-0.2716,-0.6931,-0.6931,-0.6673,-0.6657,-0.8912,-0.9145,-0.8491,-0.9493,-0.9859,-0.9846,-0.9846,-0.9839,-0.9832,-0.9832,-0.9825,-0.9822,-0.9822,-0.9822,-0.9822,-0.9822,-0.9832,-0.9846,-0.9846,-0.9859,-0.9744,-0.9849,-0.9839,-0.9832,-0.9832,-0.9825,-0.9822,-0.9822,-0.9822,-0.9822,-0.9822,-0.9822,-0.9822,-0.9822,-0.9822,-0.9822,-0.9822,-0.9822,-0.9822,-0.9822,-0.9842,-0.948,-0.8854,-0.8509,-0.5833,-0.0235,-0.0,-0.0,-0.0,-0.0,-0.0,-0.0,-0.0,-0.0,-0.0,-0.0,-0.0,-0.5658,0.0,0.0,0.0,0.0,0.0,0.0,0.0,0.0,0.0,0.0,0.0,0.0,0.0,0.0,0.0,0.0,0.0,0.0,0.0,0.0,0.0,0.0,0.0,0.0,0.0,0.0,0.0,0.0,0.0,0.0,-0.984,-0.8916,-0.6879,-0.8777,-0.9847,-0.9751,-0.9747,-0.9747,-0.9747,-0.9741,-0.7575,-0.3778,-0.2502,-0.1254,-0.0,-0.0,-0.0,-0.0245,-0.2832,-0.6185,-0.9811,-0.9741,-0.8482,-0.7128,-0.8952,-0.9697,-0.9842,-0.9842,-0.9832,-0.9822,-0.9822,-0.9822,-0.9822,-0.9822,-0.9822,-0.9822,-0.9822,-0.9822,-0.9822,-0.9822,-0.9822,-0.9822,-0.9822,-0.9832,-0.9839,-0.9825,-0.9822,-0.9822,-0.9822,-0.9822,-0.9822,-0.9822,-0.9822,-0.9822,-0.9822,-0.9822,-0.9822,-0.9822,-0.9822,-0.9822,-0.9822,-0.9822,-0.9822,-0.9822,-0.9832,-0.9842,-0.9842,-0.9808,-0.799,-0.4028,-0.1412,-0.0,-0.0,-0.0,-0.0,-0.0,-0.0,-0.0,-0.0,-0.0,-0.0,0.0,0.0,0.0,0.0,0.0,0.0,0.0,0.0,0.0,0.0,0.0,0.0,0.0,0.0,0.0,0.0,0.0,0.0,0.0,0.0,0.0,0.0,0.0,0.0,0.0,0.0,0.0,0.0,0.0,0.0,0.0,-0.9812,-0.9822,-0.9802,-0.9836,-0.9836,-0.9802,-0.9802,-0.9795,-0.9778,-0.955,-0.9496,-0.9384,-0.6584,-0.3558,-0.0368,-0.0369,-0.0366,-0.0843,-0.686,-0.9519,-0.9754,-0.9473,-0.9597,-0.9798,-0.9546,-0.9576,-0.9802,-0.9802,-0.9802,-0.9802,-0.9819,-0.9812,-0.9802,-0.9819,-0.9822,-0.9822,-0.9822,-0.9822,-0.9822,-0.9822,-0.9822,-0.9822,-0.9822,-0.9822,-0.9822,-0.9822,-0.9822,-0.9822,-0.9822,-0.9822,-0.9822,-0.9822,-0.9822,-0.9822,-0.9822,-0.9822,-0.9822,-0.9822,-0.9822,-0.9822,-0.9822,-0.9822,-0.9822,-0.9822,-0.9822,-0.9822,-0.9822,-0.97,-0.9635,-0.9765,-0.402,-0.0582,-0.0,-0.0,-0.0,-0.0,-0.0,-0.0,-0.0,-0.0,-0.0,0.0,0.0,0.0,0.0,0.0,0.0,0.0,0.0,0.0,0.0,0.0,0.0,0.0,0.0,0.0,0.0,0.0,0.0,0.0,0.0,0.0,0.0,0.0,0.0,0.0,0.0,0.0,0.0,0.0,0.0,-0.9476,-0.9595,-0.9659,-0.9656,-0.9768,-0.9774,-0.9656,-0.9656,-0.9595,0.0,-0.9449,-0.9435,-0.9442,-0.8904,-0.6899,-0.3498,-0.3501,-0.3589,-0.3656,-0.5094,-0.7128,-0.9284,-0.9248,-0.9355,-0.9479,-0.9449,-0.953,-0.9533,-0.9656,-0.9656,-0.955,-0.9785,-0.9744,-0.9676,-0.9788,-0.9822,-0.9822,-0.9822,-0.9822,-0.9822,-0.9822,-0.9822,-0.9822,-0.9822,-0.9822,-0.9822,-0.9822,-0.9822,-0.9822,-0.9822,-0.9822,-0.9822,-0.9822,-0.9822,-0.9822,-0.9822,-0.9822,-0.9822,-0.9822,-0.9822,-0.9822,-0.9822,-0.9822,-0.9822,-0.9822,-0.9822,-0.9822,-0.9822,-0.9791,-0.9727,-0.9622,-0.829,-0.5152,-0.0117,-0.0,-0.0,-0.0,-0.0,-0.0,-0.0,-0.0,-0.0,0.0,0.0,0.0,0.0,0.0,0.0,0.0,0.0,0.0,0.0,0.0,0.0,0.0,0.0,0.0,0.0,0.0,0.0,0.0,0.0,0.0,0.0,0.0,0.0,0.0,0.0,0.0,0.0,0.0,-0.9381,-0.9381,-0.9456,-0.95,-0.95,-0.9571,-0.9574,-0.95,-0.95,-0.9459,-0.9381,-0.9306,-0.9273,-0.9279,-0.9586,-0.8701,-0.6894,-0.6662,-0.6603,-0.6626,-0.6672,-0.7752,-0.9175,-0.9282,-0.9435,-0.949,-0.949,-0.9419,-0.9486,-0.9489,-0.9561,-0.951,-0.9588,-0.9561,-0.9513,-0.9588,-0.9612,-0.9629,-0.9823,-0.9844,-0.9858,-0.9805,-0.9822,-0.9822,-0.9822,-0.9822,-0.9822,-0.9822,-0.9822,-0.9822,-0.9822,-0.9822,-0.9822,-0.9822,-0.9822,-0.9822,-0.9822,-0.9822,-0.9822,-0.9822,-0.9822,-0.9822,-0.9822,-0.9822,-0.9822,-0.9822,-0.9822,-0.9822,-0.9822,-0.9758,-0.9717,-0.971,-0.9581,-0.7931,-0.4581,-0.1524,-0.0,-0.0,-0.0,-0.0,-0.0,-0.0,-0.0,0.0,0.0,0.0,0.0,0.0,0.0,0.0,0.0,0.0,0.0,0.0,0.0,0.0,0.0,0.0,0.0,0.0,0.0,0.0,0.0,0.0,0.0,0.0,0.0,0.0,0.0,0.0,0.0,0.0,-0.9306,-0.9306,-0.9306,-0.9317,-0.934,-0.9344,-0.9344,-0.9344,-0.9344,-0.933,-0.9303,-0.9178,-0.913,-0.9157,-0.9279,-0.9466,-0.9374,-0.9149,-0.8958,-0.8947,-0.9053,-0.9096,-0.9211,-0.931,-0.9381,-0.9493,-0.9372,-0.9389,-0.9409,-0.9409,-0.9329,-0.9344,-0.9371,-0.9364,-0.9347,-0.9371,-0.9497,-0.9528,-0.9655,-0.9713,-0.9761,-0.9754,-0.9802,-0.9822,-0.9822,-0.9822,-0.9822,-0.9822,-0.9822,-0.9822,-0.9822,-0.9822,-0.9822,-0.9822,-0.9822,-0.9822,-0.9822,-0.9822,-0.9822,-0.9822,-0.9822,-0.9822,-0.9822,-0.9822,-0.9822,-0.9822,-0.9822,-0.9822,-0.9822,-0.971,-0.97,-0.9815,-0.9707,-0.9605,-0.9523,-0.3824,-0.0602,-0.0,-0.0,-0.0,-0.0,-0.0,-0.0,0.0,0.0,0.0,0.0,0.0,0.0,0.0,0.0,0.0,0.0,0.0,0.0,0.0,0.0,0.0,0.0,0.0,0.0,0.0,0.0,0.0,0.0,0.0,0.0,0.0,0.0,0.0,0.0,-0.9069,-0.8998,-0.8998,-0.8998,-0.9055,-0.9178,-0.9184,-0.9184,-0.9184,-0.9184,-0.912,-0.8998,-0.8977,-0.9032,-0.915,-0.9049,-0.9069,-0.9188,-0.9191,-0.911,-0.8866,-0.8883,-0.889,-0.889,-0.8998,-0.9008,-0.9028,-0.9028,-0.911,-0.9332,-0.9094,-0.8964,-0.897,-0.9337,-0.9293,-0.9208,-0.934,-0.9497,-0.9504,-0.9285,-0.951,-0.9737,-0.9632,-0.9727,-0.9822,-0.9822,-0.9822,-0.9822,-0.9822,-0.9822,-0.9822,-0.9822,-0.9822,-0.9822,-0.9822,-0.9822,-0.9822,-0.9822,-0.9822,-0.9822,-0.9822,-0.9822,-0.9822,-0.9822,-0.9822,-0.9822,-0.9822,-0.9822,-0.9822,-0.9822,-0.9802,-0.9802,-0.9822,-0.9802,-0.9795,-0.9802,-0.6161,-0.2901,-0.0,-0.0,-0.0,-0.0,-0.0,-0.0,0.0,0.0,0.0,0.0,0.0,0.0,0.0,0.0,0.0,0.0,0.0,0.0,0.0,0.0,0.0,0.0,0.0,0.0,0.0,0.0,0.0,0.0,0.0,0.0,0.0,0.0,0.0,0.0,-0.8716,-0.8682,-0.8682,-0.8682,-0.875,-0.8899,-0.8821,-0.8818,-0.8903,-0.8818,-0.8743,-0.8682,-0.8771,-0.8845,-0.8906,-0.893,-0.9018,-0.9147,-0.9066,-0.8998,-0.894,-0.894,-0.894,-0.8947,-0.9028,-0.9059,-0.9069,-0.9154,-0.9288,-0.9384,-0.9034,-0.8868,-0.893,-0.911,-0.9086,-0.9045,-0.9113,-0.9133,-0.915,-0.9111,-1.0341,-1.1731,-1.1326,-1.1769,-1.2315,-1.2427,-1.2453,-1.2453,-1.2453,-1.102,-0.9822,-0.9822,-0.9822,-0.9822,-0.9822,-0.9822,-0.9822,-0.9822,-0.9822,-0.9822,-0.9822,-0.9822,-0.9822,-0.9822,-0.9822,-0.9822,-0.9822,-0.9822,-0.9822,-0.9822,-0.9822,-0.9822,-0.9822,-0.9822,-0.9825,-0.9836,-0.8323,-0.5134,-0.0,-0.0,-0.0,-0.0,-0.0,-0.0,0.0,0.0,0.0,0.0,0.0,0.0,0.0,0.0,0.0,0.0,0.0,0.0,0.0,0.0,0.0,0.0,0.0,0.0,0.0,0.0,0.0,0.0,0.0,0.0,0.0,0.0,0.0,0.0,-0.8482,-0.8482,-0.8482,-0.8448,-0.8499,-0.8648,-0.8506,-0.8503,-0.8652,-0.8537,-0.8482,-0.8482,-0.8598,-0.8652,-0.8655,-0.8771,-0.8903,-0.9035,-0.8967,-0.894,-0.894,-0.894,-0.9154,-0.9382,-0.9167,-0.9318,-0.9666,-0.9339,-0.9312,-0.9216,-0.8984,-0.8913,-0.8937,-0.8916,-0.8913,-0.891,-0.8893,-0.8886,-0.902,-0.9475,-1.1359,-1.3204,-1.3081,-1.365,-1.4311,-1.4548,-1.4559,-1.441,-1.4113,-1.2093,-1.0301,-0.9819,-0.9822,-0.9822,-0.9822,-0.9822,-0.9822,-0.9822,-0.9822,-0.9822,-0.9822,-0.9822,-0.9822,-0.9822,-0.9822,-0.9822,-0.9822,-0.9822,-0.9822,-0.9822,-0.9822,-0.9822,-0.9822,-0.9822,-0.9822,-0.9822,-0.9747,-0.7025,-0.123,-0.037,-0.0,-0.0,-0.0,-0.0,0.0,0.0,0.0,0.0,0.0,0.0,0.0,0.0,0.0,0.0,0.0,0.0,0.0,0.0,0.0,0.0,0.0,0.0,0.0,0.0,0.0,0.0,0.0,0.0,0.0,0.0,0.0,0.0,-0.8482,-0.8482,-0.8482,-0.8353,-0.8347,-0.8489,-0.8357,-0.835,-0.8492,-0.8486,-0.8482,-0.8482,-0.8489,-0.8492,-0.8496,-0.8503,-0.8587,-0.874,-0.8879,-0.894,-0.894,-0.894,-0.9699,-1.0891,-0.9493,-0.982,-1.0798,-0.9393,-0.8957,-0.895,-0.895,-0.8947,-0.893,-0.8862,-0.8951,-0.8937,-0.8872,-0.8852,-0.9298,-1.1112,-1.2402,-1.3431,-1.3773,-1.3984,-1.4311,-1.4548,-1.4432,-1.3864,-1.2649,-1.2213,-1.1615,-1.0061,-0.9822,-0.9822,-0.9822,-0.9822,-0.9822,-0.9822,-0.9822,-0.9822,-0.9822,-0.9822,-0.9822,-0.9822,-0.9822,-0.9822,-0.9822,-0.9822,-0.9822,-0.9822,-0.9822,-0.9822,-0.9822,-0.9822,-0.9822,-0.9822,-0.9846,-0.8122,-0.4671,-0.1476,-0.0,-0.0,-0.0,-0.0,0.0,0.0,0.0,0.0,0.0,0.0,0.0,0.0,0.0,0.0,0.0,0.0,0.0,0.0,0.0,0.0,0.0,0.0,0.0,0.0,0.0,0.0,0.0,0.0,0.0,0.0,0.0,0.0,0.0,-0.8197,-0.8197,-0.815,-0.8191,-0.834,-0.8201,-0.8147,-0.8197,-0.8197,-0.8197,-0.8197,-0.8299,-0.8852,-0.9556,-0.9669,-1.0168,-1.1067,-1.1138,-1.0778,-1.0347,-1.0347,-1.1214,-1.2389,-1.1724,-1.1859,-1.2267,-0.9804,-0.8949,-0.8917,-0.8917,-0.8917,-0.8913,-0.8886,-1.0225,-1.1359,-0.9514,-0.8949,-0.9846,-1.431,-1.5742,-1.5928,-1.5342,-1.5905,-1.677,-1.7213,-1.6535,-1.5368,-1.4074,-1.2005,-1.0423,-0.9923,-0.9822,-0.9822,-0.9822,-0.9822,-0.9822,-0.9822,-0.9822,-0.9822,-0.9822,-0.9822,-0.9822,-0.9822,-0.9822,-0.9822,-0.9822,-0.9822,-0.9822,-0.9822,-0.9822,-0.9822,-0.9822,-0.9822,-0.9822,-0.9822,-0.9829,-0.923,-0.8025,-0.2582,-0.0,-0.0,-0.0,-0.0,0.0,0.0,0.0,0.0,0.0,0.0,0.0,0.0,0.0,0.0,0.0,0.0,0.0,0.0,0.0,0.0,0.0,0.0,0.0,0.0,0.0,0.0,0.0,0.0,0.0,0.0,0.0,0.0,0.0,0.0,-0.8038,-0.8038,-0.8089,-0.8191,-0.8092,-0.8038,-0.8038,-0.8038,-0.8233,-0.863,-0.884,-0.9585,-1.0771,-1.0905,-1.1411,-1.2287,-1.2287,-1.1978,-1.1558,-1.1558,-1.2409,-1.3662,-1.2985,-1.3056,-1.3316,-1.1186,-0.9709,-0.9176,-1.1091,-1.1774,-1.1536,-0.9589,-1.0254,-1.1827,-1.18,-1.1791,-1.2588,-1.6542,-1.7562,-1.7436,-1.6761,-1.6995,-1.7469,-1.7862,-1.6321,-1.4536,-1.3645,-1.1871,-1.0299,-0.9923,-0.9822,-0.9822,-0.9822,-0.9822,-0.9822,-0.9822,-0.9822,-0.9822,-0.9822,-0.9822,-0.9822,-0.9822,-0.9822,-0.9822,-0.9822,-0.9822,-0.9822,-0.9822,-0.9822,-0.9822,-0.9822,-0.9822,-0.9822,-0.9822,-0.9822,-0.9849,-0.9784,-0.4671,-0.1967,-0.1602,-0.1602,-0.1602,0.0,0.0,0.0,0.0,0.0,0.0,0.0,0.0,0.0,0.0,0.0,0.0,0.0,0.0,0.0,0.0,0.0,0.0,0.0,0.0,0.0,0.0,0.0,0.0,0.0,0.0,0.0,0.0,-0.8038,-0.8038,-0.8038,-0.8038,-0.8038,-0.8038,-0.8038,-0.8038,-0.8038,-0.8137,-0.8726,-1.0096,-1.0096,-1.0681,-1.1945,-1.1945,-1.2061,-1.2358,-1.2358,-1.238,-1.2485,-1.25,-1.3319,-1.4445,-1.3007,-1.322,-1.4129,-1.3556,-1.1584,-0.9946,-1.5587,-1.7626,-1.6649,-1.098,-0.9169,-1.0261,-1.5852,-1.7582,-1.7582,-1.7582,-1.7582,-1.7649,-1.7956,-1.7108,-1.6216,-1.5973,-1.3593,-1.1492,-1.1376,-1.1699,-1.1611,-1.0054,-0.9819,-0.9822,-0.9822,-0.9822,-0.9822,-0.9822,-0.9822,-0.9822,-0.9822,-0.9822,-0.9822,-0.9822,-0.9822,-0.9822,-0.9822,-0.9822,-0.9822,-0.9822,-0.9822,-0.9822,-0.9822,-0.9822,-0.9822,-0.9822,-0.9822,-0.9849,-0.9781,-0.7744,-0.6134,-0.5042,-0.504,-0.504,-0.6338,0.0,0.0,0.0,0.0,0.0,0.0,0.0,0.0,0.0,0.0,0.0,0.0,0.0,0.0,0.0,0.0,0.0,0.0,0.0,0.0,0.0,0.0,0.0,0.0,0.0,0.0,0.0,-0.8038,-0.8038,-0.8038,-0.8038,-0.8038,-0.8038,-0.892,-0.941,-0.941,-1.0386,-1.0974,-1.1365,-1.1365,-1.2042,-1.3397,-1.3397,-1.3919,-1.4774,-1.4774,-1.4812,-1.482,-1.4199,-1.4856,-1.6066,-1.5463,-1.5651,-1.6182,-1.5902,-1.5472,-1.5407,-1.7029,-1.7634,-1.7331,-1.5753,-1.517,-1.5505,-1.7114,-1.7582,-1.7582,-1.7582,-1.7582,-1.7602,-1.7689,-1.6675,-1.5658,-1.5884,-1.3588,-1.141,-1.1667,-1.1008,-1.014,-0.9786,-0.9751,-0.9822,-0.9822,-0.9822,-0.9822,-0.9822,-0.9822,-0.9822,-0.9822,-0.9822,-0.9822,-0.9822,-0.9822,-0.9822,-0.9822,-0.9822,-0.9822,-0.9822,-0.9822,-0.9822,-0.9822,-0.9822,-0.9822,-0.9822,-0.9822,-0.9829,-0.9846,-0.9226,-0.8754,-0.8421,-0.8407,-0.8401,0.0,0.0,0.0,0.0,0.0,0.0,-0.6458,-0.6495,0.0,0.0,0.0,0.0,0.0,0.0,0.0,0.0,0.0,0.0,0.0,0.0,0.0,0.0,0.0,0.0,0.0,-0.7855,-0.7855,-0.7855,-0.7913,-0.7943,-0.7943,-0.7943,-0.7916,-0.7858,-0.9099,-0.9669,-0.9669,-1.0901,-1.1903,-1.2571,-1.2571,-1.3295,-1.4657,-1.4657,-1.514,-1.5832,-1.5832,-1.5832,-1.5757,-1.5303,-1.5541,-1.6319,-1.6152,-1.6266,-1.65,-1.6333,-1.656,-1.6954,-1.7421,-1.7647,-1.7571,-1.7571,-1.7571,-1.7571,-1.7571,-1.7646,-1.763,-1.763,-1.7607,-1.7582,-1.7582,-1.6068,-1.4595,-1.4739,-1.2529,-1.0498,-1.0533,-1.0051,-0.9534,-0.9598,-0.9724,-0.9822,-0.9822,-0.9822,-0.9822,-0.9822,-0.9822,-0.9822,-0.9822,-0.9822,-0.9798,-0.9741,-0.9734,-0.9707,-0.9642,-0.9639,-0.9663,-0.973,-0.9734,-0.9758,-0.9819,-0.9822,-0.9822,-0.9822,-0.9822,-0.9822,-0.9822,-0.9836,-0.9859,-0.9767,-0.9754,-0.9747,0.0,0.0,0.0,0.0,0.0,0.0,-0.6427,-0.6363,-0.6315,0.0,0.0,0.0,0.0,0.0,0.0,0.0,0.0,0.0,0.0,0.0,0.0,0.0,0.0,0.0,-0.7795,-0.7691,-0.76,-0.76,-0.7716,-0.7787,-0.7787,-0.7787,-0.7729,-0.7604,-0.8889,-0.9528,-0.9528,-1.0905,-1.22,-1.3543,-1.3572,-1.4372,-1.5785,-1.5812,-1.5832,-1.5832,-1.5832,-1.5832,-1.5832,-1.5832,-1.5832,-1.5832,-1.5832,-1.578,-1.5784,-1.5784,-1.5849,-1.5982,-1.7,-1.7369,-1.7389,-1.7389,-1.7389,-1.7389,-1.7389,-1.7489,-1.7613,-1.7647,-1.7617,-1.7582,-1.7582,-1.5423,-1.3264,-1.3264,-1.1228,-0.9093,-0.8964,-0.9171,-0.9422,-0.9557,-0.97,-0.9798,-0.9798,-0.9812,-0.9822,-0.9822,-0.9822,-0.9822,-0.9822,-0.9805,-0.9747,-0.9625,-0.9595,-0.953,-0.9395,-0.9381,-0.9445,-0.9598,-0.9608,-0.9666,-0.9791,-0.9802,-0.9802,-0.9802,-0.9819,-0.9825,-0.9825,-0.9825,-0.9822,-0.9822,-0.9822,-0.9822,0.0,0.0,0.0,0.0,0.0,0.0,-0.6349,-0.6369,-0.6407,0.0,0.0,0.0,0.0,0.0,0.0,0.0,0.0,0.0,0.0,0.0,0.0,0.0,0.0,0.0,-0.8979,-0.8153,-0.76,-0.76,-0.7628,-0.7641,-0.7641,-0.7641,-0.7628,-0.76,-0.9718,-1.0915,-1.0915,-1.3115,-1.443,-1.4676,-1.4904,-1.514,-1.5491,-1.5718,-1.5832,-1.5832,-1.5832,-1.5832,-1.5832,-1.5832,-1.5832,-1.5832,-1.5832,-1.5763,-1.581,-1.581,-1.5776,-1.5803,-1.6026,-1.617,-1.614,-1.614,-1.614,-1.614,-1.614,-1.6799,-1.7551,-1.7553,-1.7647,-1.7582,-1.7582,-1.5423,-1.3264,-1.3264,-1.1135,-0.8974,-0.8944,-0.9171,-0.9391,-0.9418,-0.9547,-0.9649,-0.9649,-0.9744,-0.9822,-0.9822,-0.9822,-0.9822,-0.9822,-0.972,-0.9639,-0.9612,-0.95,-0.9412,-0.9384,-0.9381,-0.9445,-0.9598,-0.9608,-0.9622,-0.9649,-0.9792,-0.9683,-0.9556,-0.9667,-0.9849,-0.9849,-0.9849,-0.9839,-0.9822,-0.9822,-0.9822,0.0,0.0,0.0,-0.7265,0.0,0.0,0.0,-0.8132,-0.8132,0.0,0.0,0.0,0.0,0.0,0.0,0.0,0.0,0.0,0.0,0.0,0.0,0.0,0.0,0.0,-0.8272,-0.7727,-0.74,-0.7482,-0.7485,-0.7485,-0.7485,-0.7485,-0.7451,-0.7373,-0.9701,-1.0944,-1.0944,-1.3361,-1.4596,-1.4743,-1.489,-1.511,-1.5398,-1.5545,-1.5611,-1.5618,-1.5765,-1.5745,-1.5625,-1.5765,-1.5832,-1.5832,-1.5832,-1.5832,-1.5832,-1.5832,-1.5817,-1.5827,-1.5827,-1.5816,-1.5823,-1.5823,-1.5823,-1.5823,-1.5823,-1.6467,-1.7361,-1.7573,-1.7582,-1.747,-1.6717,-1.4883,-1.3181,-1.2416,-1.0691,-0.9045,-0.9045,-0.9164,-0.9266,-0.9266,-0.9391,-0.9544,-0.969,-0.9774,-0.9822,-0.9822,-0.9822,-0.9822,-0.9822,-0.9758,-0.9659,-0.951,-0.9425,-0.932,-0.9171,-0.9161,-0.9256,-0.9483,-0.9422,-0.9456,-0.9741,-0.9686,-0.8927,-0.7249,-0.7357,-0.8156,-0.9771,-0.9829,-0.9842,-0.9822,-0.9822,-0.9822,0.0,0.0,0.0,0.0,0.0,-1.0228,0.0,0.0,0.0,0.0,0.0,0.0,0.0,0.0,0.0,0.0,0.0,0.0,0.0,0.0,0.0,0.0,0.0,0.0,0.0,-0.7159,-0.7119,-0.7275,-0.7285,-0.7285,-0.7285,-0.7285,-0.7317,-0.745,-0.9429,-1.0651,-1.095,-1.3039,-1.4208,-1.4436,-1.4549,-1.4856,-1.5317,-1.5431,-1.5451,-1.5411,-1.5645,-1.5578,-1.5337,-1.5625,-1.5752,-1.5758,-1.5812,-1.5832,-1.5832,-1.5832,-1.5832,-1.5832,-1.5832,-1.5832,-1.5832,-1.5832,-1.5832,-1.5852,-1.5965,-1.6444,-1.7062,-1.7526,-1.7582,-1.7252,-1.5743,-1.4341,-1.2985,-1.1616,-1.0219,-0.9113,-0.9113,-0.9133,-0.9154,-0.9154,-0.93,-0.95,-0.9741,-0.9802,-0.9822,-0.9822,-0.9822,-0.9812,-0.9785,-0.9781,-0.9666,-0.9367,-0.9337,-0.9228,-0.896,-0.8944,-0.9059,-0.9327,-0.9232,-0.9404,-0.9676,-0.9452,-0.7621,-0.3989,-0.3931,-0.5904,-0.9854,-0.9198,-0.9223,-0.9829,-0.9829,-0.9829,0.0,0.0,0.0,0.0,-1.0231,0.0,0.0,0.0,-1.0177,-0.9815,0.0,0.0,0.0,0.0,0.0,0.0,0.0,0.0,0.0,0.0,0.0,0.0,0.0,0.0,0.0,-0.741,-0.6814,-0.6966,-0.698,-0.698,-0.698,-0.698,-0.7479,-0.8471,-0.9723,-1.0995,-1.2066,-1.347,-1.4108,-1.4142,-1.4663,-1.495,-1.503,-1.5545,-1.5638,-1.5398,-1.5431,-1.5284,-1.5037,-1.5324,-1.5557,-1.579,-1.5833,-1.5832,-1.5832,-1.5832,-1.5832,-1.5832,-1.5832,-1.5832,-1.5832,-1.5832,-1.5832,-1.5925,-1.6446,-1.6773,-1.7062,-1.7526,-1.7582,-1.7252,-1.5743,-1.4341,-1.2945,-1.1455,-1.0052,-0.8964,-0.8964,-0.9062,-0.9154,-0.9154,-0.9388,-0.9595,-0.9629,-0.9737,-0.9822,-0.9822,-0.9822,-0.9774,-0.9649,-0.9635,-0.9517,-0.9211,-0.9178,-0.9113,-0.8954,-0.8846,-0.9039,-0.9198,-0.9329,-0.9349,-0.9387,-0.9154,-0.6276,-0.0706,-0.0597,-0.3635,-0.9787,-0.6898,-0.7008,-0.9852,-0.9852,-0.9852,0.0,0.0,0.0,0.0,0.0,0.0,-1.2498,0.0,-1.2228,0.0,0.0,0.0,0.0,0.0,0.0,0.0,-1.2412,0.0,0.0,0.0,0.0,0.0,0.0,0.0,0.0,0.0,0.0,0.0,-0.7621,-0.7373,-0.6797,-0.7377,-0.7998,-0.8687,-1.0361,-1.1562,-1.2322,-1.347,-1.4088,-1.4088,-1.4335,-1.4543,-1.4716,-1.4957,-1.5003,-1.4897,-1.507,-1.5077,-1.4983,-1.5179,-1.5498,-1.5772,-1.5785,-1.5832,-1.5832,-1.5832,-1.5832,-1.5832,-1.5832,-1.5832,-1.5832,-1.5832,-1.6054,-1.6386,-1.6799,-1.6948,-1.7163,-1.7468,-1.6935,-1.5956,-1.4556,-1.3156,-1.1673,-1.0362,-0.9436,-0.896,-0.9045,-0.9045,-0.9052,-0.9137,-0.9256,-0.9371,-0.9462,-0.9669,-0.9791,-0.971,-0.9696,-0.9676,-0.9615,-0.9544,-0.9415,-0.9198,-0.9174,-0.912,-0.8876,-0.8863,-0.8236,-0.6521,-0.841,-0.9439,-0.9113,-0.5671,-0.2512,-0.0,-0.0,-0.1317,-0.4144,-0.4664,-0.6537,-0.9781,-0.9767,-0.8757,-1.2659,0.0,0.0,0.0,0.0,0.0,0.0,0.0,0.0,0.0,0.0,0.0,0.0,0.0,0.0,0.0,0.0,-1.2317,0.0,0.0,0.0,0.0,0.0,0.0,0.0,0.0,0.0,-0.8724,-0.8603,-0.8252,-0.7527,-0.8171,-0.8801,-0.9358,-1.092,-1.1981,-1.265,-1.3529,-1.4008,-1.4088,-1.4168,-1.4315,-1.4522,-1.4603,-1.4596,-1.4529,-1.475,-1.4796,-1.475,-1.5013,-1.5299,-1.5611,-1.5765,-1.5832,-1.5832,-1.5832,-1.5832,-1.5832,-1.5832,-1.5832,-1.5832,-1.5832,-1.6088,-1.6531,-1.6724,-1.67,-1.6562,-1.6847,-1.5901,-1.4449,-1.3048,-1.1864,-1.0814,-0.9402,-0.9015,-0.8967,-0.9069,-0.9011,-0.8967,-0.9076,-0.9127,-0.9174,-0.9245,-0.954,-0.9713,-0.9568,-0.9585,-0.9581,-0.9503,-0.9449,-0.9106,-0.7995,-0.8007,-0.8216,-0.8903,-0.8883,-0.7321,-0.3523,-0.5709,-0.6948,-0.6522,-0.2354,-0.0,-0.0,-0.0,-0.0,-0.0,-0.2427,-0.4754,-0.7215,-0.9007,-0.8532,0.0,0.0,0.0,-1.4068,0.0,0.0,0.0,0.0,-1.4329,0.0,0.0,0.0,0.0,0.0,0.0,0.0,0.0,0.0,0.0,0.0,0.0,0.0,0.0,0.0,0.0,0.0,0.0,-0.9827,-0.9582,-0.9468,-0.939,-0.9468,-0.9943,-1.1057,-1.1218,-1.1945,-1.3566,-1.3572,-1.3801,-1.4088,-1.4369,-1.4509,-1.4529,-1.4823,-1.4796,-1.4522,-1.4529,-1.4376,-1.4162,-1.454,-1.4874,-1.505,-1.5611,-1.5832,-1.5832,-1.5832,-1.5832,-1.5832,-1.5832,-1.5832,-1.5832,-1.5832,-1.5838,-1.5899,-1.6303,-1.5581,-1.4724,-1.4977,-1.4272,-1.3048,-1.1538,-1.1105,-1.0785,-0.9272,-0.8944,-0.894,-0.8944,-0.8944,-0.894,-0.8944,-0.9059,-0.911,-0.8977,-0.9323,-0.9564,-0.9412,-0.9513,-0.951,-0.9235,-0.9327,-0.8247,-0.505,-0.4876,-0.6037,-0.8677,-0.8907,-0.6408,-0.0561,-0.0224,-0.0337,-0.0336,-0.0112,-0.0,-0.0,-0.0,-0.0,-0.0,-0.0119,-0.0236,-0.0472,-0.6836,-0.9691,0.0,0.0,-1.4088,-1.4088,0.0,0.0,0.0,0.0,0.0,0.0,0.0,0.0,0.0,0.0,0.0,0.0,0.0,0.0,0.0,0.0,0.0,0.0,0.0,0.0,0.0,0.0,0.0,-1.0276,-1.0338,-1.0008,-0.91,-0.9911,-1.0619,-1.1188,-1.1889,-1.2629,-1.3353,-1.3547,-1.3694,-1.3801,-1.4095,-1.4235,-1.4242,-1.4335,-1.4329,-1.4235,-1.4235,-1.4282,-1.4389,-1.4294,-1.4783,-1.5514,-1.5708,-1.5765,-1.5778,-1.5765,-1.5832,-1.5832,-1.5832,-1.5832,-1.5832,-1.5832,-1.5754,-1.5912,-1.6239,-1.5689,-1.4924,-1.5012,-1.3518,-1.1755,-1.1214,-1.026,-0.9457,-0.9023,-0.8862,-0.8815,-0.8916,-0.894,-0.894,-0.894,-0.8977,-0.8994,-0.8947,-0.9144,-0.9289,-0.9239,-0.9273,-0.9273,-0.9178,-0.7412,-0.5773,-0.4589,-0.2806,-0.3601,-0.8472,-0.528,-0.2129,-0.0112,-0.0,-0.0,-0.0,-0.0,-0.0,-0.0,-0.0,-0.0,-0.0,-0.0,-0.0,-0.0,-0.2287,-0.3283,-1.4088,-1.4088,0.0,-1.4088,-1.4088,0.0,-1.4088,0.0,0.0,0.0,0.0,0.0,0.0,0.0,0.0,0.0,0.0,0.0,0.0,-1.1957,0.0,0.0,0.0,0.0,0.0,0.0,-1.2241,-1.1298,-1.1273,-1.0941,0.0,0.0,-1.1403,-1.1587,-1.2283,-1.2732,-1.3039,-1.334,-1.354,-1.3566,-1.3948,-1.4088,-1.4088,-1.4088,-1.4088,-1.4088,-1.4088,-1.4195,-1.4376,-1.4182,-1.4535,-1.5239,-1.5237,-1.5404,-1.5756,-1.5826,-1.5832,-1.5832,-1.5832,-1.5832,-1.5832,-1.5832,-1.5843,-1.5789,-1.5512,-1.4795,-1.398,-1.3545,-1.1921,-1.0363,-1.0422,-0.9552,-0.8815,-0.8916,-0.8862,-0.8818,-0.8916,-0.894,-0.894,-0.894,-0.894,-0.8944,-0.895,-0.9028,-0.9089,-0.9089,-0.9133,-0.915,-0.9113,-0.7332,-0.5264,-0.3131,-0.1118,-0.1567,-0.5402,-0.2244,-0.0,-0.0,-0.0,-0.0,-0.0,-0.0,-0.125,-0.3743,-0.3335,-0.2079,-0.0,-0.0,-0.0,-0.0,-0.0,-0.0]},{"header":{"parameterUnit":"m.s-1","parameterCategory":1,"la1":30.6,"la2":29.2853,"lo1":-89.7004,"lo2":-87.6739,"dy":0.0162,"dx":0.0183,"nx":112,"ny":82,"refTime":"2023-08-05T06:00:00:Z","depth":0,"parameterNumber":3,"parameterNumberName":"V-component_of_WINDS"},"data":[0.0,0.0,0.0,0.0,0.0,0.0,0.0,0.0,0.0,0.0,0.0,0.0,0.0,0.0,0.0,0.0,0.0,0.0,0.0,0.0,0.0,0.0,0.0,0.0,0.0,0.0,0.0,0.0,0.0,0.0,0.0,0.0,0.0,0.0,0.0,0.0,0.0,0.0,0.0,0.0,0.0,0.0,0.0,0.0,0.0,0.0,0.0,0.0,0.0,0.0,0.0,0.0,0.0,0.0,0.0,0.0,0.0,0.0,0.0,0.0,0.0,0.0,0.0,0.0,0.0,0.0,0.0,0.0,0.0,0.0,0.0,0.0,0.0,0.0,0.0,0.0,0.0,0.0,0.0,0.0,0.0,0.0,0.0,0.0,0.0,0.0,0.0,0.0,0.0,0.0,-3.8227,-4.0228,-4.3811,-4.5767,-4.5028,-4.4679,-4.3149,-3.9988,0.0,0.0,0.0,0.0,0.0,0.0,0.0,0.0,0.0,0.0,0.0,0.0,0.0,0.0,0.0,0.0,0.0,0.0,0.0,0.0,0.0,0.0,0.0,0.0,0.0,0.0,0.0,0.0,0.0,0.0,0.0,0.0,0.0,0.0,0.0,0.0,0.0,0.0,0.0,0.0,0.0,0.0,0.0,0.0,0.0,0.0,0.0,0.0,0.0,0.0,0.0,0.0,0.0,0.0,0.0,0.0,0.0,0.0,0.0,0.0,0.0,0.0,0.0,0.0,0.0,0.0,0.0,0.0,0.0,0.0,0.0,0.0,0.0,0.0,0.0,0.0,0.0,0.0,0.0,0.0,0.0,0.0,0.0,0.0,0.0,0.0,0.0,0.0,0.0,0.0,0.0,0.0,0.0,0.0,0.0,0.0,0.0,0.0,0.0,0.0,0.0,0.0,0.0,0.0,-3.9425,-4.2541,-4.4714,-4.5879,-4.5753,-4.4418,-4.2729,-4.0745,0.0,0.0,0.0,0.0,0.0,0.0,0.0,0.0,0.0,0.0,0.0,0.0,0.0,0.0,0.0,0.0,0.0,0.0,0.0,0.0,0.0,0.0,0.0,0.0,0.0,0.0,0.0,0.0,0.0,0.0,0.0,0.0,0.0,0.0,0.0,0.0,0.0,0.0,0.0,0.0,0.0,0.0,0.0,0.0,0.0,0.0,0.0,0.0,0.0,0.0,0.0,0.0,0.0,0.0,0.0,0.0,0.0,0.0,0.0,0.0,0.0,0.0,0.0,0.0,0.0,0.0,0.0,0.0,0.0,0.0,0.0,0.0,0.0,0.0,0.0,0.0,0.0,0.0,0.0,0.0,0.0,0.0,0.0,0.0,0.0,0.0,0.0,0.0,0.0,0.0,0.0,0.0,0.0,0.0,0.0,0.0,0.0,0.0,0.0,0.0,0.0,0.0,0.0,-3.8866,-4.0351,-4.3742,-4.515,-4.5849,-4.5851,-4.4239,-4.2698,-4.1424,-3.9689,0.0,0.0,0.0,0.0,0.0,0.0,0.0,0.0,0.0,0.0,0.0,0.0,0.0,0.0,0.0,0.0,0.0,0.0,0.0,0.0,0.0,0.0,0.0,0.0,0.0,0.0,0.0,0.0,0.0,0.0,0.0,0.0,0.0,0.0,0.0,0.0,0.0,0.0,0.0,0.0,0.0,0.0,0.0,0.0,0.0,0.0,0.0,0.0,0.0,0.0,0.0,0.0,0.0,0.0,0.0,0.0,0.0,0.0,0.0,0.0,0.0,0.0,0.0,0.0,0.0,0.0,0.0,0.0,0.0,0.0,0.0,0.0,0.0,0.0,0.0,0.0,0.0,0.0,0.0,0.0,0.0,0.0,0.0,0.0,0.0,0.0,0.0,0.0,0.0,0.0,0.0,0.0,0.0,0.0,0.0,0.0,0.0,0.0,0.0,0.0,0.0,0.0,-4.0251,-4.1161,-4.4549,-4.5413,-4.5757,-4.5757,-4.3739,-4.22,-4.1546,-3.8931,0.0,0.0,0.0,0.0,0.0,0.0,0.0,0.0,0.0,0.0,0.0,0.0,0.0,0.0,0.0,0.0,0.0,0.0,0.0,0.0,0.0,0.0,0.0,0.0,0.0,0.0,0.0,0.0,0.0,0.0,0.0,0.0,0.0,0.0,0.0,0.0,0.0,0.0,0.0,0.0,0.0,0.0,0.0,0.0,0.0,0.0,0.0,0.0,0.0,0.0,0.0,0.0,0.0,0.0,0.0,0.0,0.0,0.0,0.0,0.0,0.0,0.0,0.0,0.0,0.0,0.0,0.0,0.0,0.0,0.0,0.0,0.0,0.0,0.0,0.0,0.0,0.0,0.0,0.0,0.0,0.0,0.0,0.0,0.0,0.0,0.0,0.0,0.0,0.0,0.0,0.0,0.0,0.0,0.0,0.0,0.0,0.0,0.0,0.0,0.0,0.0,0.0,-4.0649,-4.1879,-4.5182,-4.5566,-4.5605,-4.5605,-4.2566,-4.0662,-4.0585,-3.7507,0.0,0.0,0.0,0.0,0.0,0.0,0.0,0.0,0.0,0.0,0.0,0.0,0.0,0.0,0.0,0.0,0.0,0.0,0.0,0.0,0.0,0.0,0.0,0.0,0.0,0.0,0.0,0.0,0.0,0.0,0.0,0.0,0.0,0.0,0.0,0.0,0.0,0.0,0.0,0.0,0.0,0.0,0.0,0.0,0.0,0.0,0.0,0.0,0.0,0.0,0.0,0.0,0.0,0.0,0.0,0.0,0.0,0.0,0.0,0.0,0.0,0.0,0.0,0.0,0.0,0.0,0.0,0.0,0.0,0.0,0.0,0.0,0.0,0.0,0.0,0.0,0.0,0.0,0.0,0.0,0.0,0.0,0.0,0.0,0.0,0.0,0.0,0.0,0.0,0.0,0.0,0.0,0.0,0.0,0.0,0.0,0.0,0.0,0.0,0.0,0.0,0.0,-4.0261,-4.1662,0.0,-4.4778,-4.4778,-4.4778,-4.2143,-4.0719,-4.1277,0.0,0.0,0.0,0.0,0.0,0.0,0.0,0.0,0.0,0.0,0.0,0.0,0.0,0.0,0.0,0.0,0.0,0.0,0.0,0.0,0.0,0.0,0.0,0.0,0.0,0.0,0.0,0.0,0.0,0.0,0.0,0.0,0.0,0.0,0.0,0.0,0.0,0.0,0.0,0.0,0.0,0.0,0.0,0.0,0.0,0.0,0.0,0.0,0.0,0.0,0.0,0.0,0.0,0.0,0.0,0.0,0.0,0.0,0.0,0.0,0.0,0.0,0.0,0.0,0.0,0.0,0.0,0.0,0.0,0.0,0.0,0.0,0.0,0.0,0.0,0.0,0.0,0.0,0.0,0.0,0.0,0.0,0.0,0.0,0.0,0.0,0.0,0.0,0.0,0.0,0.0,0.0,0.0,0.0,0.0,0.0,0.0,0.0,0.0,0.0,0.0,0.0,-3.9335,-4.0162,-4.1566,0.0,-4.447,-4.4297,-4.4297,-4.1219,-3.9892,-4.1296,0.0,0.0,0.0,0.0,0.0,0.0,0.0,0.0,0.0,0.0,0.0,0.0,0.0,0.0,0.0,0.0,0.0,0.0,0.0,0.0,0.0,0.0,0.0,0.0,0.0,0.0,0.0,0.0,0.0,0.0,0.0,0.0,0.0,0.0,0.0,0.0,0.0,0.0,0.0,0.0,0.0,0.0,0.0,0.0,0.0,0.0,0.0,0.0,0.0,0.0,0.0,0.0,0.0,0.0,0.0,0.0,0.0,0.0,0.0,0.0,0.0,0.0,0.0,0.0,0.0,0.0,0.0,0.0,0.0,0.0,0.0,0.0,0.0,0.0,0.0,0.0,0.0,0.0,0.0,0.0,0.0,0.0,0.0,0.0,0.0,0.0,0.0,0.0,0.0,0.0,0.0,0.0,0.0,0.0,0.0,0.0,0.0,0.0,0.0,0.0,0.0,0.0,-4.0046,-4.0489,-4.1777,-4.5201,-4.4778,-4.4278,-4.4259,-3.9623,-3.7796,0.0,0.0,0.0,0.0,0.0,0.0,0.0,0.0,0.0,0.0,0.0,0.0,0.0,0.0,0.0,0.0,0.0,0.0,0.0,0.0,0.0,0.0,0.0,0.0,0.0,0.0,0.0,0.0,0.0,0.0,0.0,0.0,0.0,0.0,0.0,0.0,0.0,0.0,0.0,0.0,0.0,0.0,0.0,0.0,0.0,0.0,0.0,0.0,0.0,0.0,0.0,0.0,0.0,0.0,0.0,0.0,0.0,0.0,0.0,0.0,0.0,0.0,0.0,0.0,0.0,0.0,0.0,0.0,0.0,0.0,0.0,0.0,0.0,0.0,0.0,0.0,0.0,0.0,0.0,0.0,0.0,0.0,0.0,0.0,0.0,0.0,0.0,0.0,0.0,0.0,0.0,0.0,0.0,0.0,0.0,0.0,0.0,0.0,0.0,0.0,0.0,0.0,0.0,-3.9296,-3.9642,-4.0719,-4.3547,-4.3066,-4.2208,-4.1398,-3.8873,-3.7917,-3.9293,0.0,0.0,0.0,0.0,0.0,0.0,0.0,0.0,0.0,0.0,0.0,0.0,0.0,0.0,0.0,0.0,0.0,0.0,0.0,0.0,0.0,0.0,0.0,0.0,0.0,0.0,0.0,0.0,0.0,0.0,0.0,0.0,0.0,0.0,0.0,0.0,0.0,0.0,0.0,0.0,0.0,0.0,0.0,0.0,0.0,0.0,0.0,0.0,0.0,0.0,0.0,0.0,0.0,0.0,0.0,0.0,0.0,0.0,0.0,0.0,0.0,0.0,0.0,0.0,0.0,0.0,0.0,0.0,0.0,0.0,0.0,0.0,0.0,0.0,0.0,0.0,0.0,0.0,0.0,0.0,0.0,0.0,0.0,0.0,0.0,0.0,0.0,0.0,0.0,0.0,0.0,0.0,0.0,0.0,0.0,0.0,0.0,0.0,0.0,0.0,0.0,0.0,-3.8969,-3.9296,-4.0277,-4.2835,-4.2316,-4.1464,-4.0654,-3.8422,-3.7546,-3.8631,0.0,0.0,0.0,0.0,0.0,0.0,0.0,0.0,0.0,0.0,0.0,0.0,0.0,0.0,0.0,0.0,0.0,0.0,0.0,0.0,0.0,0.0,0.0,0.0,0.0,0.0,0.0,0.0,0.0,0.0,0.0,0.0,0.0,0.0,0.0,0.0,0.0,0.0,0.0,0.0,0.0,0.0,0.0,0.0,0.0,0.0,0.0,0.0,0.0,0.0,0.0,0.0,0.0,0.0,0.0,0.0,0.0,0.0,0.0,0.0,0.0,0.0,0.0,0.0,0.0,0.0,0.0,0.0,0.0,0.0,0.0,0.0,0.0,0.0,0.0,0.0,0.0,0.0,0.0,0.0,0.0,0.0,0.0,0.0,0.0,0.0,0.0,0.0,0.0,0.0,0.0,0.0,0.0,0.0,0.0,0.0,0.0,0.0,0.0,0.0,0.0,0.0,-3.8969,-3.9219,-4.0162,-4.2701,-4.2184,-4.1487,-4.1073,-3.8156,-3.6882,-3.8165,0.0,0.0,0.0,0.0,0.0,0.0,0.0,0.0,0.0,0.0,0.0,0.0,0.0,0.0,0.0,0.0,0.0,0.0,0.0,0.0,0.0,0.0,0.0,0.0,0.0,0.0,0.0,0.0,0.0,0.0,0.0,0.0,0.0,0.0,0.0,0.0,0.0,0.0,0.0,0.0,0.0,0.0,0.0,0.0,0.0,0.0,0.0,0.0,0.0,0.0,0.0,0.0,0.0,0.0,0.0,0.0,0.0,0.0,0.0,0.0,-3.7539,0.0,0.0,0.0,0.0,0.0,0.0,0.0,0.0,0.0,0.0,0.0,0.0,0.0,0.0,0.0,0.0,0.0,0.0,0.0,0.0,0.0,0.0,0.0,0.0,0.0,0.0,0.0,0.0,0.0,0.0,0.0,0.0,0.0,0.0,0.0,0.0,0.0,0.0,0.0,0.0,0.0,-3.8969,-3.87,-3.9258,-4.1816,-4.1126,-4.0062,-3.9091,-3.7548,-3.6742,-3.7025,-3.5974,0.0,0.0,0.0,0.0,0.0,0.0,0.0,0.0,0.0,0.0,0.0,0.0,0.0,0.0,0.0,0.0,0.0,0.0,0.0,0.0,0.0,0.0,0.0,0.0,0.0,0.0,0.0,0.0,0.0,0.0,0.0,0.0,0.0,0.0,0.0,0.0,0.0,0.0,0.0,0.0,0.0,0.0,0.0,0.0,0.0,0.0,0.0,0.0,0.0,0.0,0.0,0.0,0.0,0.0,0.0,0.0,0.0,0.0,0.0,0.0,-3.8555,0.0,0.0,0.0,0.0,0.0,0.0,0.0,0.0,0.0,0.0,0.0,0.0,0.0,0.0,0.0,0.0,0.0,0.0,0.0,0.0,0.0,0.0,0.0,0.0,0.0,0.0,0.0,0.0,0.0,0.0,0.0,0.0,0.0,0.0,0.0,0.0,0.0,0.0,0.0,0.0,-3.8969,-3.8546,-3.8815,-4.095,-4.0537,-3.9811,-3.9041,-3.759,-3.6645,-3.6517,-3.571,0.0,0.0,0.0,0.0,0.0,0.0,0.0,0.0,0.0,0.0,0.0,0.0,0.0,0.0,0.0,0.0,0.0,0.0,0.0,0.0,0.0,0.0,0.0,0.0,0.0,0.0,0.0,0.0,0.0,0.0,0.0,0.0,0.0,0.0,0.0,0.0,0.0,0.0,0.0,0.0,0.0,0.0,0.0,0.0,0.0,0.0,0.0,0.0,0.0,0.0,0.0,0.0,0.0,-4.4413,-4.5054,-4.5602,-4.5804,-4.5582,-4.4891,-4.2623,-4.1238,-4.0525,0.0,0.0,0.0,0.0,0.0,0.0,0.0,0.0,0.0,0.0,0.0,0.0,0.0,0.0,0.0,0.0,0.0,0.0,0.0,0.0,0.0,0.0,0.0,0.0,0.0,-4.1019,-4.0495,0.0,0.0,0.0,0.0,0.0,0.0,0.0,0.0,0.0,0.0,0.0,0.0,-3.8796,-3.8584,-3.8815,-4.0335,-4.025,-3.9925,-3.9501,-3.7896,-3.6705,-3.6177,-3.556,-3.5339,0.0,0.0,0.0,0.0,0.0,0.0,0.0,0.0,0.0,0.0,0.0,0.0,0.0,0.0,0.0,0.0,0.0,0.0,0.0,0.0,0.0,0.0,0.0,0.0,0.0,0.0,0.0,0.0,0.0,0.0,0.0,0.0,-3.687,-3.7747,0.0,0.0,0.0,0.0,0.0,0.0,0.0,0.0,0.0,0.0,0.0,0.0,0.0,-4.2092,-4.2878,-4.4738,-4.5365,-4.4822,-4.7885,-4.8994,-4.8409,-4.9179,-4.9763,-5.0143,-4.9047,0.0,-4.3052,-4.2179,0.0,0.0,0.0,0.0,0.0,0.0,0.0,0.0,0.0,0.0,0.0,0.0,0.0,0.0,0.0,0.0,0.0,0.0,0.0,0.0,0.0,0.0,-4.1459,-4.169,-4.0902,-4.0348,0.0,-4.1338,-4.0673,-3.8937,-3.8463,0.0,0.0,0.0,0.0,0.0,0.0,0.0,-3.8123,-3.8719,-3.9469,-4.0392,-4.025,-3.9776,-3.8975,-3.8179,-3.7143,-3.569,-3.5932,-3.615,-3.6186,-3.7232,0.0,0.0,0.0,0.0,0.0,0.0,0.0,0.0,0.0,0.0,0.0,0.0,0.0,0.0,0.0,0.0,0.0,0.0,0.0,0.0,0.0,0.0,0.0,0.0,0.0,0.0,0.0,0.0,0.0,-3.6983,-3.8369,-3.8258,-3.9174,-3.9312,0.0,0.0,0.0,0.0,0.0,0.0,0.0,0.0,0.0,-4.4392,-4.5435,-4.6156,-4.6579,-4.8262,-4.9185,-4.9336,-5.0797,-5.154,-5.1668,-5.1963,-5.2261,-5.2524,-5.2069,-5.0546,-4.824,-4.6441,-4.5059,-4.4092,0.0,0.0,0.0,0.0,-4.5539,-4.5602,-4.6003,-4.5565,0.0,-4.5049,0.0,0.0,0.0,0.0,0.0,0.0,0.0,0.0,0.0,0.0,-4.2929,-4.2929,-4.2745,-4.272,-4.3254,-4.3014,-4.2256,0.0,-4.0658,-4.0758,-4.0354,0.0,0.0,0.0,0.0,-3.9065,-4.0008,-4.0046,-4.0296,-4.1143,-4.0556,-3.9948,-3.9547,-3.8704,-3.7877,-3.7162,-3.6926,-3.6935,-3.7169,-3.7827,-3.8439,0.0,0.0,0.0,0.0,0.0,0.0,0.0,0.0,0.0,0.0,0.0,0.0,0.0,0.0,0.0,0.0,0.0,0.0,0.0,0.0,0.0,0.0,0.0,0.0,0.0,0.0,0.0,0.0,-3.8414,-3.9715,-3.9071,-4.0789,-4.1308,0.0,0.0,0.0,0.0,0.0,0.0,-4.4451,-4.5429,-4.6522,-4.7815,-4.9173,-5.0098,-5.0527,-5.1777,-5.2715,-5.3379,-5.365,-5.3906,-5.4163,-5.4668,-5.4763,-5.4536,-5.4651,-5.4203,-5.3126,-5.024,-4.7912,-4.6198,-4.6627,-4.655,-4.632,-4.7626,-4.8106,-4.8164,-4.8721,-4.8337,-4.753,-4.7067,0.0,-4.5124,-4.4316,0.0,0.0,0.0,0.0,-4.3797,-4.4008,-4.4173,-4.4324,-4.4553,-4.4661,-4.4732,-4.4849,-4.4471,-4.3708,0.0,-4.2401,-4.2777,-4.2777,0.0,0.0,0.0,0.0,-4.0642,-4.1681,-4.1431,-4.1412,-4.2066,-4.1375,-4.0768,-4.0539,-3.9696,-3.8972,-3.855,-3.8079,-3.7863,-3.8013,-3.8478,-3.8999,-3.958,0.0,0.0,0.0,0.0,0.0,0.0,0.0,0.0,0.0,0.0,0.0,0.0,0.0,0.0,0.0,0.0,0.0,0.0,0.0,0.0,0.0,0.0,0.0,0.0,0.0,0.0,0.0,0.0,0.0,-4.0872,-4.3188,0.0,0.0,0.0,0.0,-4.2207,-4.3808,-4.5546,-4.7304,-4.8222,-4.9823,-5.2303,-5.2461,-5.3301,-5.4961,-5.5058,-5.5137,-5.5195,-5.6653,-5.6521,-5.5105,-5.7398,-5.7921,-5.7074,-5.7896,-5.7662,-5.6434,-5.2279,-5.051,-5.0317,-4.9529,-4.9702,-5.0394,-5.0491,-5.051,-5.0529,-5.0567,-5.001,-4.9413,-5.0183,-4.9279,-4.7759,-4.6951,-4.6124,0.0,0.0,-4.547,-4.5663,-4.649,-4.6124,-4.5722,-4.6549,-4.5897,-4.5161,-4.5495,-4.5284,-4.4524,0.0,-4.2142,-4.1873,-4.1873,0.0,-4.17,-4.1797,-4.2431,-4.2643,-4.1912,-4.2489,-4.2989,-4.3028,-4.2972,-4.2607,-4.178,-4.136,-4.05,-3.8975,-3.9257,-3.9161,-3.8421,-3.9123,-3.9551,-3.9599,-3.9922,0.0,0.0,0.0,0.0,0.0,0.0,0.0,0.0,0.0,0.0,0.0,0.0,0.0,0.0,0.0,0.0,0.0,0.0,0.0,0.0,0.0,0.0,0.0,0.0,0.0,0.0,0.0,0.0,-4.4989,-4.6946,0.0,-4.5507,-4.6094,-4.6816,-4.7383,-4.8984,-5.0957,-5.3262,-5.4219,-5.5371,-5.6836,-5.6875,-5.7187,-5.7793,-5.7812,-5.7812,-5.7812,-5.8148,-5.7987,-5.7447,-5.8123,-5.8242,-5.7934,-5.8242,-5.8184,-5.7723,-5.6203,-5.4626,-5.3164,-5.3376,-5.3318,-5.3203,-5.3722,-5.426,-5.4587,-5.351,-5.2933,-5.2452,-5.1125,-5.0279,-4.9721,-4.9433,-4.9125,-4.8875,-4.8875,-4.8471,-4.8125,-4.8432,-4.7855,-4.7298,-4.7701,-4.7472,-4.7204,-4.7298,-4.6838,-4.6167,-4.5477,-4.4303,-4.3585,-4.4143,-4.3355,-4.2816,-4.3335,-4.3662,-4.3758,-4.3451,-4.3682,-4.3874,-4.3874,-4.3412,-4.297,-4.2662,-4.2019,-4.1372,-4.0795,-4.0396,-3.9984,-3.9526,-3.9774,-3.9926,-3.9922,-4.0022,-4.0139,0.0,0.0,0.0,0.0,0.0,0.0,0.0,0.0,0.0,0.0,0.0,0.0,0.0,0.0,0.0,0.0,0.0,0.0,0.0,0.0,0.0,0.0,0.0,0.0,0.0,0.0,-4.7057,-4.8205,-5.037,-5.1139,-4.9471,-5.0371,-5.1308,-5.1875,-5.3496,-5.5215,-5.6953,-5.7871,-5.8594,-5.918,-5.9199,-5.9336,-5.9609,-5.9609,-5.9578,-5.9537,-5.9551,-5.9242,-5.8639,-5.8989,-5.8973,-5.8723,-5.9031,-5.9146,-5.9146,-5.9146,-5.8146,-5.6626,-5.6588,-5.6242,-5.5857,-5.6376,-5.6761,-5.6799,-5.5434,-5.478,-5.4299,-5.2645,-5.1914,-5.1664,-5.1664,-5.1664,-5.1664,-5.1664,-5.126,-5.0741,-5.0452,-4.9759,-4.9048,-4.8855,-4.8574,-4.8377,-4.8314,-4.7885,-4.7373,-4.699,-4.574,-4.4913,-4.549,-4.4682,-4.4124,-4.4662,-4.4739,-4.4739,-4.4739,-4.4739,-4.4739,-4.4739,-4.4259,-4.3816,-4.3528,-4.297,-4.2409,-4.1848,-4.1254,-4.0732,-4.0253,-4.0233,-4.0195,-4.0101,-4.0002,-4.0253,-4.0931,0.0,0.0,0.0,0.0,0.0,0.0,0.0,0.0,0.0,0.0,0.0,0.0,0.0,0.0,0.0,0.0,0.0,0.0,0.0,0.0,0.0,0.0,0.0,-4.5195,-4.8144,-5.0351,-5.043,-5.3398,-5.4765,-5.3066,-5.4433,-5.543,-5.5469,-5.7012,-5.7988,-5.8027,-5.8848,-5.9316,-5.9277,-5.9296,-5.9667,-6.0428,-6.0429,-6.0356,-6.0246,-6.0942,-6.0344,-5.8623,-6.0127,-6.0339,-5.9588,-6.0435,-6.08,-6.08,-6.08,-6.08,-6.0627,-5.9011,-5.8377,-5.8377,-5.8377,-5.7819,-5.6934,-5.6222,-5.5436,-5.4764,-5.4897,-5.4377,-5.3686,-5.3686,-5.3686,-5.3686,-5.3686,-5.3666,-5.3455,-5.2608,-5.178,-5.0952,-5.0067,-4.9238,-4.8574,-4.8417,-4.8369,-4.8068,-4.7163,-4.6278,-4.5663,-4.5605,-4.5586,-4.5586,-4.5586,-4.5586,0.0,-4.5586,-4.5586,-4.5586,-4.5586,-4.5586,-4.524,-4.4374,-4.4275,-4.3564,-4.1912,-4.1771,-4.1386,-4.0543,-4.0489,-4.0392,-4.0139,-3.9797,-4.0342,-4.1816,0.0,0.0,0.0,0.0,0.0,0.0,0.0,0.0,0.0,0.0,0.0,0.0,0.0,0.0,0.0,0.0,0.0,0.0,0.0,0.0,0.0,0.0,-4.9648,-4.9648,-5.1543,-5.3652,-5.5566,-5.7168,-5.7949,-5.7461,-5.7851,-5.8379,-5.8945,-5.9433,-5.998,-6.0625,-6.1484,-6.168,-6.1035,-6.1526,-6.161,-6.1206,-6.1106,-6.1031,-6.1007,-6.1059,-6.0803,-6.0319,-6.0646,-6.0666,-6.0454,-6.0704,-6.08,-6.08,-6.08,-6.0858,-6.0877,-6.0319,-6.0165,-6.0262,-6.0262,-5.9396,-5.8184,-5.7992,-5.6983,-5.5786,-5.5824,-5.5669,-5.5488,-5.5488,-5.5488,-5.5488,-5.5488,-5.5029,-5.4485,-5.4252,-5.348,-5.2569,-5.1799,-5.1366,-5.0946,-5.0323,-4.9699,-4.9144,-4.8779,-4.8085,-4.7142,-4.5834,-4.5586,-4.5586,-4.5586,-4.5586,0.0,-4.5586,-4.5586,-4.5586,-4.5586,-4.5586,-4.524,-4.4374,-4.3758,-4.2951,-4.1873,-4.1216,-4.0754,-4.0508,-4.06,-4.0627,-4.06,-4.053,-4.0987,0.0,0.0,0.0,0.0,0.0,0.0,0.0,0.0,0.0,0.0,0.0,0.0,0.0,0.0,0.0,0.0,0.0,0.0,0.0,0.0,0.0,0.0,-5.1562,-5.3828,-5.4551,-5.5547,-5.6875,-5.873,-5.9726,-6.0254,-6.0254,-6.0254,-6.0586,-6.1426,-6.1484,-6.1875,-6.2734,-6.3262,-6.3301,-6.2812,-6.3193,-6.3158,-6.2589,-6.251,-6.2407,-6.2252,-6.1767,-6.1512,-6.1435,-6.0993,-6.0819,0.0,-6.0877,-6.0916,-6.0993,-6.0993,-6.105,0.0,0.0,0.0,0.0,0.0,-5.9706,-5.9108,-5.8079,-5.7352,-5.6781,-5.648,-5.6374,-5.6374,-5.6374,-5.6374,-5.6374,-5.6374,-5.6004,-5.5535,-5.5159,-5.4591,-5.3913,-5.3128,-5.2547,-5.2034,-5.153,-5.0741,-5.001,-4.9567,-4.9086,0.0,-4.6966,-4.6728,-4.6623,-4.6277,-4.618,-4.6009,-4.5643,-4.5586,-4.5586,-4.5586,-4.5586,-4.524,-4.4372,-4.3871,0.0,0.0,0.0,-4.0908,-4.06,-4.0687,0.0,0.0,0.0,-4.195,-4.3194,0.0,0.0,0.0,-4.3601,-4.3288,0.0,0.0,0.0,0.0,0.0,0.0,0.0,0.0,0.0,0.0,0.0,0.0,0.0,0.0,0.0,0.0,-5.539,-5.7676,-5.9512,-5.9785,-6.0,-6.0625,-6.1387,-6.1894,-6.1973,-6.1992,-6.2305,-6.3086,-6.3144,-6.3535,-6.4394,0.0,0.0,0.0,0.0,-6.4591,-6.4354,-6.4262,-6.4045,-6.368,-6.2858,-6.232,-6.2089,-6.1339,-6.0993,-6.1035,-6.1046,-6.1145,-6.1299,-6.1299,-6.1293,-6.1304,-6.1131,-6.117,-6.1142,-5.9593,-5.9474,-5.9733,-5.7478,0.0,0.0,-5.6962,-5.668,-5.6621,-5.6719,-5.668,-5.6601,-5.6601,-5.6601,-5.6426,-5.5644,-5.5337,-5.4996,-5.4143,-5.3222,-5.2492,-5.226,-5.1587,-5.0779,-5.001,-4.9701,-4.9348,-4.8715,-4.8411,-4.8007,-4.7199,-4.6989,-4.6586,-4.5701,-4.5586,-4.5586,-4.5586,0.0,0.0,-4.4372,-4.4295,-4.358,-4.1921,-4.1709,-4.1401,-4.0872,-4.0907,-4.1322,-4.2123,-4.222,-4.3084,-4.4727,-4.4732,-4.5157,-4.5918,-4.4404,-4.3703,0.0,0.0,0.0,0.0,0.0,0.0,0.0,0.0,0.0,0.0,0.0,0.0,0.0,0.0,0.0,-5.6328,-5.8457,-6.0527,-6.2969,-6.3301,-6.3105,-6.2558,-6.2656,-6.3027,-6.373,-6.3808,-6.3867,-6.4043,-6.4043,-6.4433,-6.5293,-6.6015,-6.6406,-6.6406,-6.6914,-6.6795,-6.5973,-6.5151,-6.4628,-6.4397,0.0,0.0,-6.2262,-6.2247,-6.1886,-6.1251,-6.1242,-6.1264,-6.1303,-6.1303,-6.1365,-6.1458,-6.142,-6.1439,-6.1439,-6.119,-6.0772,-6.0164,-5.9058,-5.8308,-5.7848,-5.7694,-5.7168,-5.6738,-5.7441,-5.7168,0.0,-5.6601,-5.6601,-5.6562,-5.6387,-5.6173,-5.5777,-5.4881,-5.4376,-5.3857,-5.3145,-5.2318,-5.1664,-5.1491,-5.0999,-5.0569,-5.0408,-4.9142,-4.7855,-4.7048,-4.6913,-4.6586,-4.5701,-4.5586,-4.5586,-4.5586,-4.5586,-4.5257,-4.4372,-4.4297,-4.3585,-4.1921,-4.1155,-4.1092,-4.1801,-4.1835,-4.2006,-4.2337,-4.3022,-4.3901,-4.4936,-4.4941,-4.5371,-4.621,-4.5776,-4.5577,0.0,0.0,0.0,0.0,0.0,0.0,0.0,0.0,0.0,0.0,0.0,-5.1719,0.0,0.0,-5.7558,-6.0605,-6.2168,-6.3613,-6.5351,-6.5605,-6.5273,-6.4394,-6.4297,-6.4648,-6.5527,-6.5605,-6.5781,-6.6211,-6.625,-6.6621,-6.7461,-6.7949,-6.8183,-6.8144,-6.8515,-6.841,-6.7819,-6.6864,-6.6314,-6.6134,-6.4941,-6.3888,-6.3031,-6.2738,-6.2162,-6.1405,-6.1408,-6.1441,-6.1491,-6.1502,-6.1544,-6.1604,-6.1604,-6.16,-6.1567,-6.1196,-6.1055,-6.0879,-5.9629,-5.918,-5.9082,-5.8672,-5.7969,-5.7321,-5.768,-5.7195,-5.6504,-5.6495,-5.6504,-5.6523,-5.6582,-5.6451,-5.6188,-5.575,-5.5164,-5.4547,-5.4047,-5.3259,-5.2664,-5.2665,-5.197,-5.1426,-5.1491,-5.0317,-4.9144,-4.8355,-4.8182,-4.7682,-4.6413,-4.6278,-4.6144,-4.5757,-4.5738,-4.5584,-4.5141,-4.4664,-4.3857,-4.2582,-4.2159,-4.2193,-4.2722,-4.2857,-4.3147,-4.3691,-4.4121,-4.4785,-4.5644,-4.5648,-4.5859,-4.6303,-4.6227,-4.6191,0.0,0.0,0.0,0.0,0.0,0.0,0.0,0.0,-4.9883,-5.0918,-5.3594,-5.6172,-5.7578,-5.9805,-6.2207,-6.4668,-6.5644,-6.6406,-6.7265,-6.7383,-6.7187,-6.664,-6.6308,-6.6445,-6.7324,-6.7383,-6.7676,-6.8379,-6.8457,-6.8808,-6.9609,-6.9707,-6.9785,-6.9902,-6.9961,-6.9883,-6.9687,-6.8671,-6.8091,-6.7907,-6.6222,-6.4919,-6.4066,-6.3289,-6.2517,-6.1776,-6.1601,-6.16,-6.1698,-6.17,-6.1698,-6.1712,-6.1696,-6.1699,-6.1601,-6.0918,-6.1094,-6.1484,-5.9961,-5.9863,-6.0293,-5.9648,-5.8723,-5.7896,-5.8121,-5.7343,-5.6406,-5.6581,-5.6515,-5.6426,-5.6562,-5.6504,-5.639,-5.6403,-5.5767,-5.5114,-5.5017,-5.4303,-5.3683,-5.3665,-5.2856,-5.2222,-5.2299,-5.1548,-5.0606,-4.9702,-4.9471,-4.8798,-4.7124,-4.6971,-4.6682,-4.5892,-4.5863,-4.5893,-4.5893,-4.5066,-4.4302,-4.3756,-4.3508,-4.3484,-4.3651,-4.3849,-4.4267,-4.498,-4.5176,-4.5605,-4.6308,-4.6308,-4.6308,-4.6308,-4.6308,-4.6308,-4.8359,-4.7246,-4.7715,-5.125,-5.1074,-5.1582,0.0,0.0,-5.7207,-5.8789,-6.0644,-6.2051,-6.2246,-6.3789,-6.5625,-6.7461,-6.7851,-6.8183,-6.9004,-6.9121,-6.9375,-7.0058,-6.8828,-6.8242,-6.9121,-6.916,-6.916,-6.9258,-6.9316,-6.9707,-7.0508,-7.0566,-7.0918,-7.168,-7.1719,-7.1621,-7.1426,-6.9857,-6.8963,-6.8754,-6.7183,-6.5986,-6.5114,-6.4419,-6.3647,-6.2781,-6.2019,-6.1694,-6.1699,-6.1694,-6.1707,-6.1709,-6.1698,-6.1699,-6.1699,-6.1582,-6.1621,-6.1562,-6.0605,-6.0312,-6.039,-6.0293,-5.9103,-5.8008,-5.946,-5.8184,-5.64,-5.7217,-5.6953,-5.6426,-5.6562,-5.6504,-5.6406,-5.64,-5.6211,-5.6049,-5.6049,-5.5335,-5.4701,-5.4586,-5.3836,-5.3182,-5.3087,-5.2356,-5.1241,-4.9663,-4.9413,-4.8798,-4.7124,-4.6971,-4.6682,-4.5892,-4.5861,-4.5901,-4.5901,-4.5158,-4.4943,-4.5558,-4.4218,-4.3758,-4.4605,-4.4727,-4.4832,-4.5,-4.5762,-4.6191,-4.6308,-4.6308,-4.6308,-4.6308,-4.6308,-4.6308,-5.0371,-5.0293,0.0,0.0,-5.332,-5.5293,-5.7656,-5.8789,-5.9844,-6.1562,-6.3691,-6.5566,-6.6543,-6.7324,-6.8379,0.0,-6.998,-6.9941,-7.0781,-7.0488,-7.0117,-7.0019,-6.9355,-6.9433,-7.082,-7.0937,-7.0918,-7.0918,-7.0937,-7.1094,-7.1445,-7.1465,-7.1387,-7.125,-7.123,-7.0957,-7.0371,-6.9199,-6.8588,-6.8482,-6.7335,-6.6331,-6.5455,-6.4649,-6.3555,-6.2226,-6.1855,-6.1699,-6.1699,-6.1699,-6.1699,-6.1699,-6.1699,-6.1699,-6.1699,-6.1699,-6.1699,-6.164,-6.1289,-6.1152,-6.1152,-6.1152,-6.0304,-5.9279,-5.9302,-5.8187,-5.6876,-5.6802,-5.6548,-5.6333,-5.6541,-5.6562,-5.6523,-5.6523,-5.6473,-5.6406,-5.6328,-5.6023,-5.5726,-5.5608,-5.4862,-5.422,-5.4105,-5.2933,-5.1779,-5.1087,-5.051,-4.9721,-4.8509,-4.8528,-4.8172,-4.6984,-4.6874,-4.669,-4.6179,-4.5758,-4.5653,-4.6001,-4.5363,-4.5161,-4.5528,-4.5647,-4.5738,-4.5762,-4.6113,-4.6308,-4.6308,-4.6308,-4.6308,-4.6308,-4.6308,-4.6308,-5.1289,0.0,0.0,-5.2851,-5.5566,-5.834,-5.8652,-6.0527,-6.2617,-6.4121,-6.6308,-6.832,-6.9531,-6.9961,-7.0527,-7.1797,-7.1465,-7.1191,-7.1582,-7.0898,-7.0039,-6.9238,-6.8887,-6.9219,-7.0469,-7.1035,-7.1504,-7.1972,-7.1777,-7.1758,-7.1992,-7.1777,-7.1347,-7.0722,-7.0469,-7.0058,-6.9433,-6.8613,-6.8203,-6.8183,-6.7324,-6.6562,-6.5918,-6.4805,-6.3359,-6.1699,-6.1699,-6.1699,-6.1699,-6.1699,-6.1699,-6.1699,-6.1699,-6.1699,-6.1699,-6.1699,-6.1699,-6.1699,-6.1699,-6.1699,-6.1699,-6.1699,-6.1094,-6.0225,-5.9614,-5.8604,-5.7646,-5.7283,-5.7013,-5.6825,-5.6816,-5.6819,-5.6761,-5.6546,-5.652,-5.6523,-5.6426,-5.6426,-5.6421,-5.6283,-5.5746,-5.5252,-5.5056,-5.3802,-5.2741,-5.2491,-5.1683,-5.0683,-4.9606,-4.9461,-4.8965,-4.7731,-4.7598,-4.7246,-4.6367,-4.6211,-4.6148,-4.6104,-4.6134,-4.6145,-4.6106,-4.6225,-4.6308,-4.6308,-4.6308,-4.6308,-4.6308,-4.6308,-4.6308,-4.6308,-4.6308,-4.6308,0.0,0.0,-5.1308,-5.543,-5.7812,-6.0019,-6.332,-6.543,-6.6953,-6.7851,-6.9394,-7.0605,-7.0644,-7.1347,-7.1933,-7.1992,-7.1972,-7.168,-7.0859,-6.998,-6.914,-6.834,-6.748,-6.6992,0.0,-6.8574,-7.0254,-7.1875,-7.1211,-7.1113,-7.1953,-7.1191,-7.0722,-7.0703,-6.9883,-6.9453,-6.9492,-6.8633,-6.8203,-6.8183,-6.7324,-6.6894,-6.6797,-6.5078,-6.3359,-6.1699,-6.1699,-6.1699,-6.1699,-6.1699,-6.1699,-6.1699,-6.1699,-6.1699,-6.1699,-6.1699,-6.1699,-6.1699,-6.1699,-6.1699,-6.1699,-6.1699,-6.1015,-6.0328,-6.1013,-5.9927,-5.8611,-5.938,-5.9031,-5.8284,-5.7573,-5.738,-5.7186,-5.6397,-5.6319,-5.6406,-5.6406,-5.6504,-5.6543,-5.6426,-5.6367,-5.6243,-5.5909,-5.517,-5.4336,-5.349,-5.2626,-5.1471,-4.9817,-4.8974,-4.8301,-4.7675,-4.7598,-4.7246,-4.6367,-4.6308,-4.6236,-4.6108,-4.6229,-4.6249,-4.6113,-4.623,-4.6308,-4.6308,-4.6308,-4.6308,-4.6308,-4.6308,-4.6308,-4.6308,-4.6308,-4.6308,0.0,0.0,-5.5078,-5.7676,-6.0039,-6.2324,-6.4648,-6.6504,-6.7851,-6.8144,-6.8183,-6.8359,-6.8926,-6.834,-6.8125,-6.9297,-6.9472,-6.9375,-6.9082,-6.8789,-6.7851,-6.5859,-6.5859,0.0,0.0,0.0,0.0,-6.9394,-6.9707,-7.0215,-7.1094,-7.0859,-7.043,-6.9863,-6.9043,-6.834,-6.7773,-6.748,-6.7344,-6.7324,-6.6445,-6.5723,-6.5137,-6.3965,-6.3125,-6.2539,-6.1953,-6.2031,-6.2519,-6.1933,-6.1699,-6.1699,-6.1699,-6.1699,-6.1699,-6.1699,-6.1699,-6.1699,-6.1699,-6.1699,-6.1699,-6.1699,-6.1465,-6.111,-6.0594,-6.0007,-5.9415,-5.9031,-5.8715,-5.8317,-5.7583,-5.7407,-5.7193,-5.6383,-5.664,-5.6931,-5.6495,-5.6855,-5.7129,-5.6621,-5.6536,-5.6441,-5.615,-5.5395,-5.4278,-5.2644,-5.1856,-5.126,-5.0721,-5.0426,-5.0045,-4.9391,-4.8808,-4.8105,-4.7246,-4.6546,-4.6145,-4.6102,-4.606,-4.6041,-4.6094,-4.6133,-4.6211,-4.6308,-4.6308,-4.6308,-4.6308,-4.6308,-4.6308,-4.6308,-4.6205,-4.6166,-5.1914,-5.4941,-5.8086,-6.0449,-6.248,-6.4297,-6.5742,-6.7168,-6.8105,-6.7793,-6.7031,-6.6504,-6.6758,-6.5137,-6.4219,-6.5644,-6.5879,-6.6094,-6.6719,-6.6543,-6.5957,-6.4883,-6.4707,-6.457,0.0,0.0,0.0,-6.8066,-6.8398,-6.9004,-7.0176,-6.9961,-6.9551,-6.8984,-6.8164,-6.7461,-6.6914,-6.6894,-6.6894,-6.6894,-6.6015,-6.5137,-6.4277,-6.3711,-6.3125,-6.2519,-6.2265,-6.2305,-6.248,-6.1933,-6.1699,-6.1699,-6.1699,-6.1699,-6.1699,-6.1699,-6.1699,-6.1699,-6.1699,-6.1699,-6.1699,-6.1699,-6.1699,-6.1542,-6.0776,-6.0487,-6.0319,-5.9608,-5.9377,-5.9146,-5.8354,-5.7934,-5.7495,-5.6686,-5.6684,-5.6831,-5.6709,-5.6946,-5.7102,-5.6926,-5.668,-5.6442,-5.6132,-5.5382,-5.4393,-5.3086,-5.2376,-5.178,-5.1164,-5.1087,-5.0819,-5.0124,-4.9269,-4.8395,-4.7536,-4.6571,-4.6017,-4.6005,-4.593,-4.5935,-4.5995,-4.6063,-4.6133,-4.623,-4.6289,-4.6308,-4.6308,-4.6249,-4.6222,-4.6235,-4.6084,-4.604,-5.5605,-5.8066,-6.0254,-6.3535,-6.498,-6.582,-6.664,-6.7461,-6.7773,-6.6777,-6.584,-6.4902,0.0,0.0,-6.0449,-6.1367,-6.1601,-6.2285,-6.3984,-6.3594,-6.3711,0.0,0.0,0.0,0.0,0.0,0.0,-6.7812,0.0,-6.7578,-6.9258,-6.8613,-6.8203,-6.8203,-6.7344,-6.6894,-6.6894,-6.6894,-6.6894,-6.6894,-6.5976,-6.5098,-6.4297,-6.4258,-6.332,-6.1816,-6.2637,-6.2539,-6.1758,-6.1719,-6.1699,-6.1699,-6.1699,-6.1699,-6.1699,-6.1699,-6.1699,-6.1699,-6.1699,-6.1699,-6.1699,-6.1699,-6.1699,-6.168,-6.1523,-6.1401,-6.1251,-6.1054,-6.0896,-6.0589,-5.9685,-5.8877,-5.8069,-5.7146,-5.6453,-5.6222,-5.6967,-5.6798,-5.6686,-5.7281,-5.6875,-5.634,-5.5974,-5.5261,-5.4739,-5.4701,-5.409,-5.2993,-5.1203,-5.0972,-5.0683,-4.9952,-4.9091,-4.8214,-4.7329,-4.6474,-4.5902,-4.5813,-4.5853,-4.5853,-4.5796,-4.5988,-4.6093,-4.6094,-4.6211,-4.6289,-4.6287,-4.615,-4.6103,-4.6102,-4.5949,-4.5956,-5.789,-6.0723,-6.3359,-6.4883,-6.5449,-6.5664,-6.5879,-6.6094,-6.5469,-6.2637,-6.0898,-5.9199,0.0,0.0,0.0,-5.8613,-6.0469,0.0,-6.3183,-6.4258,0.0,-6.3769,0.0,-6.4765,-6.4336,-6.4101,0.0,0.0,-6.6055,-6.668,-6.8418,-6.8301,-6.8203,-6.8203,-6.7344,-6.6894,-6.6894,-6.6894,-6.6894,-6.6875,-6.5351,-6.4512,-6.4277,-6.3633,-6.3086,-6.2676,-6.289,-6.2871,-6.2617,-6.1973,-6.1699,-6.1699,-6.1699,-6.1699,-6.1699,-6.1699,-6.1699,-6.1699,-6.1699,-6.1699,-6.1699,-6.1699,-6.1699,-6.1658,-6.1419,-6.1328,-6.1252,-6.0935,-6.0819,-6.0454,-5.8992,-5.8454,-5.7915,-5.6395,-5.6876,-5.7415,-5.6453,-5.7137,-5.7851,-5.7463,-5.7188,-5.6761,-5.603,-5.5645,-5.5241,-5.4643,-5.4374,-5.3723,-5.2146,-5.1934,-5.1645,-5.0856,-4.9986,-4.9125,-4.8245,-4.7287,-4.6455,-4.5834,-4.5719,-4.5719,-4.5796,-4.5849,-4.5948,-4.6094,-4.6133,-4.6147,-4.6158,-4.6124,-4.6046,-4.595,-4.5873,-4.5838,-6.0762,-6.3125,-6.5078,-6.5957,-6.5879,-6.5293,-6.414,-6.3594,-6.2344,-5.8867,-5.6816,0.0,0.0,0.0,0.0,0.0,0.0,0.0,-6.2109,-6.2949,-6.3652,0.0,-6.4902,0.0,-6.541,-6.5098,-6.5234,0.0,-6.582,-6.6367,-6.8105,-6.7832,-6.7793,-6.8183,-6.7344,-6.6894,-6.6894,-6.6894,-6.6894,-6.6875,-6.5137,-6.4492,-6.4844,-6.3965,-6.3359,-6.3027,0.0,-6.3144,-6.2383,-6.1894,-6.1699,-6.1698,-6.1639,-6.1617,-6.1617,-6.155,-6.1515,-6.1515,-6.1515,-6.1515,-6.1523,-6.1597,-6.1573,-6.1504,-6.1353,-6.1245,-6.1115,-6.093,-6.0839,-6.0569,-5.9646,-5.9108,-5.8588,-5.7607,-5.7857,-5.805,-5.7146,-5.7453,-5.7695,-5.6897,-5.6946,-5.6838,-5.5953,-5.5742,-5.5549,-5.5085,-5.5028,-5.4607,-5.3435,-5.2608,-5.1819,-5.101,-5.0144,-4.9413,-4.8949,-4.8028,-4.7298,-4.6836,-4.6413,-4.6355,-4.6778,-4.6161,-4.6018,-4.6485,-4.6172,-4.602,-4.6002,-4.5992,-4.593,-4.5853,-4.5757,-4.5738,-6.3633,-6.5117,-6.5937,-6.6562,-6.6074,-6.4707,-6.1992,-6.0605,-5.8887,-5.5351,0.0,-5.1894,-5.0918,-5.0332,-5.0644,-5.2558,0.0,-5.6797,-6.1094,-6.1152,-6.2148,-6.5937,-6.5351,-6.5195,-6.6582,-6.6152,-6.6094,-6.6836,-6.6191,-6.6426,-6.7949,-6.7305,-6.7246,-6.8008,-6.7285,-6.6894,-6.6894,-6.6894,-6.6894,-6.6875,-6.5254,-6.4805,-6.539,-6.4648,-6.3769,-6.2871,-6.375,0.0,-6.1699,-6.1699,-6.1699,-6.1695,-6.1555,-6.1497,-6.1489,-6.1349,-6.1305,-6.1305,-6.1305,-6.1285,-6.1289,-6.1422,-6.1389,-6.1305,-6.1272,-6.1136,-6.0993,-6.0973,-6.0896,-6.0762,-6.0531,-6.0012,-5.9492,-5.9223,-5.8723,-5.828,-5.8146,-5.7726,-5.7093,-5.6225,-5.6646,-5.6857,-5.5857,-5.5703,-5.5703,-5.5703,-5.5703,-5.5415,-5.4605,-5.3164,-5.1896,-5.0952,-5.0183,-4.9644,-4.9413,-4.8702,-4.8221,-4.8105,-4.7451,-4.7375,-4.8067,-4.6701,-4.6277,-4.7005,-4.6273,-4.5891,-4.5891,-4.5838,-4.5796,-4.5776,-4.5643,-4.5643,-6.5019,-6.6015,-6.6543,-6.5976,-6.5176,-6.3672,-6.0371,-5.8398,0.0,0.0,0.0,-4.9062,-4.748,-4.8242,0.0,-5.3262,0.0,0.0,0.0,0.0,-6.2832,0.0,0.0,0.0,0.0,0.0,0.0,0.0,0.0,-6.6816,-6.7109,-6.6972,-6.6972,-6.7129,-6.6972,-6.6894,-6.6894,-6.6894,-6.6894,-6.6894,-6.5859,-6.5078,-6.4512,-6.4375,-6.3437,-6.1973,-6.2851,0.0,-6.1699,-6.1699,-6.1699,-6.1695,-6.1555,-6.1497,-6.1482,-6.1359,-6.1285,-6.1285,-6.1285,-6.1188,-6.107,-6.127,-6.1315,-6.1265,-6.1092,-6.1026,-6.0973,-6.0858,-6.0896,-6.0608,-5.9127,-5.9238,-5.9354,-5.78,-5.7877,-5.8107,-5.7376,-5.7684,-5.7838,-5.6973,-5.7492,-5.7566,-5.5972,-5.5703,-5.5703,-5.5703,-5.5703,-5.5415,-5.4605,-5.4241,-5.3454,-5.1856,-5.1568,-5.0914,-4.951,-4.926,-4.8875,-4.8144,-4.7971,-4.7952,-4.8086,-4.7201,-4.6796,-4.7005,-4.6227,-4.5835,-4.5835,-4.5811,-4.5738,-4.5624,-4.5605,-4.5605,-6.5918,-6.6582,-6.6699,-6.582,-6.4258,-6.1933,-5.8047,0.0,0.0,0.0,-4.748,-4.6621,-4.5781,0.0,0.0,0.0,0.0,0.0,0.0,0.0,0.0,0.0,0.0,0.0,0.0,0.0,0.0,0.0,0.0,-6.7109,-6.7558,-6.7578,-6.7363,-6.6914,-6.6894,-6.6894,-6.6894,-6.6445,-6.6211,-6.6211,-6.5332,-6.4707,-6.4297,-6.4235,-6.3488,-6.2313,-6.2713,0.0,-6.1601,-6.168,-6.1699,-6.1677,-6.1473,-6.1408,-6.1381,-6.1131,-6.1031,-6.1031,-6.1031,-6.0973,-6.0916,-6.1093,-6.1112,-6.1012,-6.0993,-6.0993,-6.0993,-6.1031,-6.1112,-6.0968,-6.0092,-6.0152,-6.0227,-5.9438,-5.8858,-5.8377,-5.7953,-5.8204,-5.8377,-5.7953,-5.8223,-5.8088,-5.6802,-5.6244,-5.5974,-5.5974,-5.5974,-5.5818,-5.5434,-5.528,-5.4549,-5.2779,-5.2183,-5.1568,-5.0779,-5.0317,-4.9894,-4.9471,-4.9029,-4.8971,-4.9433,-4.8221,-4.7528,-4.7566,-4.6796,-4.6144,-4.5699,-4.5699,-4.5643,-4.5586,-4.568,-4.5699,-6.6191,-6.6758,-6.664,-6.5586,-6.3223,-6.0098,-5.5957,-5.2383,0.0,0.0,-4.5605,-4.5,-4.5,0.0,0.0,0.0,0.0,0.0,0.0,0.0,0.0,0.0,0.0,0.0,0.0,0.0,0.0,0.0,0.0,0.0,-6.7871,-6.793,-6.7617,-6.6914,-6.6894,-6.6894,-6.6894,-6.6211,-6.5781,-6.5586,-6.4902,-6.4375,-6.4023,-6.3887,-6.3334,-6.2532,-6.2493,0.0,0.0,-6.157,-6.1609,-6.1584,-6.1331,-6.125,-6.1208,-6.0896,-6.08,-6.08,-6.0819,-6.0839,-6.0839,-6.08,-6.08,-6.0858,-6.1012,-6.1046,-6.1095,-6.1269,-6.1318,-6.1304,-6.1084,-6.0937,-6.0814,-6.0745,-5.9686,-5.876,-5.8934,-5.8993,-5.8915,-5.8741,-5.8715,-5.8357,-5.7324,-5.6618,-5.6201,-5.6201,-5.6201,-5.6209,-5.6188,-5.6077,-5.5403,-5.3954,-5.2991,-5.2318,-5.1933,-5.1318,-5.0875,-5.0702,-5.0048,-4.999,-5.0664,-4.9202,-4.8298,-4.8163,-4.7336,-4.6509,-4.5643,-4.5643,-4.5643,-4.568,-4.5776,-4.5828,-6.5469,-6.6308,-6.6504,-6.4824,-6.1894,-5.8496,-5.4922,0.0,0.0,-4.668,-4.5605,-4.5,-4.5,-4.5195,0.0,0.0,0.0,0.0,0.0,0.0,0.0,0.0,0.0,0.0,0.0,0.0,0.0,0.0,0.0,0.0,-6.7012,-6.7012,-6.6972,-6.6894,-6.6894,-6.6894,-6.6894,-6.6816,-6.6387,-6.5605,-6.5527,-6.4648,-6.3105,-6.2978,-6.2444,-6.1593,-6.1494,0.0,0.0,-6.1323,-6.1342,-6.132,-6.1099,-6.1042,-6.0993,-6.0858,-6.08,-6.0819,-6.0935,-6.0973,-6.0877,-6.0277,-6.0512,-6.1012,-6.1208,-6.1272,-6.1279,-6.1279,-6.1386,-6.1285,-6.0351,-6.0201,-6.0052,-5.9144,-5.8823,-5.8914,-5.9709,-5.9877,-5.9651,-5.8856,-5.8683,-5.8177,-5.659,-5.626,-5.6204,-5.6204,-5.6204,-5.6205,-5.6194,-5.6188,-5.6029,-5.5689,-5.4818,-5.3626,-5.2029,-5.1837,-5.1491,-5.0741,-5.0606,-5.0606,-5.0702,-4.9779,-4.8971,-4.8279,-4.7432,-4.6624,-4.5873,-4.5873,-4.5873,-4.5873,-4.5892,-4.5887,-6.3515,-6.4668,-6.5039,-6.3828,-6.0547,-5.6992,-5.4551,0.0,0.0,-4.6445,-4.5605,-4.5,-4.5,-4.543,-4.5957,0.0,0.0,0.0,0.0,0.0,0.0,0.0,0.0,0.0,0.0,0.0,0.0,0.0,0.0,0.0,-6.6152,-6.6601,-6.6894,-6.6894,-6.6894,-6.6894,-6.6894,-6.5859,-6.5156,-6.4805,-6.4297,-6.3398,-6.2226,-6.2623,-6.2332,-6.1497,-6.1439,0.0,0.0,-6.1389,-6.1369,-6.1273,-6.1087,-6.0993,-6.0973,-6.0935,-6.0589,-6.0238,-6.0935,-6.0827,-6.0375,-6.0181,-6.0319,-6.0531,-6.0608,-6.0282,-6.0101,-6.1217,-6.0854,-6.0125,-6.0222,-5.9918,-5.9474,-5.8947,-5.8904,-5.9241,-6.0065,-5.9851,-5.9714,-6.0373,-5.9696,-5.8792,-5.8128,-5.7571,-5.7051,-5.6523,-5.6445,-5.6437,-5.643,-5.6369,-5.6284,-5.621,-5.5261,-5.4086,-5.2799,-5.2202,-5.1587,-5.0856,-5.0837,-5.0875,-5.0952,-5.0625,-4.9798,-4.8452,-4.8071,-4.723,-4.5886,-4.5886,-4.5886,-4.5905,-4.597,-4.6031,-6.1308,-6.3066,-6.4023,-6.289,-5.9394,-5.5762,0.0,0.0,0.0,-4.625,-4.5391,-4.4687,-4.4941,-4.5508,-4.5703,0.0,0.0,0.0,0.0,0.0,0.0,0.0,0.0,0.0,0.0,0.0,0.0,0.0,0.0,0.0,0.0,-6.5937,-6.625,-6.6504,-6.6777,-6.6894,-6.6894,-6.543,-6.4551,-6.4297,-6.3418,-6.2539,-6.1719,-6.2207,-6.2089,-6.1511,-6.1466,0.0,0.0,-6.1334,-6.1304,-6.1189,-6.0993,-6.0954,-6.0993,-6.0993,-6.0644,-6.0286,-6.1081,-6.0944,-6.0406,-6.0318,-6.0104,-5.9903,-5.9897,-5.9481,-5.9255,-6.0588,-6.0117,-5.9336,-5.9902,-5.9629,-5.9224,-5.9308,-5.9459,-5.9785,-6.0605,-6.0332,-6.0215,-6.1133,-6.0176,-5.9121,-5.8867,-5.8086,-5.7305,-5.6699,-5.6601,-5.6601,-5.6601,-5.6528,-5.6437,-5.6403,-5.5673,-5.4682,-5.3432,-5.276,-5.1991,-5.1029,-5.0966,-5.0996,-5.1093,-5.0841,-5.0158,-4.8971,-4.8701,-4.7844,-4.6398,-4.6398,-4.6261,-4.6027,-4.6124,-4.6157,-5.8965,-6.1719,-6.3887,-6.2148,-5.8496,-5.4863,0.0,0.0,-4.5254,-4.6113,-4.4922,-4.3984,-4.4844,-4.5019,-4.5019,-4.5,0.0,0.0,0.0,0.0,0.0,0.0,0.0,0.0,0.0,0.0,0.0,0.0,0.0,0.0,0.0,-6.4785,-6.4726,-6.5586,-6.6445,-6.6894,-6.6894,-6.6035,-6.5156,-6.4297,-6.3418,-6.2539,-6.1699,-6.1562,-6.1504,0.0,0.0,0.0,0.0,-6.1079,-6.0993,-6.0973,-6.0839,-6.0877,-6.0993,-6.0993,-6.1117,-6.1298,-6.1444,-6.1478,-6.1362,-6.0627,-5.9854,-5.9203,-5.9212,-5.9199,-5.9199,-5.9219,-5.9219,-5.9199,-5.9219,-5.9219,-5.9394,-6.0195,-6.039,-6.0625,-6.1504,-6.168,-6.1426,-6.0586,-5.9765,-5.8926,-5.8066,-5.7187,-5.6601,-5.6601,-5.6601,-5.6601,-5.6601,-5.6601,-5.6543,-5.6406,-5.6388,-5.5626,-5.3736,-5.3586,-5.2877,-5.1203,-5.1095,-5.1103,-5.1103,-5.0267,-4.9867,-4.999,-4.9144,-4.8328,-4.7578,-4.7578,-4.7148,-4.6308,-4.6308,-4.6308,-5.3398,-5.5058,-5.6094,-5.4941,-5.2773,-5.0781,-5.0234,0.0,-4.5078,-4.5351,-4.4492,-4.3789,-4.4062,-4.4101,-4.4316,-4.4902,-4.5234,0.0,0.0,0.0,0.0,0.0,0.0,0.0,0.0,0.0,0.0,0.0,0.0,0.0,0.0,-6.4121,-6.4433,-6.4707,-6.5566,-6.6015,-6.6015,-6.5156,-6.457,-6.4277,-6.2812,-6.1973,-6.1699,-6.166,-6.164,0.0,0.0,0.0,0.0,-6.1374,-6.1278,-6.1189,-6.0993,-6.0954,-6.1,-6.1003,-6.0744,-6.0522,-6.1244,-6.1178,-6.0625,-5.9825,-5.9416,-5.8988,-5.7789,-5.7422,-5.7422,-5.7422,-5.7851,-5.8164,-5.7578,-5.7871,-5.8535,-5.9375,-6.0,-6.0644,-6.1504,-6.123,-6.0918,-6.123,-6.0156,-5.9101,-5.8848,-5.8066,-5.7285,-5.6699,-5.6601,-5.6601,-5.6601,-5.6601,-5.6582,-5.6543,-5.6532,-5.5987,-5.4608,-5.394,-5.3158,-5.2107,-5.1505,-5.1205,-5.1304,-5.1034,-5.0375,-4.9276,-4.9568,-4.9025,-4.7598,-4.7598,-4.7148,-4.6308,-4.6308,-4.6308,0.0,-5.1151,-5.2381,-5.1503,-5.0287,0.0,0.0,0.0,-4.4512,-4.4512,-4.3828,-4.3301,-4.3633,-4.3691,-4.3984,-4.4863,-4.5,0.0,0.0,0.0,0.0,0.0,0.0,0.0,0.0,0.0,0.0,0.0,0.0,0.0,0.0,-6.3203,-6.332,-6.332,-6.4473,-6.5117,-6.5117,-6.4258,-6.3808,-6.3789,-6.2383,-6.1699,-6.1699,-6.1699,-6.1699,0.0,0.0,0.0,0.0,-6.1523,-6.1445,-6.1356,-6.1173,-6.1134,-6.1193,-6.1196,-6.0958,-6.0692,-6.0971,-6.0781,-6.0273,-5.9453,-5.8984,-5.8457,-5.7031,-5.6601,-5.6601,-5.6601,-5.6992,-5.7441,-5.7558,-5.7988,-5.8691,-5.9863,-6.0273,-6.0547,-6.1094,-6.0781,-6.0566,-6.1094,-6.0117,-5.9199,-5.9199,-5.8203,-5.7226,-5.668,-5.6601,-5.6601,-5.6601,-5.6601,-5.6601,-5.6601,-5.6601,-5.6302,-5.5607,-5.4443,-5.3405,-5.2632,-5.1754,-5.1315,-5.1406,-5.1113,-5.0605,-4.9863,-5.0078,-4.9668,-4.8574,-4.8242,-4.7637,-4.6797,-4.6797,-4.6601,0.0,0.0,0.0,0.0,0.0,0.0,0.0,0.0,0.0,-4.3613,-4.293,-4.2578,-4.3457,-4.3613,-4.3906,-4.4844,0.0,0.0,0.0,0.0,0.0,0.0,0.0,0.0,0.0,0.0,0.0,0.0,0.0,0.0,0.0,-6.2148,-6.1699,-6.1699,-6.3262,-6.414,-6.4219,-6.3398,-6.3008,-6.2988,-6.2129,-6.1699,-6.1699,-6.1699,-6.1699,0.0,0.0,0.0,0.0,-6.1562,-6.1504,-6.1503,-6.137,-6.1399,-6.1494,-6.1489,-6.1543,-6.148,-6.0666,-6.035,-6.0176,-5.9375,-5.8515,-5.7656,-5.6855,-5.6601,-5.6601,-5.6601,-5.6601,-5.6992,-5.8672,-5.914,-5.9609,-6.1211,-6.1035,-6.0488,-6.041,-6.039,-6.0371,-6.0332,-5.9668,-5.9101,-5.9101,-5.7715,-5.6601,-5.6601,-5.6601,-5.6601,-5.6601,-5.6601,-5.6601,-5.6601,-5.6601,-5.6601,-5.6601,-5.5058,-5.3711,-5.2851,-5.1973,-5.1465,-5.1406,-5.0683,-5.0605,-5.1308,-5.0527,-5.0137,-5.0195,-4.9336,-4.8476,-4.7695,-4.7637,-4.7168,-4.187,0.0,-4.4302,-4.3434,-4.3587,0.0,0.0,0.0,0.0,0.0,0.0,-4.1738,-4.2558,-4.2715,-4.3203,0.0,0.0,0.0,0.0,0.0,0.0,0.0,0.0,0.0,0.0,0.0,0.0,0.0,0.0,0.0,0.0,-6.1816,-6.1699,-6.1699,-6.2109,-6.2637,-6.3301,-6.3105,-6.3008,-6.2988,-6.2129,-6.1699,-6.1699,-6.1699,-6.1699,0.0,0.0,0.0,-6.1699,-6.168,-6.164,-6.164,-6.1516,-6.1479,-6.1498,-6.1382,-6.1019,-6.0538,-6.0326,-5.9903,-5.9336,-5.8476,-5.7617,-5.6875,-5.666,-5.6601,-5.6601,-5.6601,-5.6601,-5.6855,-5.793,-5.8691,-5.9453,-6.0469,-6.1055,-6.1211,-6.0547,-6.039,-6.0215,-5.9609,-5.8789,-5.8203,-5.8203,-5.7305,-5.6601,-5.6601,-5.6601,-5.6601,-5.6601,-5.6601,-5.6601,-5.6601,-5.6601,-5.6601,-5.6601,-5.5605,-5.4629,-5.375,-5.2871,-5.2109,-5.1426,-5.1211,-5.0918,-5.0488,-4.9648,-4.9531,-5.0195,-4.9336,-4.8789,-4.8574,-4.791,-4.748,-4.0581,-4.1543,-4.2447,-4.1956,-4.253,-4.3115,0.0,0.0,0.0,0.0,0.0,0.0,-4.2246,0.0,0.0,0.0,0.0,0.0,0.0,0.0,0.0,0.0,0.0,0.0,0.0,0.0,0.0,0.0,0.0,0.0,0.0,-6.1699,-6.1699,-6.1699,-6.1699,-6.1933,-6.2402,-6.2402,-6.2402,-6.2402,-6.1933,-6.1699,-6.1699,-6.1699,-6.1699,0.0,0.0,0.0,-6.1699,-6.1699,-6.1699,-6.1699,-6.1621,-6.1582,-6.1523,-6.1052,-6.0623,-6.0171,-5.94,-5.8643,-5.793,-5.7461,-5.6973,-5.6601,-5.6601,-5.6601,-5.6601,-5.6601,-5.6601,-5.6797,-5.7676,-5.8242,-5.8808,-5.9648,-5.9902,-5.9824,-5.9355,-5.9258,-5.9121,-5.8691,-5.8223,-5.789,-5.789,-5.7187,-5.6601,-5.6601,-5.6601,-5.6601,-5.6601,-5.6601,-5.6601,-5.6601,-5.6601,-5.6601,-5.6601,-5.6101,-5.5294,-5.4081,-5.3183,-5.2305,-5.1445,-5.1406,-5.1191,-5.0762,-5.0293,-5.0273,-5.0742,-5.0273,-4.9863,-4.9492,-4.9004,-4.8359,-4.0658,-4.1889,-4.3066,-4.2816,-4.3352,-4.3731,0.0,0.0,0.0,0.0,0.0,0.0,0.0,0.0,0.0,0.0,0.0,0.0,0.0,0.0,0.0,0.0,0.0,0.0,0.0,0.0,0.0,0.0,0.0,0.0,0.0,-6.1699,-6.1699,-6.1699,-6.1699,-6.1699,-6.1699,-6.1699,-6.1699,-6.1699,-6.1699,-6.1699,-6.1699,-6.1699,-6.1699,-6.1699,0.0,0.0,-6.1699,-6.1699,-6.1699,-6.1699,-6.1699,-6.1621,-6.1406,-6.0664,-6.0234,-5.9805,-5.8242,-5.7226,-5.6601,-5.6601,-5.6601,-5.6601,-5.6601,-5.6601,-5.6601,-5.6601,-5.6601,-5.6797,-5.7676,-5.789,-5.8125,-5.8984,-5.8633,-5.8066,-5.793,-5.789,-5.7851,-5.7734,-5.7695,-5.7695,-5.7695,-5.7064,-5.6563,-5.6563,-5.6551,-5.6538,-5.6538,-5.6538,-5.6538,-5.6538,-5.6538,-5.6538,-5.6538,-5.644,-5.5676,-5.4033,-5.3253,-5.24,-5.1406,-5.1387,-5.1406,-5.1406,-5.1289,-5.1289,-5.1406,-5.1289,-5.0937,-5.0371,-5.0254,-4.9391,-4.0658,-4.1909,-4.2852,-4.1478,-4.1267,-4.1341,0.0,0.0,0.0,0.0,0.0,0.0,0.0,0.0,0.0,0.0,0.0,0.0,0.0,0.0,0.0,0.0,0.0,0.0,0.0,0.0,0.0,0.0,0.0,0.0,0.0,-6.1699,-6.1699,-6.1699,-6.1699,-6.1699,-6.1699,-6.1699,-6.1699,-6.1699,-6.1699,-6.1699,-6.1699,-6.1699,-6.1699,-6.1699,0.0,-6.1699,-6.1699,-6.1699,-6.1699,-6.1699,-6.1699,-6.125,-6.0586,-6.0449,-5.9492,-5.8144,-5.7148,-5.6719,-5.6601,-5.6601,-5.6601,-5.6601,-5.6601,-5.6601,-5.6601,-5.6601,-5.6601,-5.6797,-5.7676,-5.789,-5.8125,-5.8984,-5.9101,-5.8808,-5.8066,-5.789,-5.7676,-5.6933,-5.6797,-5.6797,-5.6797,-5.6592,-5.6423,-5.6423,-5.633,-5.6251,-5.6251,-5.6251,-5.6251,-5.6251,-5.6251,-5.6251,-5.6251,-5.6239,-5.55,-5.3756,-5.3538,-5.2785,-5.1289,-5.1348,-5.1406,-5.1406,-5.0723,-5.0723,-5.1406,-5.0723,-5.0664,-5.1191,-5.0527,-5.0004,-4.0735,-4.137,-4.1971,-4.1712,-4.2291,-4.2775,0.0,0.0,0.0,0.0,0.0,0.0,0.0,0.0,0.0,0.0,0.0,0.0,0.0,0.0,0.0,0.0,0.0,0.0,0.0,0.0,0.0,0.0,0.0,0.0,0.0,0.0,-6.1699,-6.1699,-6.1699,-6.1699,-6.1699,-6.123,-6.123,-6.1699,-6.1699,-6.1699,-6.1699,-6.1699,-6.1699,-6.168,0.0,-6.0996,-6.0957,-6.0527,-6.0605,-6.0957,-6.0527,-6.0371,-6.0293,-5.9375,-5.8262,-5.7148,-5.6738,-5.6601,-5.6601,-5.6601,-5.6601,-5.6601,-5.6601,-5.6601,-5.6601,-5.6601,-5.6601,-5.6699,-5.709,-5.7207,-5.7305,-5.7695,-5.7793,-5.7695,-5.7285,-5.7207,-5.707,-5.668,-5.6601,-5.6571,-5.6504,-5.6435,-5.6379,-5.6302,-5.6232,-5.6198,-5.6198,-5.6198,-5.6198,-5.6198,-5.6198,-5.6198,-5.6198,-5.6101,-5.5339,-5.3704,-5.279,-5.1968,-5.123,-5.1328,-5.1406,-5.1406,-5.1035,-5.1035,-5.1406,-5.1035,-5.1035,-5.1387,-5.1016,-5.0543,-4.0812,-4.1078,-4.1445,-4.1984,0.0,0.0,0.0,0.0,0.0,0.0,0.0,0.0,0.0,0.0,0.0,0.0,0.0,0.0,0.0,0.0,0.0,0.0,0.0,0.0,0.0,0.0,0.0,0.0,0.0,0.0,0.0,0.0,-6.1699,-6.1699,-6.1699,-6.1699,-6.1699,-6.084,-6.084,-6.1699,-6.1484,-6.1504,-6.1699,-6.1699,-6.1699,-6.164,-6.0781,-6.039,-6.0332,-5.9531,-5.9551,-6.0058,-5.9433,-5.9453,-5.9629,-5.8144,-5.7168,-5.6601,-5.6601,-5.6601,-5.6601,-5.6601,-5.6573,-5.6553,-5.6553,-5.6536,-5.6512,-5.6512,-5.6512,-5.6515,-5.6581,-5.6601,-5.6601,-5.6601,-5.6601,-5.6601,-5.6601,-5.6588,-5.6553,-5.6553,-5.6536,-5.6478,-5.6377,-5.6308,-5.6244,-5.6148,-5.6109,-5.609,-5.609,-5.609,-5.609,-5.609,-5.609,-5.609,-5.609,-5.5801,-5.5128,-5.3935,-5.2761,-5.1827,-5.124,-5.1517,-5.1601,-5.1406,-5.1406,-5.1406,-5.1406,-5.1406,-5.1406,-5.1406,-5.1406,-5.0996,-4.0927,-4.1578,-4.2054,-4.1439,0.0,0.0,0.0,0.0,0.0,0.0,0.0,0.0,0.0,0.0,0.0,0.0,0.0,0.0,0.0,0.0,0.0,0.0,0.0,0.0,0.0,0.0,0.0,0.0,0.0,0.0,0.0,0.0,0.0,-6.1699,-6.1699,-6.1699,-6.1699,-6.084,-6.084,-6.1699,-6.0879,-6.0918,-6.1699,-6.1699,-6.1699,-6.164,-6.0781,-6.039,-6.0332,-5.9531,-5.9238,-5.9277,-5.9219,-5.873,-5.7969,-5.7031,-5.664,-5.6601,-5.6601,-5.6601,-5.6601,-5.6601,-5.6533,-5.6406,-5.6406,-5.6335,-5.6222,-5.6222,-5.6222,-5.6297,-5.6538,-5.6601,-5.6601,-5.6601,-5.6601,-5.6601,-5.6601,-5.6494,-5.6406,-5.6406,-5.6306,-5.6232,-5.6228,-5.6068,-5.5915,-5.5915,-5.5818,-5.5742,-5.5742,-5.5742,-5.5742,-5.5742,-5.5742,-5.5742,-5.5742,-5.5147,-5.4743,-5.4628,-5.4741,-5.3743,-5.1297,-5.2103,-5.2226,-5.1426,-5.1406,-5.1406,-5.1406,-5.1406,-5.1406,-5.1406,-5.1406,-5.1308,-4.0831,-4.1671,-4.2299,-4.2014,0.0,0.0,0.0,0.0,0.0,0.0,0.0,0.0,0.0,0.0,0.0,0.0,0.0,0.0,0.0,0.0,0.0,0.0,0.0,0.0,0.0,0.0,0.0,0.0,0.0,0.0,0.0,0.0,0.0,-6.0176,-6.1152,-6.1445,-6.0898,-6.0078,-6.0078,-6.0898,-6.0566,-6.0312,-6.0176,-6.1211,-6.1133,-6.0137,-5.9805,-5.9355,-5.8789,-5.793,-5.789,-5.8398,-5.8398,-5.7851,-5.7051,-5.6719,-5.6542,-5.6492,-5.6492,-5.6416,-5.6342,-5.6342,-5.6329,-5.6285,-5.629,-5.6252,-5.6205,-5.6205,-5.6205,-5.6214,-5.6312,-5.6406,-5.6456,-5.6364,-5.6414,-5.6446,-5.6379,-5.6297,-5.6272,-5.6268,-5.6233,-5.6167,-5.6014,-5.5943,-5.5857,-5.578,-5.5722,-5.5703,-5.5703,-5.5703,-5.5703,-5.5703,-5.5703,-5.5703,-5.5703,-5.5667,-5.5403,-5.4861,-5.4494,-5.3609,-5.2069,-5.2441,-5.2285,-5.1426,-5.1406,-5.1406,-5.1406,-5.1406,-5.1406,-5.1406,-5.1406,-5.1328,-4.0048,-4.0881,-4.16,0.0,0.0,0.0,0.0,0.0,0.0,0.0,0.0,0.0,0.0,0.0,0.0,0.0,0.0,0.0,0.0,0.0,0.0,0.0,0.0,0.0,0.0,0.0,0.0,0.0,0.0,0.0,0.0,0.0,0.0,-5.9081,-6.0202,-6.0509,-5.9862,-5.9042,-5.8905,-5.9452,-5.9529,-5.9433,-5.9238,-6.039,-6.0273,-5.918,-5.8906,-5.8457,-5.7832,-5.6953,-5.6953,-5.748,-5.748,-5.7096,-5.6537,-5.6537,-5.645,-5.6347,-5.6345,-5.6288,-5.6199,-5.6199,-5.616,-5.6102,-5.6116,-5.609,-5.6051,-5.6051,-5.6051,-5.604,-5.6047,-5.6186,-5.6309,-5.6213,-5.6263,-5.6309,-5.6218,-5.616,-5.611,-5.6114,-5.6071,-5.6013,-5.5857,-5.5838,-5.5799,-5.5703,-5.5703,-5.5703,-5.5703,-5.5703,-5.5703,-5.5703,-5.5703,-5.5703,-5.5703,-5.5955,-5.5846,-5.5248,-5.4788,-5.4084,-5.3022,-5.306,-5.2695,-5.1836,-5.1543,-5.1406,-5.1406,-5.1406,-5.1406,-5.1406,-5.1406,-5.1348,-3.8549,-3.914,0.0,0.0,0.0,0.0,0.0,0.0,0.0,0.0,0.0,0.0,0.0,0.0,0.0,0.0,0.0,0.0,0.0,0.0,0.0,0.0,0.0,0.0,0.0,0.0,0.0,0.0,0.0,0.0,0.0,0.0,-5.8827,-5.8675,-5.8815,-5.8816,-5.8693,-5.7837,-5.7409,-5.7409,-5.7594,-5.8203,-5.918,-5.9199,-5.9199,-5.9121,-5.8262,-5.789,-5.7812,-5.6953,-5.6601,-5.6601,-5.6601,-5.6513,-5.6398,-5.6398,-5.63,-5.6205,-5.6194,-5.6205,-5.6205,-5.6205,-5.6071,-5.5895,-5.5895,-5.5799,-5.5703,-5.5703,-5.5703,-5.5703,-5.5703,-5.5955,-5.6205,-5.6205,-5.6205,-5.6205,-5.6205,-5.6051,-5.5895,-5.5895,-5.578,-5.5703,-5.5703,-5.5703,-5.5703,-5.5703,-5.5703,-5.5703,-5.5703,-5.5703,-5.5703,-5.5703,-5.5703,-5.5703,-5.5703,-5.5818,-5.5905,-5.5904,-5.6096,-5.5533,-5.4062,-5.4004,-5.3574,-5.2695,-5.1836,-5.1406,-5.1406,-5.1406,-5.1406,-5.1406,-5.1406,-5.1406,-3.8466,-3.9069,0.0,0.0,0.0,0.0,0.0,0.0,0.0,0.0,0.0,0.0,0.0,0.0,0.0,0.0,0.0,0.0,0.0,0.0,0.0,0.0,0.0,0.0,0.0,0.0,0.0,0.0,0.0,0.0,0.0,-5.8396,-5.8201,-5.697,-5.8118,-5.845,-5.7794,-5.7523,-5.7407,-5.7388,-5.6889,-5.6855,-5.7285,-5.8594,-5.8535,-5.7383,-5.7754,-5.7558,-5.6973,-5.6719,-5.6536,-5.6451,-5.6451,-5.6384,-5.6248,-5.6271,-5.6155,-5.5981,-5.5978,-5.5915,-5.5838,-5.5838,-5.5799,-5.5761,-5.5761,-5.5722,-5.5703,-5.5703,-5.5703,-5.5703,-5.5703,-5.5761,-5.5838,-5.5838,-5.5915,-5.5974,-5.5857,-5.5799,-5.5761,-5.5761,-5.5722,-5.5703,-5.5703,-5.5703,-5.5703,-5.5703,-5.5703,-5.5703,-5.5703,-5.5703,-5.5703,-5.5703,-5.5703,-5.5703,-5.5703,-5.5818,-5.5901,-5.5905,-5.6096,-5.5495,-5.3925,-5.3867,-5.3203,-5.1816,-5.1523,-5.1406,-5.1406,-5.2012,-5.1992,-5.1406,-5.2031,-5.1992,-3.7861,0.0,0.0,0.0,0.0,0.0,0.0,0.0,0.0,0.0,0.0,0.0,0.0,0.0,0.0,0.0,0.0,0.0,0.0,0.0,0.0,0.0,0.0,0.0,0.0,0.0,0.0,0.0,0.0,0.0,0.0,-5.7266,-5.7101,-5.6024,-5.7024,-5.7305,-5.6746,-5.6727,-5.6727,-5.6727,-5.5955,-5.5659,-5.5771,-5.7309,-5.7467,-5.6543,-5.7129,-5.6894,-5.6113,-5.6394,-5.6479,-5.6359,-5.5955,-5.5923,-5.6033,-5.5731,-5.5705,-5.5818,-5.5818,-5.5761,-5.5703,-5.5703,-5.5703,-5.5703,-5.5703,-5.5703,-5.5703,-5.5703,-5.5703,-5.5703,-5.5703,-5.5703,-5.5703,-5.5703,-5.5761,-5.5799,-5.5722,-5.5703,-5.5703,-5.5703,-5.5703,-5.5703,-5.5703,-5.5703,-5.5703,-5.5703,-5.5703,-5.5703,-5.5703,-5.5703,-5.5703,-5.5703,-5.5703,-5.5703,-5.5703,-5.5761,-5.5818,-5.5818,-5.5626,-5.5107,-5.4206,-5.3927,-5.3183,-5.1855,-5.1894,-5.1914,-5.1914,-5.2793,-5.2773,-5.1933,-5.2812,-5.2754,0.0,0.0,0.0,0.0,0.0,0.0,0.0,0.0,0.0,0.0,0.0,0.0,0.0,0.0,0.0,0.0,0.0,0.0,0.0,0.0,0.0,0.0,0.0,0.0,0.0,0.0,0.0,0.0,0.0,0.0,0.0,-5.5645,-5.5703,-5.5588,-5.578,-5.578,-5.5588,-5.5588,-5.5549,-5.5453,-5.4858,-5.4551,-5.461,-5.5627,-5.6157,-5.6268,-5.6385,-5.5956,-5.5208,-5.5869,-5.6132,-5.6032,-5.5129,-5.5128,-5.5568,-5.4839,-5.5012,-5.5588,-5.5588,-5.5588,-5.5588,-5.5684,-5.5645,-5.5588,-5.5684,-5.5703,-5.5703,-5.5703,-5.5703,-5.5703,-5.5703,-5.5703,-5.5703,-5.5703,-5.5703,-5.5703,-5.5703,-5.5703,-5.5703,-5.5703,-5.5703,-5.5703,-5.5703,-5.5703,-5.5703,-5.5703,-5.5703,-5.5703,-5.5703,-5.5703,-5.5703,-5.5703,-5.5703,-5.5703,-5.5703,-5.5703,-5.5703,-5.5703,-5.5011,-5.4645,-5.4682,-5.4089,-5.3395,-5.2637,-5.2656,-5.2734,-5.2812,-5.3613,-5.3594,-5.2832,-5.3711,-5.3652,0.0,0.0,0.0,0.0,0.0,0.0,0.0,0.0,0.0,0.0,0.0,0.0,0.0,0.0,0.0,0.0,0.0,0.0,0.0,0.0,0.0,0.0,0.0,0.0,0.0,0.0,0.0,0.0,0.0,0.0,-5.3741,-5.4414,-5.478,-5.4761,-5.5395,-5.5434,-5.4761,-5.4761,-5.4414,0.0,-5.3587,-5.351,-5.3549,-5.467,-5.5195,-5.5221,-5.526,-5.4765,-5.3978,-5.4136,-5.4142,-5.4032,-5.382,-5.3742,-5.376,-5.3587,-5.4049,-5.4762,-5.4761,-5.4761,-5.4858,-5.5491,-5.5261,-5.4876,-5.5511,-5.5703,-5.5703,-5.5703,-5.5703,-5.5703,-5.5703,-5.5703,-5.5703,-5.5703,-5.5703,-5.5703,-5.5703,-5.5703,-5.5703,-5.5703,-5.5703,-5.5703,-5.5703,-5.5703,-5.5703,-5.5703,-5.5703,-5.5703,-5.5703,-5.5703,-5.5703,-5.5703,-5.5703,-5.5703,-5.5703,-5.5703,-5.5703,-5.5703,-5.553,-5.5164,-5.4568,-5.3858,-5.3502,-5.3515,-5.2871,-5.293,-5.3711,-5.3906,-5.3906,-5.373,-5.4609,-5.4551,0.0,0.0,0.0,0.0,0.0,0.0,0.0,0.0,0.0,0.0,0.0,0.0,0.0,0.0,0.0,0.0,0.0,0.0,0.0,0.0,0.0,0.0,0.0,0.0,0.0,0.0,0.0,0.0,0.0,-5.3203,-5.3203,-5.3626,-5.3876,-5.3876,-5.428,-5.4299,-5.3876,-5.3876,-5.3645,-5.3203,-5.2779,-5.2587,-5.2626,-5.3682,-5.4169,-5.4192,-5.426,-5.3776,-5.3005,-5.3374,-5.3464,-5.3397,-5.3319,-5.351,-5.3818,-5.3818,-5.4108,-5.4493,-5.4512,-5.4222,-5.3933,-5.4376,-5.4222,-5.3953,-5.4376,-5.4511,-5.4607,-5.5009,-5.5124,-5.5201,-5.5607,-5.5703,-5.5703,-5.5703,-5.5703,-5.5703,-5.5703,-5.5703,-5.5703,-5.5703,-5.5703,-5.5703,-5.5703,-5.5703,-5.5703,-5.5703,-5.5703,-5.5703,-5.5703,-5.5703,-5.5703,-5.5703,-5.5703,-5.5703,-5.5703,-5.5703,-5.5703,-5.5703,-5.5338,-5.5107,-5.5068,-5.4337,-5.3872,-5.3711,-5.3728,-5.4023,-5.4629,-5.5039,-5.5039,-5.4648,-5.5527,-5.5469,0.0,0.0,0.0,0.0,0.0,0.0,0.0,0.0,0.0,0.0,0.0,0.0,0.0,0.0,0.0,0.0,0.0,0.0,0.0,0.0,0.0,0.0,0.0,0.0,0.0,0.0,0.0,0.0,0.0,-5.2779,-5.2779,-5.2779,-5.2837,-5.2972,-5.2991,-5.2991,-5.2991,-5.2991,-5.2914,-5.276,-5.2049,-5.1779,-5.1933,-5.2626,-5.3009,-5.3164,-5.3243,-5.282,-5.2069,-5.2685,-5.2935,-5.2915,-5.2799,-5.3203,-5.3837,-5.3839,-5.3935,-5.405,-5.405,-5.3589,-5.2991,-5.3145,-5.3106,-5.301,-5.3145,-5.3182,-5.3355,-5.4066,-5.4393,-5.4662,-5.5318,-5.5588,-5.5703,-5.5703,-5.5703,-5.5703,-5.5703,-5.5703,-5.5703,-5.5703,-5.5703,-5.5703,-5.5703,-5.5703,-5.5703,-5.5703,-5.5703,-5.5703,-5.5703,-5.5703,-5.5703,-5.5703,-5.5703,-5.5703,-5.5703,-5.5703,-5.5703,-5.5703,-5.5068,-5.5011,-5.5665,-5.5049,-5.4472,-5.401,-5.4691,-5.5211,-5.5488,-5.6094,-5.6074,-5.5547,-5.6269,-5.6211,0.0,0.0,0.0,0.0,0.0,0.0,0.0,0.0,0.0,0.0,0.0,0.0,0.0,0.0,0.0,0.0,0.0,0.0,0.0,0.0,0.0,0.0,0.0,0.0,0.0,0.0,0.0,0.0,-5.1433,-5.1029,-5.1029,-5.1029,-5.1356,-5.2049,-5.2087,-5.2087,-5.2087,-5.2087,-5.1722,-5.1029,-5.0914,-5.1221,-5.1895,-5.1318,-5.1433,-5.2106,-5.2125,-5.1664,-5.0933,-5.1029,-5.1068,-5.1068,-5.1029,-5.1087,-5.1202,-5.1202,-5.1664,-5.2259,-5.2242,-5.2165,-5.2204,-5.2953,-5.2702,-5.2222,-5.2972,-5.3182,-5.322,-5.3338,-5.3933,-5.4528,-5.4626,-5.5164,-5.5703,-5.5703,-5.5703,-5.5703,-5.5703,-5.5703,-5.5703,-5.5703,-5.5703,-5.5703,-5.5703,-5.5703,-5.5703,-5.5703,-5.5703,-5.5703,-5.5703,-5.5703,-5.5703,-5.5703,-5.5703,-5.5703,-5.5703,-5.5703,-5.5703,-5.5703,-5.5588,-5.5588,-5.5703,-5.5588,-5.5549,-5.5588,-5.5145,-5.5354,-5.625,-5.5723,-5.5801,-5.6426,-5.6543,-5.6543,0.0,0.0,0.0,0.0,0.0,0.0,0.0,0.0,0.0,0.0,0.0,0.0,0.0,0.0,0.0,0.0,0.0,0.0,0.0,0.0,0.0,0.0,0.0,0.0,0.0,0.0,0.0,0.0,-4.9433,-4.924,-4.924,-4.924,-4.9625,-5.0471,-5.0029,-5.001,-5.0491,-5.001,-4.9586,-4.924,-4.974,-5.0164,-5.051,-5.0644,-5.1144,-5.1875,-5.1414,-5.1029,-5.0702,-5.0702,-5.0702,-5.0741,-5.1202,-5.1375,-5.1433,-5.1914,-5.2009,-5.1893,-5.1895,-5.1607,-5.1299,-5.1664,-5.1529,-5.1298,-5.1683,-5.1798,-5.1895,-5.2338,-5.2587,-5.2914,-5.3861,-5.4206,-5.4425,-5.492,-5.5034,-5.5034,-5.5034,-5.5399,-5.5703,-5.5703,-5.5703,-5.5703,-5.5703,-5.5703,-5.5703,-5.5703,-5.5703,-5.5703,-5.5703,-5.5703,-5.5703,-5.5703,-5.5703,-5.5703,-5.5703,-5.5703,-5.5703,-5.5703,-5.5703,-5.5703,-5.5703,-5.5703,-5.5722,-5.578,-5.569,-5.5878,-5.6406,-5.6152,-5.623,-5.6601,-5.6601,-5.6601,0.0,0.0,0.0,0.0,0.0,0.0,0.0,0.0,0.0,0.0,0.0,0.0,0.0,0.0,0.0,0.0,0.0,0.0,0.0,0.0,0.0,0.0,0.0,0.0,0.0,0.0,0.0,0.0,-4.8105,-4.8105,-4.8105,-4.7913,-4.8202,-4.9048,-4.824,-4.8221,-4.9067,-4.8413,-4.8105,-4.8105,-4.8759,-4.9067,-4.9086,-4.974,-5.0491,-5.1241,-5.0856,-5.0702,-5.0702,-5.0702,-5.0624,-5.0622,-5.1336,-5.1527,-5.1523,-5.2298,-5.2144,-5.1605,-5.1607,-5.1203,-5.0683,-5.0567,-5.0548,-5.0529,-5.0433,-5.0394,-5.0509,-5.1121,-5.1236,-5.1518,-5.2959,-5.3259,-5.3409,-5.4295,-5.4333,-5.4252,-5.4572,-5.5115,-5.5577,-5.5684,-5.5703,-5.5703,-5.5703,-5.5703,-5.5703,-5.5703,-5.5703,-5.5703,-5.5703,-5.5703,-5.5703,-5.5703,-5.5703,-5.5703,-5.5703,-5.5703,-5.5703,-5.5703,-5.5703,-5.5703,-5.5703,-5.5703,-5.5703,-5.5703,-5.5994,-5.6203,-5.6354,-5.6483,-5.6562,-5.6601,-5.6601,-5.6601,0.0,0.0,0.0,0.0,0.0,0.0,0.0,0.0,0.0,0.0,0.0,0.0,0.0,0.0,0.0,0.0,0.0,0.0,0.0,0.0,0.0,0.0,0.0,0.0,0.0,0.0,0.0,0.0,-4.8105,-4.8105,-4.8105,-4.7375,-4.7336,-4.8144,-4.7394,-4.7355,-4.8163,-4.8125,-4.8105,-4.8105,-4.8144,-4.8163,-4.8182,-4.8221,-4.8702,-4.9567,-5.0356,-5.0702,-5.0702,-5.0702,-5.0483,-5.0159,-5.0602,-5.0519,-5.0259,-5.068,-5.0798,-5.076,-5.076,-5.0741,-5.0644,-5.026,-5.0125,-5.0048,-4.9683,-4.9567,-4.9565,-4.961,-5.021,-5.1015,-5.1854,-5.2647,-5.3409,-5.4295,-5.3862,-5.3607,-5.4789,-5.5088,-5.5237,-5.564,-5.5703,-5.5703,-5.5703,-5.5703,-5.5703,-5.5703,-5.5703,-5.5703,-5.5703,-5.5703,-5.5703,-5.5703,-5.5703,-5.5703,-5.5703,-5.5703,-5.5703,-5.5703,-5.5703,-5.5703,-5.5703,-5.5703,-5.5703,-5.5703,-5.5838,-5.6016,-5.6212,-5.6348,-5.6484,-5.6601,-5.6601,-5.6601,0.0,0.0,0.0,0.0,0.0,0.0,0.0,0.0,0.0,0.0,0.0,0.0,0.0,0.0,0.0,0.0,0.0,0.0,0.0,0.0,0.0,0.0,0.0,0.0,0.0,0.0,0.0,0.0,0.0,-4.649,-4.649,-4.622,-4.6451,-4.7298,-4.6509,-4.6201,-4.649,-4.649,-4.649,-4.649,-4.7067,-4.7185,-4.6967,-4.7522,-4.7837,-4.7938,-4.8243,-4.9124,-5.0294,-5.0294,-5.0068,-4.969,-4.9309,-4.9397,-4.966,-4.9288,-4.949,-4.9933,-4.9933,-4.9933,-4.9913,-4.976,-4.9701,-4.9695,-4.9524,-4.949,-4.9499,-4.9496,-4.9551,-4.9759,-5.0576,-5.0831,-5.1231,-5.2586,-5.2844,-5.3155,-5.442,-5.4714,-5.4898,-5.5566,-5.5703,-5.5703,-5.5703,-5.5703,-5.5703,-5.5703,-5.5703,-5.5703,-5.5703,-5.5703,-5.5703,-5.5703,-5.5703,-5.5703,-5.5703,-5.5703,-5.5703,-5.5703,-5.5703,-5.5703,-5.5703,-5.5703,-5.5703,-5.5703,-5.5742,-5.5903,-5.6207,-5.6327,-5.6465,-5.6601,-5.6601,-5.6601,0.0,0.0,0.0,0.0,0.0,0.0,0.0,0.0,0.0,0.0,0.0,0.0,0.0,0.0,0.0,0.0,0.0,0.0,0.0,0.0,0.0,0.0,0.0,0.0,0.0,0.0,0.0,0.0,0.0,0.0,-4.5586,-4.5586,-4.5874,-4.6451,-4.5893,-4.5586,-4.5586,-4.5586,-4.5531,-4.5457,-4.6014,-4.6084,-4.5741,-4.6311,-4.6632,-4.6671,-4.6671,-4.7598,-4.9087,-4.9087,-4.8859,-4.8442,-4.8042,-4.8306,-4.8842,-4.8452,-4.8809,-4.9508,-4.9515,-4.9518,-4.9474,-4.933,-4.9296,-4.9264,-4.915,-4.9112,-4.9116,-4.9084,-4.8915,-4.8898,-4.9732,-5.0065,-5.0377,-5.115,-5.1765,-5.2416,-5.324,-5.4104,-5.4902,-5.5566,-5.5703,-5.5703,-5.5703,-5.5703,-5.5703,-5.5703,-5.5703,-5.5703,-5.5703,-5.5703,-5.5703,-5.5703,-5.5703,-5.5703,-5.5703,-5.5703,-5.5703,-5.5703,-5.5703,-5.5703,-5.5703,-5.5703,-5.5703,-5.5703,-5.5703,-5.5857,-5.6205,-5.6212,-5.6313,-5.6462,-5.6462,-5.6462,0.0,0.0,0.0,0.0,0.0,0.0,0.0,0.0,0.0,0.0,0.0,0.0,0.0,0.0,0.0,0.0,0.0,0.0,0.0,0.0,0.0,0.0,0.0,0.0,0.0,0.0,0.0,0.0,-4.5586,-4.5586,-4.5586,-4.5586,-4.5586,-4.5586,-4.5586,-4.5586,-4.5586,-4.5568,-4.5419,-4.5074,-4.5074,-4.4919,-4.458,-4.458,-4.5014,-4.5722,-4.5722,-4.6202,-4.7003,-4.706,-4.6834,-4.652,-4.6902,-4.7268,-4.7697,-4.8066,-4.872,-4.9439,-4.9437,-4.9432,-4.9399,-4.902,-4.8874,-4.8796,-4.8428,-4.8306,-4.8306,-4.8306,-4.8306,-4.8489,-4.9334,-5.0398,-5.1041,-5.0277,-5.073,-5.1307,-5.1313,-5.3321,-5.5218,-5.5602,-5.5684,-5.5703,-5.5703,-5.5703,-5.5703,-5.5703,-5.5703,-5.5703,-5.5703,-5.5703,-5.5703,-5.5703,-5.5703,-5.5703,-5.5703,-5.5703,-5.5703,-5.5703,-5.5703,-5.5703,-5.5703,-5.5703,-5.5703,-5.5703,-5.5703,-5.5857,-5.6186,-5.599,-5.6013,-5.622,-5.62,-5.62,-3.5493,0.0,0.0,0.0,0.0,0.0,0.0,0.0,0.0,0.0,0.0,0.0,0.0,0.0,0.0,0.0,0.0,0.0,0.0,0.0,0.0,0.0,0.0,0.0,0.0,0.0,0.0,0.0,-4.5586,-4.5586,-4.5586,-4.5586,-4.5586,-4.5586,-4.5362,-4.5243,-4.5243,-4.4988,-4.4849,-4.4751,-4.4751,-4.4553,-4.4165,-4.4165,-4.4147,-4.4156,-4.4156,-4.4267,-4.4615,-4.6085,-4.6411,-4.6006,-4.5552,-4.5777,-4.6338,-4.5856,-4.6579,-4.7772,-4.7758,-4.8121,-4.8604,-4.8481,-4.8483,-4.8438,-4.8329,-4.8306,-4.8306,-4.8306,-4.8306,-4.8361,-4.86,-4.9122,-4.966,-4.9998,-5.0711,-5.1465,-5.2088,-5.3508,-5.4713,-5.4797,-5.5299,-5.5703,-5.5703,-5.5703,-5.5703,-5.5703,-5.5703,-5.5703,-5.5703,-5.5703,-5.5703,-5.5703,-5.5703,-5.5703,-5.5703,-5.5703,-5.5703,-5.5703,-5.5703,-5.5703,-5.5703,-5.5703,-5.5703,-5.5703,-5.5703,-5.5742,-5.5838,-5.5884,-5.6059,-5.6347,-5.625,-5.6212,0.0,0.0,0.0,0.0,0.0,0.0,-3.6622,-3.6834,0.0,0.0,0.0,0.0,0.0,0.0,0.0,0.0,0.0,0.0,0.0,0.0,0.0,0.0,0.0,0.0,0.0,-4.4547,-4.4547,-4.4547,-4.4874,-4.5047,-4.5047,-4.5047,-4.4893,-4.4566,-4.423,-4.4069,-4.4069,-4.372,-4.366,-4.3839,-4.3839,-4.3829,-4.3804,-4.3804,-4.366,-4.3497,-4.3497,-4.3497,-4.3587,-4.4761,-4.5134,-4.4837,-4.4378,-4.469,-4.5333,-4.4874,-4.5498,-4.6581,-4.6596,-4.6887,-4.7311,-4.7311,-4.7311,-4.7311,-4.7311,-4.7512,-4.7789,-4.7789,-4.8047,-4.8306,-4.8306,-4.8728,-4.927,-4.9757,-5.0721,-5.1599,-5.1771,-5.2941,-5.4068,-5.4434,-5.5145,-5.5703,-5.5703,-5.5703,-5.5703,-5.5703,-5.5703,-5.5703,-5.5703,-5.5703,-5.5568,-5.5241,-5.5203,-5.5049,-5.4684,-5.4664,-5.4799,-5.5184,-5.5203,-5.5338,-5.5684,-5.5703,-5.5703,-5.5703,-5.5703,-5.5703,-5.5703,-5.578,-5.5915,-5.6109,-5.6032,-5.5994,0.0,0.0,0.0,0.0,0.0,0.0,-3.6449,-3.6084,-3.5815,0.0,0.0,0.0,0.0,0.0,0.0,0.0,0.0,0.0,0.0,0.0,0.0,0.0,0.0,0.0,-4.3109,-4.3069,-4.3104,-4.3104,-4.3758,-4.4162,-4.4162,-4.4162,-4.3835,-4.3124,-4.2738,-4.254,-4.254,-4.2167,-4.2198,-4.2627,-4.272,-4.2952,-4.3369,-4.3442,-4.3497,-4.3497,-4.3497,-4.3497,-4.3497,-4.3497,-4.3497,-4.3497,-4.3497,-4.3952,-4.4573,-4.4573,-4.5068,-4.5766,-4.5773,-4.5843,-4.5898,-4.5898,-4.5898,-4.5898,-4.5898,-4.6466,-4.7108,-4.7199,-4.7752,-4.8306,-4.8306,-4.8915,-4.9504,-4.9504,-5.0645,-5.1568,-5.0837,-5.201,-5.3433,-5.4203,-5.5011,-5.5568,-5.5568,-5.5645,-5.5703,-5.5703,-5.5703,-5.5703,-5.5703,-5.5607,-5.528,-5.4587,-5.4414,-5.4049,-5.328,-5.3203,-5.3568,-5.4434,-5.4491,-5.4818,-5.553,-5.5588,-5.5588,-5.5588,-5.5684,-5.5722,-5.5722,-5.5722,-5.5703,-5.5703,-5.5703,-5.5703,0.0,0.0,0.0,0.0,0.0,0.0,-3.6007,-3.6122,-3.6334,0.0,0.0,0.0,0.0,0.0,0.0,0.0,0.0,0.0,0.0,0.0,0.0,0.0,0.0,0.0,-4.2699,-4.2944,-4.3104,-4.3104,-4.3258,-4.3335,-4.3335,-4.3335,-4.3258,-4.3104,-4.2517,-4.2205,-4.2205,-4.1595,-4.1322,-4.1443,-4.2087,-4.2459,-4.2561,-4.3185,-4.3497,-4.3497,-4.3497,-4.3497,-4.3497,-4.3497,-4.3497,-4.3497,-4.3497,-4.3605,-4.3734,-4.3734,-4.4244,-4.4939,-4.4943,-4.5348,-4.5897,-4.5897,-4.5897,-4.5897,-4.5897,-4.6471,-4.7256,-4.7901,-4.8157,-4.8306,-4.8306,-4.8915,-4.9504,-4.9504,-5.0226,-5.0894,-5.0721,-5.201,-5.326,-5.3414,-5.4145,-5.4722,-5.4722,-5.5261,-5.5703,-5.5703,-5.5703,-5.5703,-5.5703,-5.5126,-5.4664,-5.4511,-5.3876,-5.3376,-5.3222,-5.3203,-5.3568,-5.4434,-5.4491,-5.4568,-5.4722,-5.4836,-5.4914,-5.4897,-5.5532,-5.5857,-5.5857,-5.5857,-5.5799,-5.5703,-5.5703,-5.5703,0.0,0.0,0.0,-3.6112,0.0,0.0,0.0,-3.6307,-3.6307,0.0,0.0,0.0,0.0,0.0,0.0,0.0,0.0,0.0,0.0,0.0,0.0,0.0,0.0,0.0,-4.1587,-4.1692,-4.197,-4.2431,-4.245,-4.245,-4.245,-4.245,-4.2258,-4.1816,-4.1197,-4.0844,-4.0844,-4.0222,-4.0102,-4.0506,-4.091,-4.1515,-4.2304,-4.2708,-4.2892,-4.291,-4.3314,-4.3259,-4.2928,-4.3314,-4.3497,-4.3497,-4.3497,-4.3497,-4.3497,-4.3497,-4.3752,-4.4081,-4.4081,-4.4354,-4.4683,-4.4683,-4.4683,-4.4683,-4.4683,-4.5552,-4.6743,-4.7956,-4.8306,-4.8326,-4.855,-4.9062,-4.9627,-5.0266,-5.0841,-5.1298,-5.1298,-5.1972,-5.2549,-5.2549,-5.326,-5.4126,-5.4953,-5.5434,-5.5703,-5.5703,-5.5703,-5.5703,-5.5703,-5.5338,-5.478,-5.3933,-5.3453,-5.2856,-5.201,-5.1952,-5.2491,-5.378,-5.3433,-5.3626,-5.4547,-5.4239,-5.4073,-5.4146,-5.4959,-5.5399,-5.5415,-5.5742,-5.5818,-5.5703,-5.5703,-5.5703,0.0,0.0,0.0,0.0,0.0,-3.7517,0.0,0.0,0.0,0.0,0.0,0.0,0.0,0.0,0.0,0.0,0.0,0.0,0.0,0.0,0.0,0.0,0.0,0.0,0.0,-4.0088,-4.0373,-4.1258,-4.1316,-4.1316,-4.1316,-4.1316,-4.0973,-4.0194,-3.9656,-3.9406,-3.9486,-3.897,-3.9038,-3.9662,-3.9974,-4.0818,-4.2084,-4.2396,-4.2451,-4.2341,-4.2983,-4.28,-4.2139,-4.2928,-4.3277,-4.3296,-4.3442,-4.3497,-4.3497,-4.3497,-4.3497,-4.3497,-4.3497,-4.3497,-4.3497,-4.3497,-4.3497,-4.3552,-4.3864,-4.4875,-4.625,-4.7827,-4.8306,-4.8383,-4.8813,-4.9202,-4.9759,-5.0818,-5.1376,-5.1683,-5.1683,-5.1798,-5.1914,-5.1914,-5.2741,-5.3876,-5.5241,-5.5588,-5.5703,-5.5703,-5.5703,-5.5645,-5.5491,-5.5472,-5.4818,-5.3126,-5.2953,-5.2337,-5.0818,-5.0721,-5.1375,-5.2895,-5.2356,-5.2663,-5.4182,-5.3606,-5.3384,-5.368,-5.4507,-5.5016,-5.5182,-5.5711,-5.5865,-5.5742,-5.5742,-5.5742,0.0,0.0,0.0,0.0,-3.8184,0.0,0.0,0.0,-3.7653,-3.6314,0.0,0.0,0.0,0.0,0.0,0.0,0.0,0.0,0.0,0.0,0.0,0.0,0.0,0.0,0.0,-3.8572,-3.8642,-3.9508,-3.9585,-3.9585,-3.9585,-3.9585,-3.9394,-3.9013,-3.8639,-3.8662,-3.916,-3.8844,-3.8762,-3.8854,-4.0286,-4.1075,-4.1295,-4.2708,-4.2965,-4.2304,-4.2396,-4.1992,-4.1313,-4.2103,-4.2454,-4.2514,-4.3206,-4.3497,-4.3497,-4.3497,-4.3497,-4.3497,-4.3497,-4.3497,-4.3497,-4.3497,-4.3497,-4.3754,-4.5186,-4.5773,-4.625,-4.7827,-4.8306,-4.8383,-4.8813,-4.9202,-4.9608,-5.0114,-5.0533,-5.0837,-5.0837,-5.1395,-5.1914,-5.1914,-5.3241,-5.4414,-5.4607,-5.5222,-5.5703,-5.5703,-5.5703,-5.5434,-5.4722,-5.4645,-5.3972,-5.2241,-5.2049,-5.1683,-5.0779,-5.0818,-5.126,-5.2164,-5.224,-5.2355,-5.2567,-5.2588,-5.3028,-5.3941,-5.4684,-5.5467,-5.6225,-5.618,-5.6067,-5.5876,-5.5876,-5.5876,0.0,0.0,0.0,0.0,0.0,0.0,-3.8182,0.0,-3.7634,0.0,0.0,0.0,0.0,0.0,0.0,0.0,-3.41,0.0,0.0,0.0,0.0,0.0,0.0,0.0,0.0,0.0,0.0,0.0,-3.8312,-3.838,-3.8546,-3.8399,-3.8454,-3.8785,-3.8331,-3.8415,-3.908,-3.8844,-3.8707,-3.8707,-3.9386,-3.9955,-4.0432,-4.1093,-4.1222,-4.0928,-4.1405,-4.1423,-4.1167,-4.1989,-4.258,-4.3041,-4.3369,-4.3497,-4.3497,-4.3497,-4.3497,-4.3497,-4.3497,-4.3497,-4.3497,-4.3497,-4.3811,-4.4417,-4.5535,-4.625,-4.6837,-4.7994,-4.8495,-4.8744,-4.9139,-4.9532,-5.0063,-5.0929,-5.091,-5.0818,-5.1298,-5.1298,-5.1337,-5.1818,-5.2491,-5.3145,-5.3664,-5.4838,-5.553,-5.5068,-5.4991,-5.4876,-5.453,-5.4126,-5.3395,-5.2164,-5.2029,-5.1722,-5.0991,-5.0914,-5.1276,-5.2172,-5.2356,-5.22,-5.1683,-5.178,-5.2303,-5.3223,-5.4043,-5.4886,-5.5764,-5.6135,-5.6282,-5.6186,-5.6109,-5.6078,-3.8109,0.0,0.0,0.0,0.0,0.0,0.0,0.0,0.0,0.0,0.0,0.0,0.0,0.0,0.0,0.0,0.0,-3.4072,0.0,0.0,0.0,0.0,0.0,0.0,0.0,0.0,0.0,-3.7414,-3.7262,-3.7221,-3.7414,-3.7239,-3.7376,-3.7885,-3.7464,-3.7713,-3.8646,-3.8472,-3.8487,-3.8707,-3.8927,-3.9331,-3.99,-4.012,-4.0102,-3.9918,-4.0524,-4.0653,-4.0524,-4.153,-4.232,-4.2892,-4.3314,-4.3497,-4.3497,-4.3497,-4.3497,-4.3497,-4.3497,-4.3497,-4.3497,-4.3497,-4.3903,-4.451,-4.5334,-4.6195,-4.7095,-4.7905,-4.8577,-4.9171,-4.9561,-4.9898,-5.0336,-5.1353,-5.1125,-5.0856,-5.1433,-5.1106,-5.0856,-5.1471,-5.176,-5.2029,-5.2433,-5.4107,-5.5088,-5.426,-5.4357,-5.4337,-5.3895,-5.3587,-5.2993,-5.1947,-5.2024,-5.1873,-5.1145,-5.1029,-5.1277,-5.201,-5.213,-5.19,-5.1266,-5.1352,-5.1914,-5.3027,-5.3437,-5.4199,-5.5293,-5.5591,-5.5735,-5.5746,-5.6078,-5.6251,0.0,0.0,0.0,-3.8652,0.0,0.0,0.0,0.0,-3.9368,0.0,0.0,0.0,0.0,0.0,0.0,0.0,0.0,0.0,0.0,0.0,0.0,0.0,0.0,0.0,0.0,0.0,0.0,-3.6998,-3.6396,-3.5962,-3.5983,-3.5962,-3.5854,-3.5608,-3.5578,-3.6226,-3.7526,-3.7544,-3.7918,-3.8707,-3.9478,-3.9863,-3.9918,-4.0726,-4.0653,-3.99,-3.9918,-3.9496,-3.8909,-4.0496,-4.1144,-4.135,-4.2892,-4.3497,-4.3497,-4.3497,-4.3497,-4.3497,-4.3497,-4.3497,-4.3497,-4.3497,-4.3516,-4.3681,-4.449,-4.5574,-4.6698,-4.7499,-4.8571,-4.9561,-4.9974,-5.0092,-5.0202,-5.0642,-5.0721,-5.0702,-5.0721,-5.0721,-5.0702,-5.0721,-5.1375,-5.1664,-5.0914,-5.2876,-5.4241,-5.3376,-5.3953,-5.3933,-5.2375,-5.2895,-5.2817,-5.1275,-5.1822,-5.1975,-5.1164,-5.1164,-5.1261,-5.1423,-5.1425,-5.1425,-5.1386,-5.1406,-5.2207,-5.3926,-5.3164,-5.3594,-5.5293,-5.4472,-5.4081,-5.4119,-5.5676,-5.64,0.0,0.0,-3.8707,-3.8707,0.0,0.0,0.0,0.0,0.0,0.0,0.0,0.0,0.0,0.0,0.0,0.0,0.0,0.0,0.0,0.0,0.0,0.0,0.0,0.0,0.0,0.0,0.0,-3.4416,-3.4622,-3.4617,-3.4261,-3.4564,-3.5007,-3.5485,-3.5277,-3.5662,-3.6688,-3.7221,-3.7624,-3.7918,-3.8726,-3.9111,-3.9129,-3.9386,-3.9368,-3.9111,-3.9111,-3.9239,-3.9533,-4.0086,-4.0616,-4.122,-4.2294,-4.2732,-4.2768,-4.3314,-4.3497,-4.3497,-4.3497,-4.3497,-4.3497,-4.3497,-4.3879,-4.432,-4.4617,-4.5888,-4.7332,-4.7611,-4.8746,-4.9924,-5.0068,-4.9873,-4.9813,-5.0529,-5.026,-4.999,-5.0567,-5.0702,-5.0702,-5.0702,-5.0914,-5.101,-5.0741,-5.1856,-5.2683,-5.2395,-5.2587,-5.2587,-5.2049,-5.1915,-5.1671,-5.1162,-5.1388,-5.1495,-5.1317,-5.1311,-5.1342,-5.1406,-5.1406,-5.1406,-5.1406,-5.1406,-5.1953,-5.3125,-5.2851,-5.3262,-5.4433,-5.4141,-5.4004,-5.4023,-5.5148,-5.5665,-3.8707,-3.8707,0.0,-3.8707,-3.8707,0.0,-3.8707,0.0,0.0,0.0,0.0,0.0,0.0,0.0,0.0,0.0,0.0,0.0,0.0,-3.2852,0.0,0.0,0.0,0.0,0.0,0.0,-3.4328,-3.3765,-3.3938,-3.3924,0.0,0.0,-3.4328,-3.4884,-3.4686,-3.4981,-3.5826,-3.6652,-3.7202,-3.7526,-3.8322,-3.8707,-3.8707,-3.8707,-3.8707,-3.8707,-3.8707,-3.9001,-3.9496,-3.9774,-4.0207,-4.076,-4.1864,-4.2323,-4.2422,-4.3188,-4.3497,-4.3497,-4.3497,-4.3497,-4.3497,-4.3497,-4.3826,-4.4281,-4.442,-4.5876,-4.7578,-4.8029,-4.9181,-5.0371,-5.0658,-5.0312,-4.999,-5.0567,-5.026,-5.001,-5.0567,-5.0702,-5.0702,-5.0702,-5.0702,-5.0721,-5.076,-5.1202,-5.1548,-5.1548,-5.1798,-5.1895,-5.1683,-5.1354,-5.1156,-5.1193,-5.1257,-5.1304,-5.1396,-5.1396,-5.1406,-5.1406,-5.1406,-5.1406,-5.1406,-5.1406,-5.2075,-5.3522,-5.2648,-5.2908,-5.4394,-5.3457,-5.3027,-5.3105,-5.3965,-5.4531]}]]